<?xml version="1.0" encoding="UTF-8" standalone="no" ?>
<gpx xmlns="http://www.topografix.com/GPX/1/1" xmlns:xsi="http://www.w3.org/2001/XMLSchema-instance" xsi:schemaLocation="http://www.topografix.com/GPX/1/1 http://www.topografix.com/GPX/1/1/gpx.xsd" version="1.1" creator="VisuGPX - https://www.visugpx.com">
  <metadata>
    <name>Locronan/St Pierre/Plogonnec</name>
    <desc><![CDATA[Une belle rando, tout d\'abord le joli village de Locronan, puis la campagne et les chemins creux, le Bois du Névet et la chapelle St Pierre datée de 1616, et un dénivelé intéressant avant de retrouver Locronan.
ch]]></desc>
  </metadata>
  <trk>
    <name><![CDATA[Locronan/St Pierre/Plogonnec 03/12/15]]></name>
    <trkseg>
      <trkpt lat="48.09784" lon="-4.21207">
        <ele>158.75476074219</ele>
        <time>2015-12-03T12:52:38Z</time>
      </trkpt>
      <trkpt lat="48.09784" lon="-4.21205">
        <ele>158.27416992188</ele>
        <time>2015-12-03T12:52:39Z</time>
      </trkpt>
      <trkpt lat="48.09785" lon="-4.21201">
        <ele>157.79357910156</ele>
        <time>2015-12-03T12:52:42Z</time>
      </trkpt>
      <trkpt lat="48.09787" lon="-4.21188">
        <ele>155.39025878906</ele>
        <time>2015-12-03T12:52:50Z</time>
      </trkpt>
      <trkpt lat="48.09789" lon="-4.2118">
        <ele>154.42895507812</ele>
        <time>2015-12-03T12:52:55Z</time>
      </trkpt>
      <trkpt lat="48.09792" lon="-4.21176">
        <ele>154.42895507812</ele>
        <time>2015-12-03T12:53:01Z</time>
      </trkpt>
      <trkpt lat="48.09792" lon="-4.21169">
        <ele>153.94836425781</ele>
        <time>2015-12-03T12:53:06Z</time>
      </trkpt>
      <trkpt lat="48.09793" lon="-4.21161">
        <ele>153.94836425781</ele>
        <time>2015-12-03T12:53:10Z</time>
      </trkpt>
      <trkpt lat="48.09795" lon="-4.21153">
        <ele>152.98693847656</ele>
        <time>2015-12-03T12:53:15Z</time>
      </trkpt>
      <trkpt lat="48.09796" lon="-4.21147">
        <ele>152.98693847656</ele>
        <time>2015-12-03T12:53:18Z</time>
      </trkpt>
      <trkpt lat="48.09798" lon="-4.2114">
        <ele>152.98693847656</ele>
        <time>2015-12-03T12:53:23Z</time>
      </trkpt>
      <trkpt lat="48.098" lon="-4.21126">
        <ele>153.46765136719</ele>
        <time>2015-12-03T12:53:31Z</time>
      </trkpt>
      <trkpt lat="48.09802" lon="-4.21114">
        <ele>153.94836425781</ele>
        <time>2015-12-03T12:53:38Z</time>
      </trkpt>
      <trkpt lat="48.09802" lon="-4.21108">
        <ele>154.42895507812</ele>
        <time>2015-12-03T12:53:41Z</time>
      </trkpt>
      <trkpt lat="48.098" lon="-4.21103">
        <ele>153.94836425781</ele>
        <time>2015-12-03T12:53:44Z</time>
      </trkpt>
      <trkpt lat="48.09798" lon="-4.21097">
        <ele>154.42895507812</ele>
        <time>2015-12-03T12:53:48Z</time>
      </trkpt>
      <trkpt lat="48.09798" lon="-4.21094">
        <ele>154.90954589844</ele>
        <time>2015-12-03T12:53:50Z</time>
      </trkpt>
      <trkpt lat="48.09799" lon="-4.21083">
        <ele>153.94836425781</ele>
        <time>2015-12-03T12:53:58Z</time>
      </trkpt>
      <trkpt lat="48.098" lon="-4.21079">
        <ele>153.46765136719</ele>
        <time>2015-12-03T12:54:00Z</time>
      </trkpt>
      <trkpt lat="48.09801" lon="-4.21073">
        <ele>153.94836425781</ele>
        <time>2015-12-03T12:54:03Z</time>
      </trkpt>
      <trkpt lat="48.09802" lon="-4.21064">
        <ele>153.94836425781</ele>
        <time>2015-12-03T12:54:08Z</time>
      </trkpt>
      <trkpt lat="48.09803" lon="-4.21057">
        <ele>154.42895507812</ele>
        <time>2015-12-03T12:54:12Z</time>
      </trkpt>
      <trkpt lat="48.09804" lon="-4.21048">
        <ele>154.90954589844</ele>
        <time>2015-12-03T12:54:17Z</time>
      </trkpt>
      <trkpt lat="48.09804" lon="-4.21041">
        <ele>154.42895507812</ele>
        <time>2015-12-03T12:54:22Z</time>
      </trkpt>
      <trkpt lat="48.09803" lon="-4.21033">
        <ele>154.42895507812</ele>
        <time>2015-12-03T12:54:27Z</time>
      </trkpt>
      <trkpt lat="48.09804" lon="-4.2102">
        <ele>154.90954589844</ele>
        <time>2015-12-03T12:54:34Z</time>
      </trkpt>
      <trkpt lat="48.09804" lon="-4.21012">
        <ele>154.42895507812</ele>
        <time>2015-12-03T12:54:38Z</time>
      </trkpt>
      <trkpt lat="48.09804" lon="-4.21002">
        <ele>152.98693847656</ele>
        <time>2015-12-03T12:54:44Z</time>
      </trkpt>
      <trkpt lat="48.09804" lon="-4.20996">
        <ele>152.98693847656</ele>
        <time>2015-12-03T12:54:48Z</time>
      </trkpt>
      <trkpt lat="48.09805" lon="-4.20979">
        <ele>153.94836425781</ele>
        <time>2015-12-03T12:54:57Z</time>
      </trkpt>
      <trkpt lat="48.09808" lon="-4.20967">
        <ele>155.39025878906</ele>
        <time>2015-12-03T12:55:04Z</time>
      </trkpt>
      <trkpt lat="48.09809" lon="-4.20956">
        <ele>155.87097167969</ele>
        <time>2015-12-03T12:55:10Z</time>
      </trkpt>
      <trkpt lat="48.0981" lon="-4.20946">
        <ele>154.42895507812</ele>
        <time>2015-12-03T12:55:16Z</time>
      </trkpt>
      <trkpt lat="48.09812" lon="-4.20928">
        <ele>153.46765136719</ele>
        <time>2015-12-03T12:55:26Z</time>
      </trkpt>
      <trkpt lat="48.09812" lon="-4.20923">
        <ele>153.94836425781</ele>
        <time>2015-12-03T12:55:29Z</time>
      </trkpt>
      <trkpt lat="48.09814" lon="-4.20909">
        <ele>153.46765136719</ele>
        <time>2015-12-03T12:55:36Z</time>
      </trkpt>
      <trkpt lat="48.09815" lon="-4.20897">
        <ele>153.46765136719</ele>
        <time>2015-12-03T12:55:43Z</time>
      </trkpt>
      <trkpt lat="48.09817" lon="-4.20885">
        <ele>154.90954589844</ele>
        <time>2015-12-03T12:55:50Z</time>
      </trkpt>
      <trkpt lat="48.09821" lon="-4.20873">
        <ele>159.23547363281</ele>
        <time>2015-12-03T12:55:56Z</time>
      </trkpt>
      <trkpt lat="48.09824" lon="-4.20863">
        <ele>161.158203125</ele>
        <time>2015-12-03T12:56:02Z</time>
      </trkpt>
      <trkpt lat="48.09825" lon="-4.20854">
        <ele>157.31286621094</ele>
        <time>2015-12-03T12:56:08Z</time>
      </trkpt>
      <trkpt lat="48.09829" lon="-4.20844">
        <ele>152.98693847656</ele>
        <time>2015-12-03T12:56:15Z</time>
      </trkpt>
      <trkpt lat="48.09831" lon="-4.20839">
        <ele>153.46765136719</ele>
        <time>2015-12-03T12:56:21Z</time>
      </trkpt>
      <trkpt lat="48.09834" lon="-4.20831">
        <ele>157.79357910156</ele>
        <time>2015-12-03T12:56:27Z</time>
      </trkpt>
      <trkpt lat="48.09835" lon="-4.2083">
        <ele>158.27416992188</ele>
        <time>2015-12-03T12:56:28Z</time>
      </trkpt>
      <trkpt lat="48.09838" lon="-4.20817">
        <ele>157.79357910156</ele>
        <time>2015-12-03T12:56:35Z</time>
      </trkpt>
      <trkpt lat="48.09841" lon="-4.20813">
        <ele>158.27416992188</ele>
        <time>2015-12-03T12:56:38Z</time>
      </trkpt>
      <trkpt lat="48.09847" lon="-4.20807">
        <ele>159.23547363281</ele>
        <time>2015-12-03T12:56:43Z</time>
      </trkpt>
      <trkpt lat="48.0985" lon="-4.208">
        <ele>160.67749023438</ele>
        <time>2015-12-03T12:56:47Z</time>
      </trkpt>
      <trkpt lat="48.09856" lon="-4.20794">
        <ele>164.52270507812</ele>
        <time>2015-12-03T12:56:51Z</time>
      </trkpt>
      <trkpt lat="48.09853" lon="-4.20778">
        <ele>162.11950683594</ele>
        <time>2015-12-03T12:56:58Z</time>
      </trkpt>
      <trkpt lat="48.09851" lon="-4.20762">
        <ele>159.71618652344</ele>
        <time>2015-12-03T12:57:06Z</time>
      </trkpt>
      <trkpt lat="48.09852" lon="-4.2075">
        <ele>160.19689941406</ele>
        <time>2015-12-03T12:57:13Z</time>
      </trkpt>
      <trkpt lat="48.09853" lon="-4.20739">
        <ele>159.71618652344</ele>
        <time>2015-12-03T12:57:19Z</time>
      </trkpt>
      <trkpt lat="48.09853" lon="-4.20738">
        <ele>159.71618652344</ele>
        <time>2015-12-03T12:57:20Z</time>
      </trkpt>
      <trkpt lat="48.09853" lon="-4.20729">
        <ele>159.23547363281</ele>
        <time>2015-12-03T12:57:25Z</time>
      </trkpt>
      <trkpt lat="48.09857" lon="-4.20713">
        <ele>158.75476074219</ele>
        <time>2015-12-03T12:57:34Z</time>
      </trkpt>
      <trkpt lat="48.09861" lon="-4.20699">
        <ele>161.158203125</ele>
        <time>2015-12-03T12:57:42Z</time>
      </trkpt>
      <trkpt lat="48.0986" lon="-4.20686">
        <ele>160.67749023438</ele>
        <time>2015-12-03T12:57:48Z</time>
      </trkpt>
      <trkpt lat="48.09861" lon="-4.20675">
        <ele>158.27416992188</ele>
        <time>2015-12-03T12:57:54Z</time>
      </trkpt>
      <trkpt lat="48.09861" lon="-4.20664">
        <ele>152.50634765625</ele>
        <time>2015-12-03T12:58:01Z</time>
      </trkpt>
      <trkpt lat="48.09867" lon="-4.2065">
        <ele>156.83215332031</ele>
        <time>2015-12-03T12:58:08Z</time>
      </trkpt>
      <trkpt lat="48.09868" lon="-4.20643">
        <ele>156.83215332031</ele>
        <time>2015-12-03T12:58:12Z</time>
      </trkpt>
      <trkpt lat="48.09863" lon="-4.20636">
        <ele>159.23547363281</ele>
        <time>2015-12-03T12:58:19Z</time>
      </trkpt>
      <trkpt lat="48.09854" lon="-4.20632">
        <ele>156.83215332031</ele>
        <time>2015-12-03T12:58:26Z</time>
      </trkpt>
      <trkpt lat="48.09847" lon="-4.20629">
        <ele>159.23547363281</ele>
        <time>2015-12-03T12:58:33Z</time>
      </trkpt>
      <trkpt lat="48.09841" lon="-4.20626">
        <ele>160.67749023438</ele>
        <time>2015-12-03T12:58:39Z</time>
      </trkpt>
      <trkpt lat="48.09835" lon="-4.20622">
        <ele>161.158203125</ele>
        <time>2015-12-03T12:58:44Z</time>
      </trkpt>
      <trkpt lat="48.09831" lon="-4.2062">
        <ele>160.67749023438</ele>
        <time>2015-12-03T12:58:48Z</time>
      </trkpt>
      <trkpt lat="48.09825" lon="-4.20617">
        <ele>162.11950683594</ele>
        <time>2015-12-03T12:58:54Z</time>
      </trkpt>
      <trkpt lat="48.09818" lon="-4.20615">
        <ele>163.08081054688</ele>
        <time>2015-12-03T12:59:00Z</time>
      </trkpt>
      <trkpt lat="48.09815" lon="-4.20613">
        <ele>163.08081054688</ele>
        <time>2015-12-03T12:59:02Z</time>
      </trkpt>
      <trkpt lat="48.09807" lon="-4.2061">
        <ele>163.5615234375</ele>
        <time>2015-12-03T12:59:10Z</time>
      </trkpt>
      <trkpt lat="48.09801" lon="-4.20608">
        <ele>163.5615234375</ele>
        <time>2015-12-03T12:59:17Z</time>
      </trkpt>
      <trkpt lat="48.09795" lon="-4.20609">
        <ele>164.04211425781</ele>
        <time>2015-12-03T12:59:23Z</time>
      </trkpt>
      <trkpt lat="48.0979" lon="-4.20606">
        <ele>165.00341796875</ele>
        <time>2015-12-03T12:59:29Z</time>
      </trkpt>
      <trkpt lat="48.09784" lon="-4.20604">
        <ele>165.96472167969</ele>
        <time>2015-12-03T12:59:35Z</time>
      </trkpt>
      <trkpt lat="48.09779" lon="-4.20601">
        <ele>167.40673828125</ele>
        <time>2015-12-03T12:59:41Z</time>
      </trkpt>
      <trkpt lat="48.09773" lon="-4.20596">
        <ele>168.84875488281</ele>
        <time>2015-12-03T12:59:47Z</time>
      </trkpt>
      <trkpt lat="48.09768" lon="-4.20593">
        <ele>170.29064941406</ele>
        <time>2015-12-03T12:59:53Z</time>
      </trkpt>
      <trkpt lat="48.09766" lon="-4.20592">
        <ele>171.25207519531</ele>
        <time>2015-12-03T12:59:55Z</time>
      </trkpt>
      <trkpt lat="48.09761" lon="-4.20588">
        <ele>172.21325683594</ele>
        <time>2015-12-03T13:00:00Z</time>
      </trkpt>
      <trkpt lat="48.09757" lon="-4.20586">
        <ele>172.21325683594</ele>
        <time>2015-12-03T13:00:04Z</time>
      </trkpt>
      <trkpt lat="48.09752" lon="-4.20582">
        <ele>172.21325683594</ele>
        <time>2015-12-03T13:00:11Z</time>
      </trkpt>
      <trkpt lat="48.09746" lon="-4.20576">
        <ele>171.25207519531</ele>
        <time>2015-12-03T13:00:18Z</time>
      </trkpt>
      <trkpt lat="48.09742" lon="-4.20573">
        <ele>171.73266601562</ele>
        <time>2015-12-03T13:00:23Z</time>
      </trkpt>
      <trkpt lat="48.09736" lon="-4.20568">
        <ele>172.69396972656</ele>
        <time>2015-12-03T13:00:30Z</time>
      </trkpt>
      <trkpt lat="48.09728" lon="-4.20563">
        <ele>175.57788085938</ele>
        <time>2015-12-03T13:00:37Z</time>
      </trkpt>
      <trkpt lat="48.09726" lon="-4.20562">
        <ele>176.53930664062</ele>
        <time>2015-12-03T13:00:39Z</time>
      </trkpt>
      <trkpt lat="48.09723" lon="-4.20562">
        <ele>177.50061035156</ele>
        <time>2015-12-03T13:00:41Z</time>
      </trkpt>
      <trkpt lat="48.0972" lon="-4.2056">
        <ele>178.94262695312</ele>
        <time>2015-12-03T13:00:45Z</time>
      </trkpt>
      <trkpt lat="48.09715" lon="-4.20556">
        <ele>179.42321777344</ele>
        <time>2015-12-03T13:00:51Z</time>
      </trkpt>
      <trkpt lat="48.09708" lon="-4.2055">
        <ele>180.865234375</ele>
        <time>2015-12-03T13:00:58Z</time>
      </trkpt>
      <trkpt lat="48.09704" lon="-4.20547">
        <ele>181.34582519531</ele>
        <time>2015-12-03T13:01:02Z</time>
      </trkpt>
      <trkpt lat="48.09697" lon="-4.20555">
        <ele>178.94262695312</ele>
        <time>2015-12-03T13:01:09Z</time>
      </trkpt>
      <trkpt lat="48.09693" lon="-4.2056">
        <ele>177.02001953125</ele>
        <time>2015-12-03T13:01:14Z</time>
      </trkpt>
      <trkpt lat="48.09689" lon="-4.20566">
        <ele>178.94262695312</ele>
        <time>2015-12-03T13:01:20Z</time>
      </trkpt>
      <trkpt lat="48.09684" lon="-4.2057">
        <ele>179.42321777344</ele>
        <time>2015-12-03T13:01:25Z</time>
      </trkpt>
      <trkpt lat="48.09678" lon="-4.20572">
        <ele>179.42321777344</ele>
        <time>2015-12-03T13:01:31Z</time>
      </trkpt>
      <trkpt lat="48.09675" lon="-4.20577">
        <ele>179.90380859375</ele>
        <time>2015-12-03T13:01:36Z</time>
      </trkpt>
      <trkpt lat="48.0967" lon="-4.20583">
        <ele>181.34582519531</ele>
        <time>2015-12-03T13:01:42Z</time>
      </trkpt>
      <trkpt lat="48.09666" lon="-4.20586">
        <ele>180.865234375</ele>
        <time>2015-12-03T13:01:46Z</time>
      </trkpt>
      <trkpt lat="48.09662" lon="-4.20589">
        <ele>180.865234375</ele>
        <time>2015-12-03T13:01:49Z</time>
      </trkpt>
      <trkpt lat="48.09659" lon="-4.20597">
        <ele>178.94262695312</ele>
        <time>2015-12-03T13:01:54Z</time>
      </trkpt>
      <trkpt lat="48.09654" lon="-4.20602">
        <ele>178.94262695312</ele>
        <time>2015-12-03T13:01:59Z</time>
      </trkpt>
      <trkpt lat="48.09646" lon="-4.2061">
        <ele>180.38452148438</ele>
        <time>2015-12-03T13:02:07Z</time>
      </trkpt>
      <trkpt lat="48.09645" lon="-4.20611">
        <ele>180.38452148438</ele>
        <time>2015-12-03T13:02:08Z</time>
      </trkpt>
      <trkpt lat="48.09639" lon="-4.20617">
        <ele>181.34582519531</ele>
        <time>2015-12-03T13:02:14Z</time>
      </trkpt>
      <trkpt lat="48.09635" lon="-4.20623">
        <ele>183.7490234375</ele>
        <time>2015-12-03T13:02:18Z</time>
      </trkpt>
      <trkpt lat="48.09628" lon="-4.20641">
        <ele>187.11376953125</ele>
        <time>2015-12-03T13:02:29Z</time>
      </trkpt>
      <trkpt lat="48.09622" lon="-4.20658">
        <ele>188.07507324219</ele>
        <time>2015-12-03T13:02:39Z</time>
      </trkpt>
      <trkpt lat="48.09617" lon="-4.20673">
        <ele>188.07507324219</ele>
        <time>2015-12-03T13:02:48Z</time>
      </trkpt>
      <trkpt lat="48.0961" lon="-4.20684">
        <ele>188.07507324219</ele>
        <time>2015-12-03T13:02:57Z</time>
      </trkpt>
      <trkpt lat="48.09601" lon="-4.20693">
        <ele>188.07507324219</ele>
        <time>2015-12-03T13:03:06Z</time>
      </trkpt>
      <trkpt lat="48.09592" lon="-4.20703">
        <ele>188.07507324219</ele>
        <time>2015-12-03T13:03:15Z</time>
      </trkpt>
      <trkpt lat="48.09587" lon="-4.20711">
        <ele>188.07507324219</ele>
        <time>2015-12-03T13:03:23Z</time>
      </trkpt>
      <trkpt lat="48.09581" lon="-4.20721">
        <ele>188.07507324219</ele>
        <time>2015-12-03T13:03:30Z</time>
      </trkpt>
      <trkpt lat="48.09573" lon="-4.20735">
        <ele>188.07507324219</ele>
        <time>2015-12-03T13:03:40Z</time>
      </trkpt>
      <trkpt lat="48.09567" lon="-4.20746">
        <ele>188.55578613281</ele>
        <time>2015-12-03T13:03:48Z</time>
      </trkpt>
      <trkpt lat="48.0956" lon="-4.20756">
        <ele>188.07507324219</ele>
        <time>2015-12-03T13:03:56Z</time>
      </trkpt>
      <trkpt lat="48.09557" lon="-4.20761">
        <ele>189.03637695312</ele>
        <time>2015-12-03T13:03:59Z</time>
      </trkpt>
      <trkpt lat="48.0955" lon="-4.20769">
        <ele>189.51696777344</ele>
        <time>2015-12-03T13:04:06Z</time>
      </trkpt>
      <trkpt lat="48.09544" lon="-4.20779">
        <ele>189.03637695312</ele>
        <time>2015-12-03T13:04:14Z</time>
      </trkpt>
      <trkpt lat="48.09543" lon="-4.2078">
        <ele>189.03637695312</ele>
        <time>2015-12-03T13:04:15Z</time>
      </trkpt>
      <trkpt lat="48.09538" lon="-4.20786">
        <ele>189.99768066406</ele>
        <time>2015-12-03T13:04:20Z</time>
      </trkpt>
      <trkpt lat="48.09535" lon="-4.20794">
        <ele>189.51696777344</ele>
        <time>2015-12-03T13:04:25Z</time>
      </trkpt>
      <trkpt lat="48.09529" lon="-4.20806">
        <ele>189.03637695312</ele>
        <time>2015-12-03T13:04:33Z</time>
      </trkpt>
      <trkpt lat="48.09526" lon="-4.20815">
        <ele>187.11376953125</ele>
        <time>2015-12-03T13:04:39Z</time>
      </trkpt>
      <trkpt lat="48.09525" lon="-4.20817">
        <ele>187.11376953125</ele>
        <time>2015-12-03T13:04:40Z</time>
      </trkpt>
      <trkpt lat="48.09523" lon="-4.20826">
        <ele>183.26843261719</ele>
        <time>2015-12-03T13:04:46Z</time>
      </trkpt>
      <trkpt lat="48.09514" lon="-4.2083">
        <ele>184.71057128906</ele>
        <time>2015-12-03T13:04:53Z</time>
      </trkpt>
      <trkpt lat="48.09513" lon="-4.20829">
        <ele>184.71057128906</ele>
        <time>2015-12-03T13:04:54Z</time>
      </trkpt>
      <trkpt lat="48.09505" lon="-4.20829">
        <ele>187.59436035156</ele>
        <time>2015-12-03T13:05:01Z</time>
      </trkpt>
      <trkpt lat="48.09497" lon="-4.20826">
        <ele>189.51696777344</ele>
        <time>2015-12-03T13:05:07Z</time>
      </trkpt>
      <trkpt lat="48.09485" lon="-4.20822">
        <ele>190.958984375</ele>
        <time>2015-12-03T13:05:16Z</time>
      </trkpt>
      <trkpt lat="48.09479" lon="-4.20821">
        <ele>191.43957519531</ele>
        <time>2015-12-03T13:05:21Z</time>
      </trkpt>
      <trkpt lat="48.09477" lon="-4.2082">
        <ele>191.43957519531</ele>
        <time>2015-12-03T13:05:23Z</time>
      </trkpt>
      <trkpt lat="48.0947" lon="-4.20817">
        <ele>191.92028808594</ele>
        <time>2015-12-03T13:05:29Z</time>
      </trkpt>
      <trkpt lat="48.09469" lon="-4.20817">
        <ele>191.92028808594</ele>
        <time>2015-12-03T13:05:30Z</time>
      </trkpt>
      <trkpt lat="48.09463" lon="-4.20812">
        <ele>191.92028808594</ele>
        <time>2015-12-03T13:05:35Z</time>
      </trkpt>
      <trkpt lat="48.09456" lon="-4.20806">
        <ele>192.88171386719</ele>
        <time>2015-12-03T13:05:40Z</time>
      </trkpt>
      <trkpt lat="48.09454" lon="-4.20805">
        <ele>192.88171386719</ele>
        <time>2015-12-03T13:05:42Z</time>
      </trkpt>
      <trkpt lat="48.09447" lon="-4.20799">
        <ele>192.88171386719</ele>
        <time>2015-12-03T13:05:49Z</time>
      </trkpt>
      <trkpt lat="48.09444" lon="-4.20797">
        <ele>192.88171386719</ele>
        <time>2015-12-03T13:05:51Z</time>
      </trkpt>
      <trkpt lat="48.09442" lon="-4.20796">
        <ele>193.3623046875</ele>
        <time>2015-12-03T13:05:55Z</time>
      </trkpt>
      <trkpt lat="48.09437" lon="-4.20791">
        <ele>193.84301757812</ele>
        <time>2015-12-03T13:06:01Z</time>
      </trkpt>
      <trkpt lat="48.09429" lon="-4.20785">
        <ele>192.88171386719</ele>
        <time>2015-12-03T13:06:07Z</time>
      </trkpt>
      <trkpt lat="48.09423" lon="-4.20778">
        <ele>192.40112304688</ele>
        <time>2015-12-03T13:06:13Z</time>
      </trkpt>
      <trkpt lat="48.09416" lon="-4.20769">
        <ele>193.3623046875</ele>
        <time>2015-12-03T13:06:20Z</time>
      </trkpt>
      <trkpt lat="48.09414" lon="-4.20767">
        <ele>193.84301757812</ele>
        <time>2015-12-03T13:06:22Z</time>
      </trkpt>
      <trkpt lat="48.0941" lon="-4.20763">
        <ele>193.84301757812</ele>
        <time>2015-12-03T13:06:26Z</time>
      </trkpt>
      <trkpt lat="48.09405" lon="-4.20758">
        <ele>196.24633789062</ele>
        <time>2015-12-03T13:06:32Z</time>
      </trkpt>
      <trkpt lat="48.09401" lon="-4.20753">
        <ele>196.72692871094</ele>
        <time>2015-12-03T13:06:38Z</time>
      </trkpt>
      <trkpt lat="48.09397" lon="-4.20747">
        <ele>196.24633789062</ele>
        <time>2015-12-03T13:06:43Z</time>
      </trkpt>
      <trkpt lat="48.09388" lon="-4.20743">
        <ele>197.20751953125</ele>
        <time>2015-12-03T13:06:49Z</time>
      </trkpt>
      <trkpt lat="48.09383" lon="-4.2075">
        <ele>195.28491210938</ele>
        <time>2015-12-03T13:06:54Z</time>
      </trkpt>
      <trkpt lat="48.09382" lon="-4.2076">
        <ele>192.40112304688</ele>
        <time>2015-12-03T13:06:59Z</time>
      </trkpt>
      <trkpt lat="48.09381" lon="-4.20768">
        <ele>190.47839355469</ele>
        <time>2015-12-03T13:07:04Z</time>
      </trkpt>
      <trkpt lat="48.09381" lon="-4.20774">
        <ele>188.55578613281</ele>
        <time>2015-12-03T13:07:07Z</time>
      </trkpt>
      <trkpt lat="48.09379" lon="-4.20781">
        <ele>187.59436035156</ele>
        <time>2015-12-03T13:07:13Z</time>
      </trkpt>
      <trkpt lat="48.09378" lon="-4.20788">
        <ele>185.67175292969</ele>
        <time>2015-12-03T13:07:19Z</time>
      </trkpt>
      <trkpt lat="48.09376" lon="-4.20797">
        <ele>186.15246582031</ele>
        <time>2015-12-03T13:07:24Z</time>
      </trkpt>
      <trkpt lat="48.09376" lon="-4.20799">
        <ele>185.67175292969</ele>
        <time>2015-12-03T13:07:25Z</time>
      </trkpt>
      <trkpt lat="48.09374" lon="-4.20812">
        <ele>187.59436035156</ele>
        <time>2015-12-03T13:07:31Z</time>
      </trkpt>
      <trkpt lat="48.09374" lon="-4.20816">
        <ele>187.59436035156</ele>
        <time>2015-12-03T13:07:33Z</time>
      </trkpt>
      <trkpt lat="48.09373" lon="-4.20827">
        <ele>188.55578613281</ele>
        <time>2015-12-03T13:07:39Z</time>
      </trkpt>
      <trkpt lat="48.09371" lon="-4.20838">
        <ele>189.03637695312</ele>
        <time>2015-12-03T13:07:46Z</time>
      </trkpt>
      <trkpt lat="48.09371" lon="-4.20842">
        <ele>189.03637695312</ele>
        <time>2015-12-03T13:07:48Z</time>
      </trkpt>
      <trkpt lat="48.09371" lon="-4.20851">
        <ele>188.07507324219</ele>
        <time>2015-12-03T13:07:53Z</time>
      </trkpt>
      <trkpt lat="48.0937" lon="-4.20859">
        <ele>187.11376953125</ele>
        <time>2015-12-03T13:07:58Z</time>
      </trkpt>
      <trkpt lat="48.09371" lon="-4.20863">
        <ele>187.11376953125</ele>
        <time>2015-12-03T13:08:00Z</time>
      </trkpt>
      <trkpt lat="48.0937" lon="-4.20866">
        <ele>186.63317871094</ele>
        <time>2015-12-03T13:08:02Z</time>
      </trkpt>
      <trkpt lat="48.09369" lon="-4.20872">
        <ele>186.15246582031</ele>
        <time>2015-12-03T13:08:07Z</time>
      </trkpt>
      <trkpt lat="48.09369" lon="-4.20883">
        <ele>186.15246582031</ele>
        <time>2015-12-03T13:08:14Z</time>
      </trkpt>
      <trkpt lat="48.09367" lon="-4.20891">
        <ele>184.71057128906</ele>
        <time>2015-12-03T13:08:19Z</time>
      </trkpt>
      <trkpt lat="48.09367" lon="-4.20898">
        <ele>182.30712890625</ele>
        <time>2015-12-03T13:08:24Z</time>
      </trkpt>
      <trkpt lat="48.09366" lon="-4.20906">
        <ele>180.38452148438</ele>
        <time>2015-12-03T13:08:30Z</time>
      </trkpt>
      <trkpt lat="48.09364" lon="-4.20914">
        <ele>179.42321777344</ele>
        <time>2015-12-03T13:08:33Z</time>
      </trkpt>
      <trkpt lat="48.09365" lon="-4.20924">
        <ele>177.98120117188</ele>
        <time>2015-12-03T13:08:37Z</time>
      </trkpt>
      <trkpt lat="48.09364" lon="-4.20933">
        <ele>176.53930664062</ele>
        <time>2015-12-03T13:08:43Z</time>
      </trkpt>
      <trkpt lat="48.09366" lon="-4.20944">
        <ele>175.57788085938</ele>
        <time>2015-12-03T13:08:49Z</time>
      </trkpt>
      <trkpt lat="48.09371" lon="-4.20953">
        <ele>176.05859375</ele>
        <time>2015-12-03T13:08:55Z</time>
      </trkpt>
      <trkpt lat="48.09372" lon="-4.20959">
        <ele>175.57788085938</ele>
        <time>2015-12-03T13:09:00Z</time>
      </trkpt>
      <trkpt lat="48.09372" lon="-4.20963">
        <ele>175.09729003906</ele>
        <time>2015-12-03T13:09:02Z</time>
      </trkpt>
      <trkpt lat="48.09367" lon="-4.20967">
        <ele>173.6552734375</ele>
        <time>2015-12-03T13:09:07Z</time>
      </trkpt>
      <trkpt lat="48.09362" lon="-4.2097">
        <ele>172.21325683594</ele>
        <time>2015-12-03T13:09:11Z</time>
      </trkpt>
      <trkpt lat="48.09354" lon="-4.20975">
        <ele>171.73266601562</ele>
        <time>2015-12-03T13:09:18Z</time>
      </trkpt>
      <trkpt lat="48.09345" lon="-4.20979">
        <ele>174.61657714844</ele>
        <time>2015-12-03T13:09:25Z</time>
      </trkpt>
      <trkpt lat="48.09343" lon="-4.20981">
        <ele>175.57788085938</ele>
        <time>2015-12-03T13:09:27Z</time>
      </trkpt>
      <trkpt lat="48.09337" lon="-4.20984">
        <ele>176.05859375</ele>
        <time>2015-12-03T13:09:31Z</time>
      </trkpt>
      <trkpt lat="48.09333" lon="-4.20988">
        <ele>177.50061035156</ele>
        <time>2015-12-03T13:09:35Z</time>
      </trkpt>
      <trkpt lat="48.0933" lon="-4.20997">
        <ele>177.02001953125</ele>
        <time>2015-12-03T13:09:41Z</time>
      </trkpt>
      <trkpt lat="48.0933" lon="-4.21001">
        <ele>176.05859375</ele>
        <time>2015-12-03T13:09:43Z</time>
      </trkpt>
      <trkpt lat="48.09332" lon="-4.21009">
        <ele>175.09729003906</ele>
        <time>2015-12-03T13:09:48Z</time>
      </trkpt>
      <trkpt lat="48.09331" lon="-4.2102">
        <ele>175.09729003906</ele>
        <time>2015-12-03T13:09:54Z</time>
      </trkpt>
      <trkpt lat="48.09328" lon="-4.21029">
        <ele>177.02001953125</ele>
        <time>2015-12-03T13:09:59Z</time>
      </trkpt>
      <trkpt lat="48.09327" lon="-4.21037">
        <ele>176.53930664062</ele>
        <time>2015-12-03T13:10:03Z</time>
      </trkpt>
      <trkpt lat="48.09328" lon="-4.21046">
        <ele>176.53930664062</ele>
        <time>2015-12-03T13:10:06Z</time>
      </trkpt>
      <trkpt lat="48.09326" lon="-4.21049">
        <ele>174.61657714844</ele>
        <time>2015-12-03T13:10:09Z</time>
      </trkpt>
      <trkpt lat="48.09323" lon="-4.21059">
        <ele>169.32946777344</ele>
        <time>2015-12-03T13:10:16Z</time>
      </trkpt>
      <trkpt lat="48.09322" lon="-4.21065">
        <ele>164.52270507812</ele>
        <time>2015-12-03T13:10:22Z</time>
      </trkpt>
      <trkpt lat="48.09319" lon="-4.21072">
        <ele>163.08081054688</ele>
        <time>2015-12-03T13:10:27Z</time>
      </trkpt>
      <trkpt lat="48.0932" lon="-4.21079">
        <ele>163.5615234375</ele>
        <time>2015-12-03T13:10:32Z</time>
      </trkpt>
      <trkpt lat="48.09321" lon="-4.21086">
        <ele>163.5615234375</ele>
        <time>2015-12-03T13:10:35Z</time>
      </trkpt>
      <trkpt lat="48.09319" lon="-4.21097">
        <ele>162.60009765625</ele>
        <time>2015-12-03T13:10:41Z</time>
      </trkpt>
      <trkpt lat="48.09319" lon="-4.21103">
        <ele>161.158203125</ele>
        <time>2015-12-03T13:10:44Z</time>
      </trkpt>
      <trkpt lat="48.09319" lon="-4.21106">
        <ele>160.19689941406</ele>
        <time>2015-12-03T13:10:46Z</time>
      </trkpt>
      <trkpt lat="48.09317" lon="-4.21117">
        <ele>158.75476074219</ele>
        <time>2015-12-03T13:10:53Z</time>
      </trkpt>
      <trkpt lat="48.09315" lon="-4.21124">
        <ele>157.79357910156</ele>
        <time>2015-12-03T13:10:58Z</time>
      </trkpt>
      <trkpt lat="48.09314" lon="-4.2113">
        <ele>156.83215332031</ele>
        <time>2015-12-03T13:11:01Z</time>
      </trkpt>
      <trkpt lat="48.09312" lon="-4.2114">
        <ele>154.90954589844</ele>
        <time>2015-12-03T13:11:07Z</time>
      </trkpt>
      <trkpt lat="48.09311" lon="-4.21147">
        <ele>155.39025878906</ele>
        <time>2015-12-03T13:11:11Z</time>
      </trkpt>
      <trkpt lat="48.0931" lon="-4.21155">
        <ele>156.3515625</ele>
        <time>2015-12-03T13:11:15Z</time>
      </trkpt>
      <trkpt lat="48.09307" lon="-4.21166">
        <ele>157.79357910156</ele>
        <time>2015-12-03T13:11:20Z</time>
      </trkpt>
      <trkpt lat="48.09304" lon="-4.21179">
        <ele>159.23547363281</ele>
        <time>2015-12-03T13:11:27Z</time>
      </trkpt>
      <trkpt lat="48.09303" lon="-4.21188">
        <ele>159.23547363281</ele>
        <time>2015-12-03T13:11:31Z</time>
      </trkpt>
      <trkpt lat="48.09302" lon="-4.2119">
        <ele>159.71618652344</ele>
        <time>2015-12-03T13:11:32Z</time>
      </trkpt>
      <trkpt lat="48.09309" lon="-4.21198">
        <ele>160.67749023438</ele>
        <time>2015-12-03T13:11:39Z</time>
      </trkpt>
      <trkpt lat="48.09312" lon="-4.21201">
        <ele>161.158203125</ele>
        <time>2015-12-03T13:11:43Z</time>
      </trkpt>
      <trkpt lat="48.09319" lon="-4.21209">
        <ele>160.67749023438</ele>
        <time>2015-12-03T13:11:50Z</time>
      </trkpt>
      <trkpt lat="48.09326" lon="-4.21214">
        <ele>159.71618652344</ele>
        <time>2015-12-03T13:11:57Z</time>
      </trkpt>
      <trkpt lat="48.09327" lon="-4.21215">
        <ele>159.71618652344</ele>
        <time>2015-12-03T13:11:58Z</time>
      </trkpt>
      <trkpt lat="48.09333" lon="-4.21221">
        <ele>160.67749023438</ele>
        <time>2015-12-03T13:12:04Z</time>
      </trkpt>
      <trkpt lat="48.09336" lon="-4.21226">
        <ele>160.19689941406</ele>
        <time>2015-12-03T13:12:09Z</time>
      </trkpt>
      <trkpt lat="48.09342" lon="-4.21234">
        <ele>160.19689941406</ele>
        <time>2015-12-03T13:12:16Z</time>
      </trkpt>
      <trkpt lat="48.09343" lon="-4.21236">
        <ele>160.19689941406</ele>
        <time>2015-12-03T13:12:17Z</time>
      </trkpt>
      <trkpt lat="48.09352" lon="-4.21243">
        <ele>161.158203125</ele>
        <time>2015-12-03T13:12:25Z</time>
      </trkpt>
      <trkpt lat="48.09357" lon="-4.2125">
        <ele>161.63891601562</ele>
        <time>2015-12-03T13:12:30Z</time>
      </trkpt>
      <trkpt lat="48.09363" lon="-4.21256">
        <ele>162.60009765625</ele>
        <time>2015-12-03T13:12:36Z</time>
      </trkpt>
      <trkpt lat="48.09369" lon="-4.21262">
        <ele>162.60009765625</ele>
        <time>2015-12-03T13:12:41Z</time>
      </trkpt>
      <trkpt lat="48.09374" lon="-4.21269">
        <ele>163.5615234375</ele>
        <time>2015-12-03T13:12:47Z</time>
      </trkpt>
      <trkpt lat="48.0938" lon="-4.21277">
        <ele>164.52270507812</ele>
        <time>2015-12-03T13:12:54Z</time>
      </trkpt>
      <trkpt lat="48.09386" lon="-4.21283">
        <ele>164.04211425781</ele>
        <time>2015-12-03T13:13:00Z</time>
      </trkpt>
      <trkpt lat="48.09387" lon="-4.21288">
        <ele>163.5615234375</ele>
        <time>2015-12-03T13:13:03Z</time>
      </trkpt>
      <trkpt lat="48.09387" lon="-4.21298">
        <ele>162.11950683594</ele>
        <time>2015-12-03T13:13:08Z</time>
      </trkpt>
      <trkpt lat="48.09383" lon="-4.21306">
        <ele>161.63891601562</ele>
        <time>2015-12-03T13:13:14Z</time>
      </trkpt>
      <trkpt lat="48.09377" lon="-4.21308">
        <ele>161.63891601562</ele>
        <time>2015-12-03T13:13:19Z</time>
      </trkpt>
      <trkpt lat="48.09371" lon="-4.21308">
        <ele>161.63891601562</ele>
        <time>2015-12-03T13:13:24Z</time>
      </trkpt>
      <trkpt lat="48.09368" lon="-4.21308">
        <ele>161.63891601562</ele>
        <time>2015-12-03T13:13:27Z</time>
      </trkpt>
      <trkpt lat="48.09364" lon="-4.21307">
        <ele>161.63891601562</ele>
        <time>2015-12-03T13:13:30Z</time>
      </trkpt>
      <trkpt lat="48.09356" lon="-4.21308">
        <ele>160.67749023438</ele>
        <time>2015-12-03T13:13:37Z</time>
      </trkpt>
      <trkpt lat="48.09353" lon="-4.21308">
        <ele>159.71618652344</ele>
        <time>2015-12-03T13:13:39Z</time>
      </trkpt>
      <trkpt lat="48.09347" lon="-4.2131">
        <ele>158.75476074219</ele>
        <time>2015-12-03T13:13:45Z</time>
      </trkpt>
      <trkpt lat="48.09343" lon="-4.2131">
        <ele>157.31286621094</ele>
        <time>2015-12-03T13:13:48Z</time>
      </trkpt>
      <trkpt lat="48.09334" lon="-4.21314">
        <ele>156.83215332031</ele>
        <time>2015-12-03T13:13:55Z</time>
      </trkpt>
      <trkpt lat="48.09331" lon="-4.21315">
        <ele>155.87097167969</ele>
        <time>2015-12-03T13:13:58Z</time>
      </trkpt>
      <trkpt lat="48.09329" lon="-4.21316">
        <ele>155.39025878906</ele>
        <time>2015-12-03T13:14:00Z</time>
      </trkpt>
      <trkpt lat="48.09321" lon="-4.21321">
        <ele>154.42895507812</ele>
        <time>2015-12-03T13:14:07Z</time>
      </trkpt>
      <trkpt lat="48.09319" lon="-4.21322">
        <ele>154.90954589844</ele>
        <time>2015-12-03T13:14:08Z</time>
      </trkpt>
      <trkpt lat="48.09313" lon="-4.21326">
        <ele>155.39025878906</ele>
        <time>2015-12-03T13:14:14Z</time>
      </trkpt>
      <trkpt lat="48.09311" lon="-4.21327">
        <ele>156.83215332031</ele>
        <time>2015-12-03T13:14:16Z</time>
      </trkpt>
      <trkpt lat="48.09306" lon="-4.21334">
        <ele>156.83215332031</ele>
        <time>2015-12-03T13:14:20Z</time>
      </trkpt>
      <trkpt lat="48.09305" lon="-4.21338">
        <ele>158.27416992188</ele>
        <time>2015-12-03T13:14:22Z</time>
      </trkpt>
      <trkpt lat="48.09305" lon="-4.2135">
        <ele>159.71618652344</ele>
        <time>2015-12-03T13:14:27Z</time>
      </trkpt>
      <trkpt lat="48.09305" lon="-4.2136">
        <ele>159.71618652344</ele>
        <time>2015-12-03T13:14:33Z</time>
      </trkpt>
      <trkpt lat="48.09307" lon="-4.21371">
        <ele>156.3515625</ele>
        <time>2015-12-03T13:14:40Z</time>
      </trkpt>
      <trkpt lat="48.09311" lon="-4.21383">
        <ele>153.46765136719</ele>
        <time>2015-12-03T13:14:47Z</time>
      </trkpt>
      <trkpt lat="48.09312" lon="-4.21385">
        <ele>151.544921875</ele>
        <time>2015-12-03T13:14:49Z</time>
      </trkpt>
      <trkpt lat="48.09313" lon="-4.21391">
        <ele>149.1416015625</ele>
        <time>2015-12-03T13:14:54Z</time>
      </trkpt>
      <trkpt lat="48.09313" lon="-4.21401">
        <ele>145.77709960938</ele>
        <time>2015-12-03T13:15:00Z</time>
      </trkpt>
      <trkpt lat="48.09312" lon="-4.21404">
        <ele>144.33520507812</ele>
        <time>2015-12-03T13:15:02Z</time>
      </trkpt>
      <trkpt lat="48.09312" lon="-4.21412">
        <ele>141.45104980469</ele>
        <time>2015-12-03T13:15:07Z</time>
      </trkpt>
      <trkpt lat="48.09316" lon="-4.21424">
        <ele>140.97045898438</ele>
        <time>2015-12-03T13:15:12Z</time>
      </trkpt>
      <trkpt lat="48.09317" lon="-4.21435">
        <ele>139.52844238281</ele>
        <time>2015-12-03T13:15:17Z</time>
      </trkpt>
      <trkpt lat="48.09317" lon="-4.21439">
        <ele>139.0478515625</ele>
        <time>2015-12-03T13:15:19Z</time>
      </trkpt>
      <trkpt lat="48.09318" lon="-4.2145">
        <ele>140.00915527344</ele>
        <time>2015-12-03T13:15:25Z</time>
      </trkpt>
      <trkpt lat="48.09319" lon="-4.21462">
        <ele>145.29638671875</ele>
        <time>2015-12-03T13:15:32Z</time>
      </trkpt>
      <trkpt lat="48.09319" lon="-4.21463">
        <ele>145.77709960938</ele>
        <time>2015-12-03T13:15:33Z</time>
      </trkpt>
      <trkpt lat="48.0932" lon="-4.21475">
        <ele>147.21899414062</ele>
        <time>2015-12-03T13:15:39Z</time>
      </trkpt>
      <trkpt lat="48.0932" lon="-4.21486">
        <ele>147.69970703125</ele>
        <time>2015-12-03T13:15:44Z</time>
      </trkpt>
      <trkpt lat="48.09319" lon="-4.21495">
        <ele>148.66101074219</ele>
        <time>2015-12-03T13:15:48Z</time>
      </trkpt>
      <trkpt lat="48.09318" lon="-4.21506">
        <ele>148.66101074219</ele>
        <time>2015-12-03T13:15:54Z</time>
      </trkpt>
      <trkpt lat="48.09318" lon="-4.21521">
        <ele>150.58361816406</ele>
        <time>2015-12-03T13:16:01Z</time>
      </trkpt>
      <trkpt lat="48.09318" lon="-4.21529">
        <ele>152.50634765625</ele>
        <time>2015-12-03T13:16:04Z</time>
      </trkpt>
      <trkpt lat="48.09319" lon="-4.21533">
        <ele>152.98693847656</ele>
        <time>2015-12-03T13:16:06Z</time>
      </trkpt>
      <trkpt lat="48.09318" lon="-4.21539">
        <ele>153.46765136719</ele>
        <time>2015-12-03T13:16:10Z</time>
      </trkpt>
      <trkpt lat="48.09314" lon="-4.2155">
        <ele>152.98693847656</ele>
        <time>2015-12-03T13:16:16Z</time>
      </trkpt>
      <trkpt lat="48.09313" lon="-4.21559">
        <ele>153.94836425781</ele>
        <time>2015-12-03T13:16:21Z</time>
      </trkpt>
      <trkpt lat="48.09312" lon="-4.21562">
        <ele>153.94836425781</ele>
        <time>2015-12-03T13:16:23Z</time>
      </trkpt>
      <trkpt lat="48.09309" lon="-4.21568">
        <ele>154.90954589844</ele>
        <time>2015-12-03T13:16:27Z</time>
      </trkpt>
      <trkpt lat="48.09305" lon="-4.21579">
        <ele>154.90954589844</ele>
        <time>2015-12-03T13:16:33Z</time>
      </trkpt>
      <trkpt lat="48.09304" lon="-4.21591">
        <ele>155.87097167969</ele>
        <time>2015-12-03T13:16:39Z</time>
      </trkpt>
      <trkpt lat="48.09304" lon="-4.21598">
        <ele>155.39025878906</ele>
        <time>2015-12-03T13:16:43Z</time>
      </trkpt>
      <trkpt lat="48.09303" lon="-4.21603">
        <ele>154.42895507812</ele>
        <time>2015-12-03T13:16:46Z</time>
      </trkpt>
      <trkpt lat="48.09298" lon="-4.21613">
        <ele>154.42895507812</ele>
        <time>2015-12-03T13:16:52Z</time>
      </trkpt>
      <trkpt lat="48.09296" lon="-4.2162">
        <ele>151.544921875</ele>
        <time>2015-12-03T13:16:57Z</time>
      </trkpt>
      <trkpt lat="48.09294" lon="-4.21632">
        <ele>149.62231445312</ele>
        <time>2015-12-03T13:17:04Z</time>
      </trkpt>
      <trkpt lat="48.09295" lon="-4.21635">
        <ele>149.1416015625</ele>
        <time>2015-12-03T13:17:05Z</time>
      </trkpt>
      <trkpt lat="48.09296" lon="-4.2164">
        <ele>148.66101074219</ele>
        <time>2015-12-03T13:17:07Z</time>
      </trkpt>
      <trkpt lat="48.09295" lon="-4.21657">
        <ele>150.10302734375</ele>
        <time>2015-12-03T13:17:15Z</time>
      </trkpt>
      <trkpt lat="48.09294" lon="-4.2166">
        <ele>149.62231445312</ele>
        <time>2015-12-03T13:17:17Z</time>
      </trkpt>
      <trkpt lat="48.09296" lon="-4.21676">
        <ele>150.10302734375</ele>
        <time>2015-12-03T13:17:25Z</time>
      </trkpt>
      <trkpt lat="48.09297" lon="-4.21682">
        <ele>149.62231445312</ele>
        <time>2015-12-03T13:17:28Z</time>
      </trkpt>
      <trkpt lat="48.093" lon="-4.21696">
        <ele>149.1416015625</ele>
        <time>2015-12-03T13:17:36Z</time>
      </trkpt>
      <trkpt lat="48.09301" lon="-4.21699">
        <ele>149.1416015625</ele>
        <time>2015-12-03T13:17:38Z</time>
      </trkpt>
      <trkpt lat="48.09302" lon="-4.21704">
        <ele>150.58361816406</ele>
        <time>2015-12-03T13:17:41Z</time>
      </trkpt>
      <trkpt lat="48.09305" lon="-4.21717">
        <ele>148.66101074219</ele>
        <time>2015-12-03T13:17:48Z</time>
      </trkpt>
      <trkpt lat="48.09307" lon="-4.21729">
        <ele>144.81579589844</ele>
        <time>2015-12-03T13:17:55Z</time>
      </trkpt>
      <trkpt lat="48.0931" lon="-4.21739">
        <ele>141.93176269531</ele>
        <time>2015-12-03T13:18:01Z</time>
      </trkpt>
      <trkpt lat="48.09313" lon="-4.21752">
        <ele>142.41247558594</ele>
        <time>2015-12-03T13:18:08Z</time>
      </trkpt>
      <trkpt lat="48.09315" lon="-4.21763">
        <ele>143.85437011719</ele>
        <time>2015-12-03T13:18:14Z</time>
      </trkpt>
      <trkpt lat="48.09317" lon="-4.21775">
        <ele>144.81579589844</ele>
        <time>2015-12-03T13:18:19Z</time>
      </trkpt>
      <trkpt lat="48.09321" lon="-4.21787">
        <ele>143.37365722656</ele>
        <time>2015-12-03T13:18:25Z</time>
      </trkpt>
      <trkpt lat="48.09322" lon="-4.21794">
        <ele>145.29638671875</ele>
        <time>2015-12-03T13:18:29Z</time>
      </trkpt>
      <trkpt lat="48.09325" lon="-4.21809">
        <ele>149.1416015625</ele>
        <time>2015-12-03T13:18:37Z</time>
      </trkpt>
      <trkpt lat="48.09326" lon="-4.21815">
        <ele>149.1416015625</ele>
        <time>2015-12-03T13:18:40Z</time>
      </trkpt>
      <trkpt lat="48.09327" lon="-4.21819">
        <ele>149.62231445312</ele>
        <time>2015-12-03T13:18:42Z</time>
      </trkpt>
      <trkpt lat="48.09328" lon="-4.21833">
        <ele>153.94836425781</ele>
        <time>2015-12-03T13:18:48Z</time>
      </trkpt>
      <trkpt lat="48.09329" lon="-4.21839">
        <ele>154.90954589844</ele>
        <time>2015-12-03T13:18:51Z</time>
      </trkpt>
      <trkpt lat="48.0933" lon="-4.21847">
        <ele>154.90954589844</ele>
        <time>2015-12-03T13:18:55Z</time>
      </trkpt>
      <trkpt lat="48.09332" lon="-4.21857">
        <ele>154.42895507812</ele>
        <time>2015-12-03T13:19:00Z</time>
      </trkpt>
      <trkpt lat="48.09334" lon="-4.21873">
        <ele>152.98693847656</ele>
        <time>2015-12-03T13:19:07Z</time>
      </trkpt>
      <trkpt lat="48.09337" lon="-4.21883">
        <ele>152.50634765625</ele>
        <time>2015-12-03T13:19:12Z</time>
      </trkpt>
      <trkpt lat="48.09338" lon="-4.21892">
        <ele>152.02575683594</ele>
        <time>2015-12-03T13:19:17Z</time>
      </trkpt>
      <trkpt lat="48.09341" lon="-4.21901">
        <ele>150.58361816406</ele>
        <time>2015-12-03T13:19:22Z</time>
      </trkpt>
      <trkpt lat="48.09345" lon="-4.21913">
        <ele>149.62231445312</ele>
        <time>2015-12-03T13:19:28Z</time>
      </trkpt>
      <trkpt lat="48.09346" lon="-4.21914">
        <ele>149.62231445312</ele>
        <time>2015-12-03T13:19:29Z</time>
      </trkpt>
      <trkpt lat="48.09346" lon="-4.21918">
        <ele>149.62231445312</ele>
        <time>2015-12-03T13:19:31Z</time>
      </trkpt>
      <trkpt lat="48.09347" lon="-4.21928">
        <ele>150.10302734375</ele>
        <time>2015-12-03T13:19:36Z</time>
      </trkpt>
      <trkpt lat="48.0935" lon="-4.21945">
        <ele>151.06420898438</ele>
        <time>2015-12-03T13:19:45Z</time>
      </trkpt>
      <trkpt lat="48.0935" lon="-4.21955">
        <ele>152.02575683594</ele>
        <time>2015-12-03T13:19:51Z</time>
      </trkpt>
      <trkpt lat="48.09347" lon="-4.21966">
        <ele>153.46765136719</ele>
        <time>2015-12-03T13:19:57Z</time>
      </trkpt>
      <trkpt lat="48.09344" lon="-4.21972">
        <ele>154.90954589844</ele>
        <time>2015-12-03T13:20:00Z</time>
      </trkpt>
      <trkpt lat="48.09339" lon="-4.21983">
        <ele>155.87097167969</ele>
        <time>2015-12-03T13:20:06Z</time>
      </trkpt>
      <trkpt lat="48.09334" lon="-4.21991">
        <ele>154.90954589844</ele>
        <time>2015-12-03T13:20:11Z</time>
      </trkpt>
      <trkpt lat="48.09331" lon="-4.21995">
        <ele>154.42895507812</ele>
        <time>2015-12-03T13:20:14Z</time>
      </trkpt>
      <trkpt lat="48.09327" lon="-4.22002">
        <ele>153.46765136719</ele>
        <time>2015-12-03T13:20:18Z</time>
      </trkpt>
      <trkpt lat="48.09321" lon="-4.22013">
        <ele>154.90954589844</ele>
        <time>2015-12-03T13:20:25Z</time>
      </trkpt>
      <trkpt lat="48.09319" lon="-4.22015">
        <ele>155.39025878906</ele>
        <time>2015-12-03T13:20:26Z</time>
      </trkpt>
      <trkpt lat="48.09317" lon="-4.22022">
        <ele>155.39025878906</ele>
        <time>2015-12-03T13:20:30Z</time>
      </trkpt>
      <trkpt lat="48.09312" lon="-4.2203">
        <ele>155.87097167969</ele>
        <time>2015-12-03T13:20:35Z</time>
      </trkpt>
      <trkpt lat="48.09311" lon="-4.22036">
        <ele>155.39025878906</ele>
        <time>2015-12-03T13:20:38Z</time>
      </trkpt>
      <trkpt lat="48.09306" lon="-4.22042">
        <ele>155.39025878906</ele>
        <time>2015-12-03T13:20:44Z</time>
      </trkpt>
      <trkpt lat="48.093" lon="-4.22051">
        <ele>152.98693847656</ele>
        <time>2015-12-03T13:20:51Z</time>
      </trkpt>
      <trkpt lat="48.09299" lon="-4.22052">
        <ele>153.46765136719</ele>
        <time>2015-12-03T13:20:52Z</time>
      </trkpt>
      <trkpt lat="48.09295" lon="-4.22058">
        <ele>151.06420898438</ele>
        <time>2015-12-03T13:20:57Z</time>
      </trkpt>
      <trkpt lat="48.09291" lon="-4.22063">
        <ele>149.62231445312</ele>
        <time>2015-12-03T13:21:01Z</time>
      </trkpt>
      <trkpt lat="48.09286" lon="-4.22073">
        <ele>145.29638671875</ele>
        <time>2015-12-03T13:21:07Z</time>
      </trkpt>
      <trkpt lat="48.0928" lon="-4.22081">
        <ele>140.97045898438</ele>
        <time>2015-12-03T13:21:12Z</time>
      </trkpt>
      <trkpt lat="48.09279" lon="-4.22083">
        <ele>139.52844238281</ele>
        <time>2015-12-03T13:21:13Z</time>
      </trkpt>
      <trkpt lat="48.09274" lon="-4.2209">
        <ele>138.56726074219</ele>
        <time>2015-12-03T13:21:18Z</time>
      </trkpt>
      <trkpt lat="48.0927" lon="-4.22098">
        <ele>136.64465332031</ele>
        <time>2015-12-03T13:21:23Z</time>
      </trkpt>
      <trkpt lat="48.09262" lon="-4.22105">
        <ele>136.64465332031</ele>
        <time>2015-12-03T13:21:29Z</time>
      </trkpt>
      <trkpt lat="48.09259" lon="-4.22112">
        <ele>135.68310546875</ele>
        <time>2015-12-03T13:21:33Z</time>
      </trkpt>
      <trkpt lat="48.09257" lon="-4.22118">
        <ele>135.20251464844</ele>
        <time>2015-12-03T13:21:36Z</time>
      </trkpt>
      <trkpt lat="48.09253" lon="-4.22126">
        <ele>137.12524414062</ele>
        <time>2015-12-03T13:21:42Z</time>
      </trkpt>
      <trkpt lat="48.09249" lon="-4.22133">
        <ele>139.0478515625</ele>
        <time>2015-12-03T13:21:47Z</time>
      </trkpt>
      <trkpt lat="48.09247" lon="-4.22138">
        <ele>140.48986816406</ele>
        <time>2015-12-03T13:21:50Z</time>
      </trkpt>
      <trkpt lat="48.09243" lon="-4.22147">
        <ele>144.81579589844</ele>
        <time>2015-12-03T13:21:55Z</time>
      </trkpt>
      <trkpt lat="48.09241" lon="-4.2215">
        <ele>145.29638671875</ele>
        <time>2015-12-03T13:21:57Z</time>
      </trkpt>
      <trkpt lat="48.09237" lon="-4.22158">
        <ele>145.29638671875</ele>
        <time>2015-12-03T13:22:02Z</time>
      </trkpt>
      <trkpt lat="48.09234" lon="-4.22166">
        <ele>146.73840332031</ele>
        <time>2015-12-03T13:22:07Z</time>
      </trkpt>
      <trkpt lat="48.09232" lon="-4.2217">
        <ele>148.18041992188</ele>
        <time>2015-12-03T13:22:10Z</time>
      </trkpt>
      <trkpt lat="48.09224" lon="-4.2218">
        <ele>146.2578125</ele>
        <time>2015-12-03T13:22:17Z</time>
      </trkpt>
      <trkpt lat="48.09219" lon="-4.22186">
        <ele>146.73840332031</ele>
        <time>2015-12-03T13:22:23Z</time>
      </trkpt>
      <trkpt lat="48.09214" lon="-4.22196">
        <ele>143.85437011719</ele>
        <time>2015-12-03T13:22:28Z</time>
      </trkpt>
      <trkpt lat="48.09206" lon="-4.22205">
        <ele>143.37365722656</ele>
        <time>2015-12-03T13:22:34Z</time>
      </trkpt>
      <trkpt lat="48.09199" lon="-4.22214">
        <ele>146.2578125</ele>
        <time>2015-12-03T13:22:40Z</time>
      </trkpt>
      <trkpt lat="48.09195" lon="-4.22218">
        <ele>146.73840332031</ele>
        <time>2015-12-03T13:22:44Z</time>
      </trkpt>
      <trkpt lat="48.09191" lon="-4.22224">
        <ele>147.21899414062</ele>
        <time>2015-12-03T13:22:48Z</time>
      </trkpt>
      <trkpt lat="48.09186" lon="-4.2223">
        <ele>147.69970703125</ele>
        <time>2015-12-03T13:22:53Z</time>
      </trkpt>
      <trkpt lat="48.09184" lon="-4.22232">
        <ele>148.18041992188</ele>
        <time>2015-12-03T13:22:55Z</time>
      </trkpt>
      <trkpt lat="48.09179" lon="-4.22241">
        <ele>149.1416015625</ele>
        <time>2015-12-03T13:23:01Z</time>
      </trkpt>
      <trkpt lat="48.09175" lon="-4.22247">
        <ele>149.1416015625</ele>
        <time>2015-12-03T13:23:05Z</time>
      </trkpt>
      <trkpt lat="48.09172" lon="-4.22252">
        <ele>151.06420898438</ele>
        <time>2015-12-03T13:23:09Z</time>
      </trkpt>
      <trkpt lat="48.09165" lon="-4.22262">
        <ele>152.50634765625</ele>
        <time>2015-12-03T13:23:16Z</time>
      </trkpt>
      <trkpt lat="48.09158" lon="-4.22266">
        <ele>152.50634765625</ele>
        <time>2015-12-03T13:23:21Z</time>
      </trkpt>
      <trkpt lat="48.09155" lon="-4.22273">
        <ele>151.544921875</ele>
        <time>2015-12-03T13:23:25Z</time>
      </trkpt>
      <trkpt lat="48.09153" lon="-4.22276">
        <ele>151.544921875</ele>
        <time>2015-12-03T13:23:27Z</time>
      </trkpt>
      <trkpt lat="48.09151" lon="-4.22281">
        <ele>151.06420898438</ele>
        <time>2015-12-03T13:23:31Z</time>
      </trkpt>
      <trkpt lat="48.09145" lon="-4.22289">
        <ele>149.62231445312</ele>
        <time>2015-12-03T13:23:38Z</time>
      </trkpt>
      <trkpt lat="48.09138" lon="-4.22298">
        <ele>147.69970703125</ele>
        <time>2015-12-03T13:23:45Z</time>
      </trkpt>
      <trkpt lat="48.09136" lon="-4.223">
        <ele>147.69970703125</ele>
        <time>2015-12-03T13:23:47Z</time>
      </trkpt>
      <trkpt lat="48.09131" lon="-4.22306">
        <ele>147.21899414062</ele>
        <time>2015-12-03T13:23:52Z</time>
      </trkpt>
      <trkpt lat="48.09125" lon="-4.2231">
        <ele>147.21899414062</ele>
        <time>2015-12-03T13:23:56Z</time>
      </trkpt>
      <trkpt lat="48.09122" lon="-4.22318">
        <ele>146.2578125</ele>
        <time>2015-12-03T13:24:00Z</time>
      </trkpt>
      <trkpt lat="48.09116" lon="-4.22322">
        <ele>147.21899414062</ele>
        <time>2015-12-03T13:24:05Z</time>
      </trkpt>
      <trkpt lat="48.0911" lon="-4.22333">
        <ele>144.33520507812</ele>
        <time>2015-12-03T13:24:10Z</time>
      </trkpt>
      <trkpt lat="48.09106" lon="-4.22339">
        <ele>141.93176269531</ele>
        <time>2015-12-03T13:24:14Z</time>
      </trkpt>
      <trkpt lat="48.09105" lon="-4.22338">
        <ele>141.93176269531</ele>
        <time>2015-12-03T13:24:16Z</time>
      </trkpt>
      <trkpt lat="48.09099" lon="-4.22344">
        <ele>143.37365722656</ele>
        <time>2015-12-03T13:24:21Z</time>
      </trkpt>
      <trkpt lat="48.09093" lon="-4.2235">
        <ele>141.93176269531</ele>
        <time>2015-12-03T13:24:27Z</time>
      </trkpt>
      <trkpt lat="48.0909" lon="-4.22354">
        <ele>140.97045898438</ele>
        <time>2015-12-03T13:24:30Z</time>
      </trkpt>
      <trkpt lat="48.09084" lon="-4.22359">
        <ele>140.97045898438</ele>
        <time>2015-12-03T13:24:35Z</time>
      </trkpt>
      <trkpt lat="48.09082" lon="-4.22362">
        <ele>140.97045898438</ele>
        <time>2015-12-03T13:24:37Z</time>
      </trkpt>
      <trkpt lat="48.09076" lon="-4.22367">
        <ele>141.45104980469</ele>
        <time>2015-12-03T13:24:42Z</time>
      </trkpt>
      <trkpt lat="48.09073" lon="-4.22371">
        <ele>141.93176269531</ele>
        <time>2015-12-03T13:24:45Z</time>
      </trkpt>
      <trkpt lat="48.09065" lon="-4.22375">
        <ele>142.89306640625</ele>
        <time>2015-12-03T13:24:50Z</time>
      </trkpt>
      <trkpt lat="48.09062" lon="-4.22382">
        <ele>141.45104980469</ele>
        <time>2015-12-03T13:24:54Z</time>
      </trkpt>
      <trkpt lat="48.09055" lon="-4.22393">
        <ele>141.93176269531</ele>
        <time>2015-12-03T13:25:02Z</time>
      </trkpt>
      <trkpt lat="48.09045" lon="-4.224">
        <ele>140.48986816406</ele>
        <time>2015-12-03T13:25:09Z</time>
      </trkpt>
      <trkpt lat="48.09041" lon="-4.22404">
        <ele>140.00915527344</ele>
        <time>2015-12-03T13:25:12Z</time>
      </trkpt>
      <trkpt lat="48.09037" lon="-4.22412">
        <ele>139.52844238281</ele>
        <time>2015-12-03T13:25:16Z</time>
      </trkpt>
      <trkpt lat="48.09032" lon="-4.22422">
        <ele>139.0478515625</ele>
        <time>2015-12-03T13:25:22Z</time>
      </trkpt>
      <trkpt lat="48.09028" lon="-4.22433">
        <ele>139.0478515625</ele>
        <time>2015-12-03T13:25:29Z</time>
      </trkpt>
      <trkpt lat="48.09022" lon="-4.22432">
        <ele>139.52844238281</ele>
        <time>2015-12-03T13:25:35Z</time>
      </trkpt>
      <trkpt lat="48.09019" lon="-4.22429">
        <ele>140.97045898438</ele>
        <time>2015-12-03T13:25:40Z</time>
      </trkpt>
      <trkpt lat="48.09021" lon="-4.22425">
        <ele>138.56726074219</ele>
        <time>2015-12-03T13:25:44Z</time>
      </trkpt>
      <trkpt lat="48.09026" lon="-4.22418">
        <ele>136.64465332031</ele>
        <time>2015-12-03T13:25:49Z</time>
      </trkpt>
      <trkpt lat="48.09028" lon="-4.22416">
        <ele>136.16394042969</ele>
        <time>2015-12-03T13:25:51Z</time>
      </trkpt>
      <trkpt lat="48.0903" lon="-4.2241">
        <ele>135.68310546875</ele>
        <time>2015-12-03T13:25:57Z</time>
      </trkpt>
      <trkpt lat="48.09032" lon="-4.22405">
        <ele>135.68310546875</ele>
        <time>2015-12-03T13:26:01Z</time>
      </trkpt>
      <trkpt lat="48.09032" lon="-4.22398">
        <ele>136.64465332031</ele>
        <time>2015-12-03T13:26:05Z</time>
      </trkpt>
      <trkpt lat="48.09034" lon="-4.2239">
        <ele>139.0478515625</ele>
        <time>2015-12-03T13:26:11Z</time>
      </trkpt>
      <trkpt lat="48.09034" lon="-4.22378">
        <ele>143.37365722656</ele>
        <time>2015-12-03T13:26:18Z</time>
      </trkpt>
      <trkpt lat="48.09033" lon="-4.22374">
        <ele>145.29638671875</ele>
        <time>2015-12-03T13:26:20Z</time>
      </trkpt>
      <trkpt lat="48.09032" lon="-4.22366">
        <ele>146.73840332031</ele>
        <time>2015-12-03T13:26:26Z</time>
      </trkpt>
      <trkpt lat="48.09031" lon="-4.22362">
        <ele>147.69970703125</ele>
        <time>2015-12-03T13:26:28Z</time>
      </trkpt>
      <trkpt lat="48.09029" lon="-4.22355">
        <ele>148.66101074219</ele>
        <time>2015-12-03T13:26:33Z</time>
      </trkpt>
      <trkpt lat="48.09027" lon="-4.22345">
        <ele>150.58361816406</ele>
        <time>2015-12-03T13:26:40Z</time>
      </trkpt>
      <trkpt lat="48.09026" lon="-4.22341">
        <ele>150.58361816406</ele>
        <time>2015-12-03T13:26:42Z</time>
      </trkpt>
      <trkpt lat="48.0902" lon="-4.22327">
        <ele>148.18041992188</ele>
        <time>2015-12-03T13:26:48Z</time>
      </trkpt>
      <trkpt lat="48.09018" lon="-4.2232">
        <ele>148.18041992188</ele>
        <time>2015-12-03T13:26:52Z</time>
      </trkpt>
      <trkpt lat="48.09014" lon="-4.22313">
        <ele>148.18041992188</ele>
        <time>2015-12-03T13:26:57Z</time>
      </trkpt>
      <trkpt lat="48.0901" lon="-4.22304">
        <ele>146.73840332031</ele>
        <time>2015-12-03T13:27:03Z</time>
      </trkpt>
      <trkpt lat="48.09005" lon="-4.22293">
        <ele>145.77709960938</ele>
        <time>2015-12-03T13:27:10Z</time>
      </trkpt>
      <trkpt lat="48.09001" lon="-4.22286">
        <ele>143.37365722656</ele>
        <time>2015-12-03T13:27:15Z</time>
      </trkpt>
      <trkpt lat="48.08999" lon="-4.22278">
        <ele>142.89306640625</ele>
        <time>2015-12-03T13:27:20Z</time>
      </trkpt>
      <trkpt lat="48.08993" lon="-4.22266">
        <ele>140.48986816406</ele>
        <time>2015-12-03T13:27:28Z</time>
      </trkpt>
      <trkpt lat="48.08991" lon="-4.2226">
        <ele>139.0478515625</ele>
        <time>2015-12-03T13:27:33Z</time>
      </trkpt>
      <trkpt lat="48.08988" lon="-4.22251">
        <ele>139.0478515625</ele>
        <time>2015-12-03T13:27:38Z</time>
      </trkpt>
      <trkpt lat="48.08985" lon="-4.22245">
        <ele>139.52844238281</ele>
        <time>2015-12-03T13:27:42Z</time>
      </trkpt>
      <trkpt lat="48.08983" lon="-4.22241">
        <ele>140.00915527344</ele>
        <time>2015-12-03T13:27:48Z</time>
      </trkpt>
      <trkpt lat="48.08979" lon="-4.22237">
        <ele>139.52844238281</ele>
        <time>2015-12-03T13:28:01Z</time>
      </trkpt>
      <trkpt lat="48.08976" lon="-4.22229">
        <ele>139.0478515625</ele>
        <time>2015-12-03T13:28:08Z</time>
      </trkpt>
      <trkpt lat="48.08975" lon="-4.22217">
        <ele>140.00915527344</ele>
        <time>2015-12-03T13:28:13Z</time>
      </trkpt>
      <trkpt lat="48.08976" lon="-4.22215">
        <ele>140.48986816406</ele>
        <time>2015-12-03T13:28:15Z</time>
      </trkpt>
      <trkpt lat="48.08973" lon="-4.22202">
        <ele>139.52844238281</ele>
        <time>2015-12-03T13:28:20Z</time>
      </trkpt>
      <trkpt lat="48.08972" lon="-4.22193">
        <ele>137.60583496094</ele>
        <time>2015-12-03T13:28:25Z</time>
      </trkpt>
      <trkpt lat="48.08971" lon="-4.22189">
        <ele>136.16394042969</ele>
        <time>2015-12-03T13:28:28Z</time>
      </trkpt>
      <trkpt lat="48.08969" lon="-4.22186">
        <ele>135.68310546875</ele>
        <time>2015-12-03T13:28:31Z</time>
      </trkpt>
      <trkpt lat="48.08963" lon="-4.22176">
        <ele>133.27990722656</ele>
        <time>2015-12-03T13:28:37Z</time>
      </trkpt>
      <trkpt lat="48.08962" lon="-4.22175">
        <ele>133.27990722656</ele>
        <time>2015-12-03T13:28:38Z</time>
      </trkpt>
      <trkpt lat="48.08959" lon="-4.22172">
        <ele>131.837890625</ele>
        <time>2015-12-03T13:28:41Z</time>
      </trkpt>
      <trkpt lat="48.08955" lon="-4.22171">
        <ele>132.31860351562</ele>
        <time>2015-12-03T13:28:44Z</time>
      </trkpt>
      <trkpt lat="48.08947" lon="-4.22165">
        <ele>129.91528320312</ele>
        <time>2015-12-03T13:28:49Z</time>
      </trkpt>
      <trkpt lat="48.08946" lon="-4.22163">
        <ele>129.91528320312</ele>
        <time>2015-12-03T13:28:50Z</time>
      </trkpt>
      <trkpt lat="48.08943" lon="-4.2216">
        <ele>129.43469238281</ele>
        <time>2015-12-03T13:28:53Z</time>
      </trkpt>
      <trkpt lat="48.08937" lon="-4.22159">
        <ele>127.51196289062</ele>
        <time>2015-12-03T13:28:57Z</time>
      </trkpt>
      <trkpt lat="48.08929" lon="-4.22154">
        <ele>126.55065917969</ele>
        <time>2015-12-03T13:29:04Z</time>
      </trkpt>
      <trkpt lat="48.08926" lon="-4.22151">
        <ele>125.58935546875</ele>
        <time>2015-12-03T13:29:07Z</time>
      </trkpt>
      <trkpt lat="48.08921" lon="-4.2215">
        <ele>125.10876464844</ele>
        <time>2015-12-03T13:29:12Z</time>
      </trkpt>
      <trkpt lat="48.08912" lon="-4.22149">
        <ele>122.70544433594</ele>
        <time>2015-12-03T13:29:19Z</time>
      </trkpt>
      <trkpt lat="48.08911" lon="-4.22149">
        <ele>122.22473144531</ele>
        <time>2015-12-03T13:29:20Z</time>
      </trkpt>
      <trkpt lat="48.08904" lon="-4.22149">
        <ele>122.22473144531</ele>
        <time>2015-12-03T13:29:24Z</time>
      </trkpt>
      <trkpt lat="48.08898" lon="-4.22152">
        <ele>119.82141113281</ele>
        <time>2015-12-03T13:29:29Z</time>
      </trkpt>
      <trkpt lat="48.08885" lon="-4.22155">
        <ele>118.86010742188</ele>
        <time>2015-12-03T13:29:37Z</time>
      </trkpt>
      <trkpt lat="48.0888" lon="-4.22159">
        <ele>115.49560546875</ele>
        <time>2015-12-03T13:29:44Z</time>
      </trkpt>
      <trkpt lat="48.08873" lon="-4.22163">
        <ele>116.9375</ele>
        <time>2015-12-03T13:29:50Z</time>
      </trkpt>
      <trkpt lat="48.08872" lon="-4.22164">
        <ele>116.45678710938</ele>
        <time>2015-12-03T13:29:51Z</time>
      </trkpt>
      <trkpt lat="48.08863" lon="-4.22166">
        <ele>115.97619628906</ele>
        <time>2015-12-03T13:29:57Z</time>
      </trkpt>
      <trkpt lat="48.08861" lon="-4.22168">
        <ele>116.45678710938</ele>
        <time>2015-12-03T13:30:00Z</time>
      </trkpt>
      <trkpt lat="48.08853" lon="-4.22173">
        <ele>114.5341796875</ele>
        <time>2015-12-03T13:30:07Z</time>
      </trkpt>
      <trkpt lat="48.08844" lon="-4.22178">
        <ele>117.41821289062</ele>
        <time>2015-12-03T13:30:15Z</time>
      </trkpt>
      <trkpt lat="48.08841" lon="-4.22179">
        <ele>117.89880371094</ele>
        <time>2015-12-03T13:30:17Z</time>
      </trkpt>
      <trkpt lat="48.08837" lon="-4.2218">
        <ele>117.41821289062</ele>
        <time>2015-12-03T13:30:20Z</time>
      </trkpt>
      <trkpt lat="48.08829" lon="-4.22183">
        <ele>117.41821289062</ele>
        <time>2015-12-03T13:30:27Z</time>
      </trkpt>
      <trkpt lat="48.08822" lon="-4.22184">
        <ele>119.3408203125</ele>
        <time>2015-12-03T13:30:32Z</time>
      </trkpt>
      <trkpt lat="48.08815" lon="-4.22188">
        <ele>117.89880371094</ele>
        <time>2015-12-03T13:30:37Z</time>
      </trkpt>
      <trkpt lat="48.0881" lon="-4.22192">
        <ele>115.01489257812</ele>
        <time>2015-12-03T13:30:43Z</time>
      </trkpt>
      <trkpt lat="48.08809" lon="-4.22192">
        <ele>115.01489257812</ele>
        <time>2015-12-03T13:30:44Z</time>
      </trkpt>
      <trkpt lat="48.08806" lon="-4.22194">
        <ele>115.49560546875</ele>
        <time>2015-12-03T13:30:47Z</time>
      </trkpt>
      <trkpt lat="48.08799" lon="-4.22198">
        <ele>117.41821289062</ele>
        <time>2015-12-03T13:30:54Z</time>
      </trkpt>
      <trkpt lat="48.08793" lon="-4.222">
        <ele>118.37939453125</ele>
        <time>2015-12-03T13:30:59Z</time>
      </trkpt>
      <trkpt lat="48.08788" lon="-4.22203">
        <ele>117.41821289062</ele>
        <time>2015-12-03T13:31:04Z</time>
      </trkpt>
      <trkpt lat="48.0878" lon="-4.22204">
        <ele>118.37939453125</ele>
        <time>2015-12-03T13:31:11Z</time>
      </trkpt>
      <trkpt lat="48.08768" lon="-4.22207">
        <ele>118.86010742188</ele>
        <time>2015-12-03T13:31:19Z</time>
      </trkpt>
      <trkpt lat="48.08764" lon="-4.2221">
        <ele>116.9375</ele>
        <time>2015-12-03T13:31:23Z</time>
      </trkpt>
      <trkpt lat="48.08762" lon="-4.22215">
        <ele>115.49560546875</ele>
        <time>2015-12-03T13:31:28Z</time>
      </trkpt>
      <trkpt lat="48.08758" lon="-4.22217">
        <ele>115.01489257812</ele>
        <time>2015-12-03T13:31:34Z</time>
      </trkpt>
      <trkpt lat="48.08756" lon="-4.22219">
        <ele>116.45678710938</ele>
        <time>2015-12-03T13:31:37Z</time>
      </trkpt>
      <trkpt lat="48.08746" lon="-4.22221">
        <ele>115.49560546875</ele>
        <time>2015-12-03T13:31:43Z</time>
      </trkpt>
      <trkpt lat="48.08741" lon="-4.22225">
        <ele>115.01489257812</ele>
        <time>2015-12-03T13:31:48Z</time>
      </trkpt>
      <trkpt lat="48.08739" lon="-4.22226">
        <ele>114.5341796875</ele>
        <time>2015-12-03T13:31:49Z</time>
      </trkpt>
      <trkpt lat="48.08731" lon="-4.22228">
        <ele>114.05358886719</ele>
        <time>2015-12-03T13:31:56Z</time>
      </trkpt>
      <trkpt lat="48.08727" lon="-4.22232">
        <ele>112.13098144531</ele>
        <time>2015-12-03T13:32:01Z</time>
      </trkpt>
      <trkpt lat="48.0872" lon="-4.22232">
        <ele>114.05358886719</ele>
        <time>2015-12-03T13:32:07Z</time>
      </trkpt>
      <trkpt lat="48.08714" lon="-4.22232">
        <ele>114.5341796875</ele>
        <time>2015-12-03T13:32:11Z</time>
      </trkpt>
      <trkpt lat="48.08709" lon="-4.22235">
        <ele>113.09228515625</ele>
        <time>2015-12-03T13:32:16Z</time>
      </trkpt>
      <trkpt lat="48.087" lon="-4.22237">
        <ele>111.65026855469</ele>
        <time>2015-12-03T13:32:23Z</time>
      </trkpt>
      <trkpt lat="48.08697" lon="-4.22239">
        <ele>111.16955566406</ele>
        <time>2015-12-03T13:32:26Z</time>
      </trkpt>
      <trkpt lat="48.08689" lon="-4.22243">
        <ele>110.20825195312</ele>
        <time>2015-12-03T13:32:32Z</time>
      </trkpt>
      <trkpt lat="48.08682" lon="-4.22245">
        <ele>108.76623535156</ele>
        <time>2015-12-03T13:32:39Z</time>
      </trkpt>
      <trkpt lat="48.0868" lon="-4.22245">
        <ele>108.28564453125</ele>
        <time>2015-12-03T13:32:40Z</time>
      </trkpt>
      <trkpt lat="48.08671" lon="-4.22247">
        <ele>105.88244628906</ele>
        <time>2015-12-03T13:32:47Z</time>
      </trkpt>
      <trkpt lat="48.08666" lon="-4.22249">
        <ele>104.92102050781</ele>
        <time>2015-12-03T13:32:52Z</time>
      </trkpt>
      <trkpt lat="48.08665" lon="-4.22249">
        <ele>104.92102050781</ele>
        <time>2015-12-03T13:32:53Z</time>
      </trkpt>
      <trkpt lat="48.08663" lon="-4.22249">
        <ele>105.88244628906</ele>
        <time>2015-12-03T13:32:55Z</time>
      </trkpt>
      <trkpt lat="48.08656" lon="-4.22248">
        <ele>104.92102050781</ele>
        <time>2015-12-03T13:33:01Z</time>
      </trkpt>
      <trkpt lat="48.08652" lon="-4.22249">
        <ele>103.47900390625</ele>
        <time>2015-12-03T13:33:04Z</time>
      </trkpt>
      <trkpt lat="48.08648" lon="-4.2225">
        <ele>104.4404296875</ele>
        <time>2015-12-03T13:33:07Z</time>
      </trkpt>
      <trkpt lat="48.08642" lon="-4.22249">
        <ele>103.47900390625</ele>
        <time>2015-12-03T13:33:13Z</time>
      </trkpt>
      <trkpt lat="48.08638" lon="-4.22249">
        <ele>102.51770019531</ele>
        <time>2015-12-03T13:33:17Z</time>
      </trkpt>
      <trkpt lat="48.08636" lon="-4.22248">
        <ele>102.037109375</ele>
        <time>2015-12-03T13:33:18Z</time>
      </trkpt>
      <trkpt lat="48.08633" lon="-4.22248">
        <ele>100.59509277344</ele>
        <time>2015-12-03T13:33:21Z</time>
      </trkpt>
      <trkpt lat="48.08629" lon="-4.22249">
        <ele>100.59509277344</ele>
        <time>2015-12-03T13:33:24Z</time>
      </trkpt>
      <trkpt lat="48.08618" lon="-4.22248">
        <ele>100.11450195312</ele>
        <time>2015-12-03T13:33:32Z</time>
      </trkpt>
      <trkpt lat="48.08615" lon="-4.22248">
        <ele>100.59509277344</ele>
        <time>2015-12-03T13:33:34Z</time>
      </trkpt>
      <trkpt lat="48.08609" lon="-4.22245">
        <ele>98.672485351562</ele>
        <time>2015-12-03T13:33:39Z</time>
      </trkpt>
      <trkpt lat="48.08598" lon="-4.22245">
        <ele>97.711181640625</ele>
        <time>2015-12-03T13:33:46Z</time>
      </trkpt>
      <trkpt lat="48.08597" lon="-4.22245">
        <ele>97.23046875</ele>
        <time>2015-12-03T13:33:47Z</time>
      </trkpt>
      <trkpt lat="48.08591" lon="-4.22244">
        <ele>96.269287109375</ele>
        <time>2015-12-03T13:33:51Z</time>
      </trkpt>
      <trkpt lat="48.08585" lon="-4.22243">
        <ele>97.711181640625</ele>
        <time>2015-12-03T13:33:55Z</time>
      </trkpt>
      <trkpt lat="48.08579" lon="-4.22244">
        <ele>98.672485351562</ele>
        <time>2015-12-03T13:34:01Z</time>
      </trkpt>
      <trkpt lat="48.08571" lon="-4.22243">
        <ele>97.711181640625</ele>
        <time>2015-12-03T13:34:07Z</time>
      </trkpt>
      <trkpt lat="48.08564" lon="-4.22243">
        <ele>95.788452148438</ele>
        <time>2015-12-03T13:34:13Z</time>
      </trkpt>
      <trkpt lat="48.08555" lon="-4.22247">
        <ele>95.307739257812</ele>
        <time>2015-12-03T13:34:20Z</time>
      </trkpt>
      <trkpt lat="48.08553" lon="-4.2225">
        <ele>95.307739257812</ele>
        <time>2015-12-03T13:34:22Z</time>
      </trkpt>
      <trkpt lat="48.08551" lon="-4.22251">
        <ele>95.307739257812</ele>
        <time>2015-12-03T13:34:24Z</time>
      </trkpt>
      <trkpt lat="48.08545" lon="-4.2226">
        <ele>96.269287109375</ele>
        <time>2015-12-03T13:34:30Z</time>
      </trkpt>
      <trkpt lat="48.0854" lon="-4.22265">
        <ele>98.19189453125</ele>
        <time>2015-12-03T13:34:34Z</time>
      </trkpt>
      <trkpt lat="48.08535" lon="-4.22271">
        <ele>99.6337890625</ele>
        <time>2015-12-03T13:34:41Z</time>
      </trkpt>
      <trkpt lat="48.08531" lon="-4.22277">
        <ele>96.749877929688</ele>
        <time>2015-12-03T13:34:47Z</time>
      </trkpt>
      <trkpt lat="48.08528" lon="-4.22283">
        <ele>95.307739257812</ele>
        <time>2015-12-03T13:34:52Z</time>
      </trkpt>
      <trkpt lat="48.08526" lon="-4.22285">
        <ele>94.8271484375</ele>
        <time>2015-12-03T13:34:54Z</time>
      </trkpt>
      <trkpt lat="48.08524" lon="-4.2229">
        <ele>93.865844726562</ele>
        <time>2015-12-03T13:34:57Z</time>
      </trkpt>
      <trkpt lat="48.0852" lon="-4.22295">
        <ele>91.943237304688</ele>
        <time>2015-12-03T13:35:01Z</time>
      </trkpt>
      <trkpt lat="48.08517" lon="-4.22295">
        <ele>91.943237304688</ele>
        <time>2015-12-03T13:35:03Z</time>
      </trkpt>
      <trkpt lat="48.08512" lon="-4.223">
        <ele>91.462524414062</ele>
        <time>2015-12-03T13:35:08Z</time>
      </trkpt>
      <trkpt lat="48.08511" lon="-4.22303">
        <ele>90.020629882812</ele>
        <time>2015-12-03T13:35:11Z</time>
      </trkpt>
      <trkpt lat="48.0851" lon="-4.22304">
        <ele>90.501342773438</ele>
        <time>2015-12-03T13:35:13Z</time>
      </trkpt>
      <trkpt lat="48.08503" lon="-4.22307">
        <ele>92.904541015625</ele>
        <time>2015-12-03T13:35:21Z</time>
      </trkpt>
      <trkpt lat="48.08499" lon="-4.22307">
        <ele>94.346557617188</ele>
        <time>2015-12-03T13:35:24Z</time>
      </trkpt>
      <trkpt lat="48.08493" lon="-4.22305">
        <ele>93.865844726562</ele>
        <time>2015-12-03T13:35:29Z</time>
      </trkpt>
      <trkpt lat="48.08487" lon="-4.22301">
        <ele>94.8271484375</ele>
        <time>2015-12-03T13:35:35Z</time>
      </trkpt>
      <trkpt lat="48.08483" lon="-4.223">
        <ele>95.307739257812</ele>
        <time>2015-12-03T13:35:38Z</time>
      </trkpt>
      <trkpt lat="48.08475" lon="-4.22298">
        <ele>98.19189453125</ele>
        <time>2015-12-03T13:35:43Z</time>
      </trkpt>
      <trkpt lat="48.08466" lon="-4.22299">
        <ele>100.59509277344</ele>
        <time>2015-12-03T13:35:49Z</time>
      </trkpt>
      <trkpt lat="48.08465" lon="-4.223">
        <ele>100.11450195312</ele>
        <time>2015-12-03T13:35:50Z</time>
      </trkpt>
      <trkpt lat="48.08459" lon="-4.223">
        <ele>102.51770019531</ele>
        <time>2015-12-03T13:35:54Z</time>
      </trkpt>
      <trkpt lat="48.08453" lon="-4.22303">
        <ele>101.07568359375</ele>
        <time>2015-12-03T13:35:59Z</time>
      </trkpt>
      <trkpt lat="48.08443" lon="-4.22307">
        <ele>101.07568359375</ele>
        <time>2015-12-03T13:36:07Z</time>
      </trkpt>
      <trkpt lat="48.0844" lon="-4.22308">
        <ele>99.153076171875</ele>
        <time>2015-12-03T13:36:10Z</time>
      </trkpt>
      <trkpt lat="48.08432" lon="-4.22307">
        <ele>95.788452148438</ele>
        <time>2015-12-03T13:36:17Z</time>
      </trkpt>
      <trkpt lat="48.08428" lon="-4.22307">
        <ele>95.307739257812</ele>
        <time>2015-12-03T13:36:19Z</time>
      </trkpt>
      <trkpt lat="48.08421" lon="-4.22306">
        <ele>94.346557617188</ele>
        <time>2015-12-03T13:36:26Z</time>
      </trkpt>
      <trkpt lat="48.08419" lon="-4.22306">
        <ele>94.8271484375</ele>
        <time>2015-12-03T13:36:28Z</time>
      </trkpt>
      <trkpt lat="48.08413" lon="-4.22305">
        <ele>93.385131835938</ele>
        <time>2015-12-03T13:36:34Z</time>
      </trkpt>
      <trkpt lat="48.08407" lon="-4.22305">
        <ele>93.385131835938</ele>
        <time>2015-12-03T13:36:38Z</time>
      </trkpt>
      <trkpt lat="48.08405" lon="-4.22304">
        <ele>93.385131835938</ele>
        <time>2015-12-03T13:36:40Z</time>
      </trkpt>
      <trkpt lat="48.084" lon="-4.22307">
        <ele>91.943237304688</ele>
        <time>2015-12-03T13:36:45Z</time>
      </trkpt>
      <trkpt lat="48.08394" lon="-4.22307">
        <ele>92.904541015625</ele>
        <time>2015-12-03T13:36:49Z</time>
      </trkpt>
      <trkpt lat="48.0839" lon="-4.22308">
        <ele>91.462524414062</ele>
        <time>2015-12-03T13:36:54Z</time>
      </trkpt>
      <trkpt lat="48.08383" lon="-4.22309">
        <ele>90.98193359375</ele>
        <time>2015-12-03T13:37:00Z</time>
      </trkpt>
      <trkpt lat="48.08376" lon="-4.2231">
        <ele>91.462524414062</ele>
        <time>2015-12-03T13:37:06Z</time>
      </trkpt>
      <trkpt lat="48.08372" lon="-4.22309">
        <ele>92.423950195312</ele>
        <time>2015-12-03T13:37:10Z</time>
      </trkpt>
      <trkpt lat="48.08368" lon="-4.22311">
        <ele>92.423950195312</ele>
        <time>2015-12-03T13:37:14Z</time>
      </trkpt>
      <trkpt lat="48.08358" lon="-4.2231">
        <ele>91.943237304688</ele>
        <time>2015-12-03T13:37:21Z</time>
      </trkpt>
      <trkpt lat="48.08353" lon="-4.22309">
        <ele>92.423950195312</ele>
        <time>2015-12-03T13:37:26Z</time>
      </trkpt>
      <trkpt lat="48.08347" lon="-4.22309">
        <ele>91.943237304688</ele>
        <time>2015-12-03T13:37:31Z</time>
      </trkpt>
      <trkpt lat="48.08344" lon="-4.2231">
        <ele>90.98193359375</ele>
        <time>2015-12-03T13:37:34Z</time>
      </trkpt>
      <trkpt lat="48.08336" lon="-4.22309">
        <ele>90.501342773438</ele>
        <time>2015-12-03T13:37:41Z</time>
      </trkpt>
      <trkpt lat="48.08327" lon="-4.22309">
        <ele>89.059326171875</ele>
        <time>2015-12-03T13:37:48Z</time>
      </trkpt>
      <trkpt lat="48.08325" lon="-4.22308">
        <ele>88.098022460938</ele>
        <time>2015-12-03T13:37:51Z</time>
      </trkpt>
      <trkpt lat="48.08319" lon="-4.22307">
        <ele>89.059326171875</ele>
        <time>2015-12-03T13:37:57Z</time>
      </trkpt>
      <trkpt lat="48.08315" lon="-4.22306">
        <ele>89.539916992188</ele>
        <time>2015-12-03T13:38:00Z</time>
      </trkpt>
      <trkpt lat="48.08313" lon="-4.22304">
        <ele>90.501342773438</ele>
        <time>2015-12-03T13:38:02Z</time>
      </trkpt>
      <trkpt lat="48.08308" lon="-4.22303">
        <ele>91.462524414062</ele>
        <time>2015-12-03T13:38:06Z</time>
      </trkpt>
      <trkpt lat="48.08303" lon="-4.223">
        <ele>91.943237304688</ele>
        <time>2015-12-03T13:38:10Z</time>
      </trkpt>
      <trkpt lat="48.08298" lon="-4.223">
        <ele>93.385131835938</ele>
        <time>2015-12-03T13:38:15Z</time>
      </trkpt>
      <trkpt lat="48.08292" lon="-4.22301">
        <ele>95.307739257812</ele>
        <time>2015-12-03T13:38:21Z</time>
      </trkpt>
      <trkpt lat="48.08285" lon="-4.22301">
        <ele>93.865844726562</ele>
        <time>2015-12-03T13:38:25Z</time>
      </trkpt>
      <trkpt lat="48.08279" lon="-4.22301">
        <ele>92.904541015625</ele>
        <time>2015-12-03T13:38:30Z</time>
      </trkpt>
      <trkpt lat="48.08273" lon="-4.223">
        <ele>92.904541015625</ele>
        <time>2015-12-03T13:38:35Z</time>
      </trkpt>
      <trkpt lat="48.0827" lon="-4.22301">
        <ele>91.943237304688</ele>
        <time>2015-12-03T13:38:38Z</time>
      </trkpt>
      <trkpt lat="48.08263" lon="-4.22301">
        <ele>90.501342773438</ele>
        <time>2015-12-03T13:38:44Z</time>
      </trkpt>
      <trkpt lat="48.0826" lon="-4.223">
        <ele>90.501342773438</ele>
        <time>2015-12-03T13:38:46Z</time>
      </trkpt>
      <trkpt lat="48.08255" lon="-4.22301">
        <ele>91.462524414062</ele>
        <time>2015-12-03T13:38:50Z</time>
      </trkpt>
      <trkpt lat="48.08248" lon="-4.22306">
        <ele>90.501342773438</ele>
        <time>2015-12-03T13:38:56Z</time>
      </trkpt>
      <trkpt lat="48.08242" lon="-4.22308">
        <ele>89.539916992188</ele>
        <time>2015-12-03T13:39:01Z</time>
      </trkpt>
      <trkpt lat="48.0824" lon="-4.2231">
        <ele>89.539916992188</ele>
        <time>2015-12-03T13:39:03Z</time>
      </trkpt>
      <trkpt lat="48.08234" lon="-4.22314">
        <ele>87.136596679688</ele>
        <time>2015-12-03T13:39:10Z</time>
      </trkpt>
      <trkpt lat="48.08227" lon="-4.22314">
        <ele>88.578735351562</ele>
        <time>2015-12-03T13:39:16Z</time>
      </trkpt>
      <trkpt lat="48.08222" lon="-4.22316">
        <ele>89.539916992188</ele>
        <time>2015-12-03T13:39:20Z</time>
      </trkpt>
      <trkpt lat="48.08213" lon="-4.22316">
        <ele>89.539916992188</ele>
        <time>2015-12-03T13:39:26Z</time>
      </trkpt>
      <trkpt lat="48.08205" lon="-4.22321">
        <ele>87.136596679688</ele>
        <time>2015-12-03T13:39:33Z</time>
      </trkpt>
      <trkpt lat="48.082" lon="-4.22325">
        <ele>85.213989257812</ele>
        <time>2015-12-03T13:39:38Z</time>
      </trkpt>
      <trkpt lat="48.08193" lon="-4.22329">
        <ele>85.694580078125</ele>
        <time>2015-12-03T13:39:44Z</time>
      </trkpt>
      <trkpt lat="48.08189" lon="-4.22328">
        <ele>87.136596679688</ele>
        <time>2015-12-03T13:39:46Z</time>
      </trkpt>
      <trkpt lat="48.08182" lon="-4.2233">
        <ele>90.501342773438</ele>
        <time>2015-12-03T13:39:50Z</time>
      </trkpt>
      <trkpt lat="48.08175" lon="-4.22335">
        <ele>87.6171875</ele>
        <time>2015-12-03T13:39:57Z</time>
      </trkpt>
      <trkpt lat="48.08173" lon="-4.22342">
        <ele>84.7333984375</ele>
        <time>2015-12-03T13:40:01Z</time>
      </trkpt>
      <trkpt lat="48.08167" lon="-4.22346">
        <ele>80.88818359375</ele>
        <time>2015-12-03T13:40:07Z</time>
      </trkpt>
      <trkpt lat="48.08164" lon="-4.22351">
        <ele>78.484741210938</ele>
        <time>2015-12-03T13:40:11Z</time>
      </trkpt>
      <trkpt lat="48.0816" lon="-4.22357">
        <ele>74.639526367188</ele>
        <time>2015-12-03T13:40:16Z</time>
      </trkpt>
      <trkpt lat="48.08156" lon="-4.22359">
        <ele>74.158813476562</ele>
        <time>2015-12-03T13:40:19Z</time>
      </trkpt>
      <trkpt lat="48.08151" lon="-4.2236">
        <ele>74.639526367188</ele>
        <time>2015-12-03T13:40:23Z</time>
      </trkpt>
      <trkpt lat="48.08148" lon="-4.2236">
        <ele>74.639526367188</ele>
        <time>2015-12-03T13:40:25Z</time>
      </trkpt>
      <trkpt lat="48.0814" lon="-4.22358">
        <ele>75.120239257812</ele>
        <time>2015-12-03T13:40:30Z</time>
      </trkpt>
      <trkpt lat="48.08136" lon="-4.22357">
        <ele>74.639526367188</ele>
        <time>2015-12-03T13:40:34Z</time>
      </trkpt>
      <trkpt lat="48.08131" lon="-4.22356">
        <ele>76.081420898438</ele>
        <time>2015-12-03T13:40:39Z</time>
      </trkpt>
      <trkpt lat="48.08125" lon="-4.22356">
        <ele>74.639526367188</ele>
        <time>2015-12-03T13:40:46Z</time>
      </trkpt>
      <trkpt lat="48.08119" lon="-4.22353">
        <ele>75.120239257812</ele>
        <time>2015-12-03T13:40:50Z</time>
      </trkpt>
      <trkpt lat="48.08115" lon="-4.22354">
        <ele>72.236206054688</ele>
        <time>2015-12-03T13:40:55Z</time>
      </trkpt>
      <trkpt lat="48.08107" lon="-4.22354">
        <ele>72.236206054688</ele>
        <time>2015-12-03T13:41:00Z</time>
      </trkpt>
      <trkpt lat="48.08104" lon="-4.22356">
        <ele>71.27490234375</ele>
        <time>2015-12-03T13:41:03Z</time>
      </trkpt>
      <trkpt lat="48.08097" lon="-4.22364">
        <ele>71.27490234375</ele>
        <time>2015-12-03T13:41:10Z</time>
      </trkpt>
      <trkpt lat="48.08091" lon="-4.22371">
        <ele>69.832885742188</ele>
        <time>2015-12-03T13:41:16Z</time>
      </trkpt>
      <trkpt lat="48.08083" lon="-4.22375">
        <ele>70.3134765625</ele>
        <time>2015-12-03T13:41:21Z</time>
      </trkpt>
      <trkpt lat="48.08079" lon="-4.22379">
        <ele>70.3134765625</ele>
        <time>2015-12-03T13:41:24Z</time>
      </trkpt>
      <trkpt lat="48.08073" lon="-4.22385">
        <ele>68.87158203125</ele>
        <time>2015-12-03T13:41:30Z</time>
      </trkpt>
      <trkpt lat="48.08069" lon="-4.2239">
        <ele>68.390869140625</ele>
        <time>2015-12-03T13:41:33Z</time>
      </trkpt>
      <trkpt lat="48.08065" lon="-4.22395">
        <ele>69.352294921875</ele>
        <time>2015-12-03T13:41:37Z</time>
      </trkpt>
      <trkpt lat="48.08058" lon="-4.22401">
        <ele>70.794189453125</ele>
        <time>2015-12-03T13:41:44Z</time>
      </trkpt>
      <trkpt lat="48.08058" lon="-4.224">
        <ele>66.948974609375</ele>
        <time>2015-12-03T13:41:52Z</time>
      </trkpt>
      <trkpt lat="48.08056" lon="-4.22396">
        <ele>63.103637695312</ele>
        <time>2015-12-03T13:41:59Z</time>
      </trkpt>
      <trkpt lat="48.08053" lon="-4.22395">
        <ele>62.622924804688</ele>
        <time>2015-12-03T13:42:04Z</time>
      </trkpt>
      <trkpt lat="48.08048" lon="-4.224">
        <ele>62.142333984375</ele>
        <time>2015-12-03T13:42:12Z</time>
      </trkpt>
      <trkpt lat="48.08045" lon="-4.224">
        <ele>62.142333984375</ele>
        <time>2015-12-03T13:42:16Z</time>
      </trkpt>
      <trkpt lat="48.08037" lon="-4.22394">
        <ele>61.181030273438</ele>
        <time>2015-12-03T13:42:34Z</time>
      </trkpt>
      <trkpt lat="48.08031" lon="-4.22391">
        <ele>61.661743164062</ele>
        <time>2015-12-03T13:42:39Z</time>
      </trkpt>
      <trkpt lat="48.08025" lon="-4.22394">
        <ele>66.948974609375</ele>
        <time>2015-12-03T13:42:45Z</time>
      </trkpt>
      <trkpt lat="48.08024" lon="-4.22393">
        <ele>66.46826171875</ele>
        <time>2015-12-03T13:42:46Z</time>
      </trkpt>
      <trkpt lat="48.08021" lon="-4.22393">
        <ele>65.0263671875</ele>
        <time>2015-12-03T13:42:49Z</time>
      </trkpt>
      <trkpt lat="48.08013" lon="-4.22399">
        <ele>61.661743164062</ele>
        <time>2015-12-03T13:42:56Z</time>
      </trkpt>
      <trkpt lat="48.08011" lon="-4.22405">
        <ele>57.335815429688</ele>
        <time>2015-12-03T13:43:02Z</time>
      </trkpt>
      <trkpt lat="48.08008" lon="-4.22411">
        <ele>57.335815429688</ele>
        <time>2015-12-03T13:43:08Z</time>
      </trkpt>
      <trkpt lat="48.08003" lon="-4.2242">
        <ele>58.777709960938</ele>
        <time>2015-12-03T13:43:17Z</time>
      </trkpt>
      <trkpt lat="48.07999" lon="-4.22416">
        <ele>56.855102539062</ele>
        <time>2015-12-03T13:43:22Z</time>
      </trkpt>
      <trkpt lat="48.07999" lon="-4.22415">
        <ele>56.37451171875</ele>
        <time>2015-12-03T13:43:23Z</time>
      </trkpt>
      <trkpt lat="48.07993" lon="-4.22409">
        <ele>53.97119140625</ele>
        <time>2015-12-03T13:43:29Z</time>
      </trkpt>
      <trkpt lat="48.07987" lon="-4.22402">
        <ele>54.932373046875</ele>
        <time>2015-12-03T13:43:34Z</time>
      </trkpt>
      <trkpt lat="48.07981" lon="-4.22396">
        <ele>56.37451171875</ele>
        <time>2015-12-03T13:43:40Z</time>
      </trkpt>
      <trkpt lat="48.07971" lon="-4.22401">
        <ele>60.700317382812</ele>
        <time>2015-12-03T13:43:47Z</time>
      </trkpt>
      <trkpt lat="48.07969" lon="-4.22409">
        <ele>60.2197265625</ele>
        <time>2015-12-03T13:43:52Z</time>
      </trkpt>
      <trkpt lat="48.07968" lon="-4.22416">
        <ele>57.816528320312</ele>
        <time>2015-12-03T13:43:58Z</time>
      </trkpt>
      <trkpt lat="48.07966" lon="-4.22418">
        <ele>59.258422851562</ele>
        <time>2015-12-03T13:43:59Z</time>
      </trkpt>
      <trkpt lat="48.07959" lon="-4.22429">
        <ele>59.739135742188</ele>
        <time>2015-12-03T13:44:06Z</time>
      </trkpt>
      <trkpt lat="48.07955" lon="-4.22433">
        <ele>61.661743164062</ele>
        <time>2015-12-03T13:44:10Z</time>
      </trkpt>
      <trkpt lat="48.07951" lon="-4.22439">
        <ele>62.142333984375</ele>
        <time>2015-12-03T13:44:16Z</time>
      </trkpt>
      <trkpt lat="48.07946" lon="-4.22445">
        <ele>63.103637695312</ele>
        <time>2015-12-03T13:44:22Z</time>
      </trkpt>
      <trkpt lat="48.0794" lon="-4.22454">
        <ele>63.103637695312</ele>
        <time>2015-12-03T13:44:29Z</time>
      </trkpt>
      <trkpt lat="48.07936" lon="-4.22463">
        <ele>65.507080078125</ele>
        <time>2015-12-03T13:44:34Z</time>
      </trkpt>
      <trkpt lat="48.07934" lon="-4.22467">
        <ele>64.065063476562</ele>
        <time>2015-12-03T13:44:39Z</time>
      </trkpt>
      <trkpt lat="48.07931" lon="-4.22471">
        <ele>64.065063476562</ele>
        <time>2015-12-03T13:44:43Z</time>
      </trkpt>
      <trkpt lat="48.07928" lon="-4.22478">
        <ele>64.545654296875</ele>
        <time>2015-12-03T13:44:47Z</time>
      </trkpt>
      <trkpt lat="48.07926" lon="-4.22483">
        <ele>65.507080078125</ele>
        <time>2015-12-03T13:44:51Z</time>
      </trkpt>
      <trkpt lat="48.07922" lon="-4.2249">
        <ele>66.948974609375</ele>
        <time>2015-12-03T13:44:56Z</time>
      </trkpt>
      <trkpt lat="48.07907" lon="-4.22484">
        <ele>71.27490234375</ele>
        <time>2015-12-03T13:45:14Z</time>
      </trkpt>
      <trkpt lat="48.07902" lon="-4.22481">
        <ele>71.755493164062</ele>
        <time>2015-12-03T13:45:20Z</time>
      </trkpt>
      <trkpt lat="48.07898" lon="-4.2248">
        <ele>72.236206054688</ele>
        <time>2015-12-03T13:45:24Z</time>
      </trkpt>
      <trkpt lat="48.07896" lon="-4.22478">
        <ele>72.236206054688</ele>
        <time>2015-12-03T13:45:26Z</time>
      </trkpt>
      <trkpt lat="48.07892" lon="-4.22475">
        <ele>71.755493164062</ele>
        <time>2015-12-03T13:45:31Z</time>
      </trkpt>
      <trkpt lat="48.0789" lon="-4.22477">
        <ele>69.832885742188</ele>
        <time>2015-12-03T13:45:39Z</time>
      </trkpt>
      <trkpt lat="48.07893" lon="-4.22479">
        <ele>68.390869140625</ele>
        <time>2015-12-03T13:46:00Z</time>
      </trkpt>
      <trkpt lat="48.07891" lon="-4.2248">
        <ele>68.87158203125</ele>
        <time>2015-12-03T13:46:09Z</time>
      </trkpt>
      <trkpt lat="48.07891" lon="-4.22478">
        <ele>77.5234375</ele>
        <time>2015-12-03T13:46:55Z</time>
      </trkpt>
      <trkpt lat="48.07891" lon="-4.22481">
        <ele>75.600830078125</ele>
        <time>2015-12-03T13:47:17Z</time>
      </trkpt>
      <trkpt lat="48.07888" lon="-4.22483">
        <ele>76.081420898438</ele>
        <time>2015-12-03T13:47:22Z</time>
      </trkpt>
      <trkpt lat="48.07884" lon="-4.22478">
        <ele>73.67822265625</ele>
        <time>2015-12-03T13:47:37Z</time>
      </trkpt>
      <trkpt lat="48.07885" lon="-4.22476">
        <ele>76.081420898438</ele>
        <time>2015-12-03T13:47:43Z</time>
      </trkpt>
      <trkpt lat="48.07891" lon="-4.22485">
        <ele>75.120239257812</ele>
        <time>2015-12-03T13:47:52Z</time>
      </trkpt>
      <trkpt lat="48.07894" lon="-4.22488">
        <ele>74.639526367188</ele>
        <time>2015-12-03T13:47:54Z</time>
      </trkpt>
      <trkpt lat="48.07894" lon="-4.22504">
        <ele>69.352294921875</ele>
        <time>2015-12-03T13:48:01Z</time>
      </trkpt>
      <trkpt lat="48.07894" lon="-4.22504">
        <ele>68.390869140625</ele>
        <time>2015-12-03T13:48:03Z</time>
      </trkpt>
      <trkpt lat="48.07897" lon="-4.22494">
        <ele>66.948974609375</ele>
        <time>2015-12-03T13:48:06Z</time>
      </trkpt>
      <trkpt lat="48.07902" lon="-4.22478">
        <ele>60.2197265625</ele>
        <time>2015-12-03T13:48:12Z</time>
      </trkpt>
      <trkpt lat="48.07902" lon="-4.22484">
        <ele>61.661743164062</ele>
        <time>2015-12-03T13:48:16Z</time>
      </trkpt>
      <trkpt lat="48.07896" lon="-4.2249">
        <ele>61.661743164062</ele>
        <time>2015-12-03T13:48:20Z</time>
      </trkpt>
      <trkpt lat="48.07889" lon="-4.22486">
        <ele>64.545654296875</ele>
        <time>2015-12-03T13:48:25Z</time>
      </trkpt>
      <trkpt lat="48.07876" lon="-4.22481">
        <ele>62.142333984375</ele>
        <time>2015-12-03T13:48:30Z</time>
      </trkpt>
      <trkpt lat="48.07868" lon="-4.2247">
        <ele>61.661743164062</ele>
        <time>2015-12-03T13:48:37Z</time>
      </trkpt>
      <trkpt lat="48.07866" lon="-4.22467">
        <ele>61.661743164062</ele>
        <time>2015-12-03T13:48:39Z</time>
      </trkpt>
      <trkpt lat="48.07862" lon="-4.22456">
        <ele>62.622924804688</ele>
        <time>2015-12-03T13:48:46Z</time>
      </trkpt>
      <trkpt lat="48.07862" lon="-4.22451">
        <ele>62.622924804688</ele>
        <time>2015-12-03T13:48:49Z</time>
      </trkpt>
      <trkpt lat="48.07862" lon="-4.22441">
        <ele>65.987670898438</ele>
        <time>2015-12-03T13:48:54Z</time>
      </trkpt>
      <trkpt lat="48.07864" lon="-4.22434">
        <ele>67.4296875</ele>
        <time>2015-12-03T13:48:58Z</time>
      </trkpt>
      <trkpt lat="48.07867" lon="-4.2242">
        <ele>67.4296875</ele>
        <time>2015-12-03T13:49:06Z</time>
      </trkpt>
      <trkpt lat="48.07869" lon="-4.22412">
        <ele>66.46826171875</ele>
        <time>2015-12-03T13:49:10Z</time>
      </trkpt>
      <trkpt lat="48.07872" lon="-4.22401">
        <ele>66.948974609375</ele>
        <time>2015-12-03T13:49:16Z</time>
      </trkpt>
      <trkpt lat="48.07873" lon="-4.22399">
        <ele>66.948974609375</ele>
        <time>2015-12-03T13:49:17Z</time>
      </trkpt>
      <trkpt lat="48.07874" lon="-4.22394">
        <ele>67.4296875</ele>
        <time>2015-12-03T13:49:20Z</time>
      </trkpt>
      <trkpt lat="48.07878" lon="-4.22385">
        <ele>68.390869140625</ele>
        <time>2015-12-03T13:49:25Z</time>
      </trkpt>
      <trkpt lat="48.07881" lon="-4.22379">
        <ele>69.352294921875</ele>
        <time>2015-12-03T13:49:29Z</time>
      </trkpt>
      <trkpt lat="48.07882" lon="-4.22375">
        <ele>69.352294921875</ele>
        <time>2015-12-03T13:49:31Z</time>
      </trkpt>
      <trkpt lat="48.07885" lon="-4.22365">
        <ele>68.87158203125</ele>
        <time>2015-12-03T13:49:36Z</time>
      </trkpt>
      <trkpt lat="48.07888" lon="-4.22352">
        <ele>69.352294921875</ele>
        <time>2015-12-03T13:49:43Z</time>
      </trkpt>
      <trkpt lat="48.07891" lon="-4.22341">
        <ele>68.87158203125</ele>
        <time>2015-12-03T13:49:49Z</time>
      </trkpt>
      <trkpt lat="48.07894" lon="-4.2233">
        <ele>67.4296875</ele>
        <time>2015-12-03T13:49:55Z</time>
      </trkpt>
      <trkpt lat="48.07898" lon="-4.22317">
        <ele>67.910278320312</ele>
        <time>2015-12-03T13:50:02Z</time>
      </trkpt>
      <trkpt lat="48.07899" lon="-4.22316">
        <ele>68.390869140625</ele>
        <time>2015-12-03T13:50:03Z</time>
      </trkpt>
      <trkpt lat="48.07901" lon="-4.22305">
        <ele>68.390869140625</ele>
        <time>2015-12-03T13:50:09Z</time>
      </trkpt>
      <trkpt lat="48.07903" lon="-4.22296">
        <ele>66.46826171875</ele>
        <time>2015-12-03T13:50:14Z</time>
      </trkpt>
      <trkpt lat="48.07905" lon="-4.22285">
        <ele>64.545654296875</ele>
        <time>2015-12-03T13:50:20Z</time>
      </trkpt>
      <trkpt lat="48.07905" lon="-4.22281">
        <ele>63.584350585938</ele>
        <time>2015-12-03T13:50:23Z</time>
      </trkpt>
      <trkpt lat="48.07907" lon="-4.22266">
        <ele>59.258422851562</ele>
        <time>2015-12-03T13:50:31Z</time>
      </trkpt>
      <trkpt lat="48.07908" lon="-4.22261">
        <ele>59.258422851562</ele>
        <time>2015-12-03T13:50:34Z</time>
      </trkpt>
      <trkpt lat="48.07911" lon="-4.22254">
        <ele>60.2197265625</ele>
        <time>2015-12-03T13:50:38Z</time>
      </trkpt>
      <trkpt lat="48.07914" lon="-4.2225">
        <ele>61.661743164062</ele>
        <time>2015-12-03T13:50:40Z</time>
      </trkpt>
      <trkpt lat="48.07921" lon="-4.22238">
        <ele>61.661743164062</ele>
        <time>2015-12-03T13:50:47Z</time>
      </trkpt>
      <trkpt lat="48.07928" lon="-4.22223">
        <ele>57.816528320312</ele>
        <time>2015-12-03T13:50:54Z</time>
      </trkpt>
      <trkpt lat="48.07927" lon="-4.22219">
        <ele>56.855102539062</ele>
        <time>2015-12-03T13:50:56Z</time>
      </trkpt>
      <trkpt lat="48.07931" lon="-4.22207">
        <ele>55.4130859375</ele>
        <time>2015-12-03T13:51:03Z</time>
      </trkpt>
      <trkpt lat="48.07931" lon="-4.22206">
        <ele>56.37451171875</ele>
        <time>2015-12-03T13:51:04Z</time>
      </trkpt>
      <trkpt lat="48.07933" lon="-4.22196">
        <ele>52.048583984375</ele>
        <time>2015-12-03T13:51:11Z</time>
      </trkpt>
      <trkpt lat="48.07933" lon="-4.22193">
        <ele>50.606567382812</ele>
        <time>2015-12-03T13:51:13Z</time>
      </trkpt>
      <trkpt lat="48.07937" lon="-4.22184">
        <ele>47.241821289062</ele>
        <time>2015-12-03T13:51:19Z</time>
      </trkpt>
      <trkpt lat="48.07938" lon="-4.22182">
        <ele>45.319213867188</ele>
        <time>2015-12-03T13:51:21Z</time>
      </trkpt>
      <trkpt lat="48.07944" lon="-4.22175">
        <ele>44.358032226562</ele>
        <time>2015-12-03T13:51:27Z</time>
      </trkpt>
      <trkpt lat="48.07949" lon="-4.22168">
        <ele>47.241821289062</ele>
        <time>2015-12-03T13:51:32Z</time>
      </trkpt>
      <trkpt lat="48.0796" lon="-4.22159">
        <ele>53.009765625</ele>
        <time>2015-12-03T13:51:38Z</time>
      </trkpt>
      <trkpt lat="48.07961" lon="-4.22158">
        <ele>53.490478515625</ele>
        <time>2015-12-03T13:51:39Z</time>
      </trkpt>
      <trkpt lat="48.07966" lon="-4.22153">
        <ele>54.451782226562</ele>
        <time>2015-12-03T13:51:43Z</time>
      </trkpt>
      <trkpt lat="48.0797" lon="-4.22148">
        <ele>55.893798828125</ele>
        <time>2015-12-03T13:51:47Z</time>
      </trkpt>
      <trkpt lat="48.07979" lon="-4.22135">
        <ele>57.816528320312</ele>
        <time>2015-12-03T13:51:55Z</time>
      </trkpt>
      <trkpt lat="48.07982" lon="-4.22129">
        <ele>59.258422851562</ele>
        <time>2015-12-03T13:51:59Z</time>
      </trkpt>
      <trkpt lat="48.07991" lon="-4.22115">
        <ele>61.661743164062</ele>
        <time>2015-12-03T13:52:08Z</time>
      </trkpt>
      <trkpt lat="48.07993" lon="-4.22112">
        <ele>62.622924804688</ele>
        <time>2015-12-03T13:52:10Z</time>
      </trkpt>
      <trkpt lat="48.07998" lon="-4.22101">
        <ele>64.065063476562</ele>
        <time>2015-12-03T13:52:18Z</time>
      </trkpt>
      <trkpt lat="48.08001" lon="-4.22092">
        <ele>63.584350585938</ele>
        <time>2015-12-03T13:52:24Z</time>
      </trkpt>
      <trkpt lat="48.0801" lon="-4.22078">
        <ele>66.46826171875</ele>
        <time>2015-12-03T13:52:34Z</time>
      </trkpt>
      <trkpt lat="48.08015" lon="-4.22067">
        <ele>68.390869140625</ele>
        <time>2015-12-03T13:52:42Z</time>
      </trkpt>
      <trkpt lat="48.08021" lon="-4.22055">
        <ele>69.352294921875</ele>
        <time>2015-12-03T13:52:50Z</time>
      </trkpt>
      <trkpt lat="48.08025" lon="-4.22044">
        <ele>68.390869140625</ele>
        <time>2015-12-03T13:52:58Z</time>
      </trkpt>
      <trkpt lat="48.08029" lon="-4.22034">
        <ele>69.832885742188</ele>
        <time>2015-12-03T13:53:06Z</time>
      </trkpt>
      <trkpt lat="48.08035" lon="-4.22023">
        <ele>70.3134765625</ele>
        <time>2015-12-03T13:53:14Z</time>
      </trkpt>
      <trkpt lat="48.08038" lon="-4.22021">
        <ele>71.755493164062</ele>
        <time>2015-12-03T13:53:17Z</time>
      </trkpt>
      <trkpt lat="48.08045" lon="-4.22016">
        <ele>74.639526367188</ele>
        <time>2015-12-03T13:53:24Z</time>
      </trkpt>
      <trkpt lat="48.08046" lon="-4.22015">
        <ele>75.120239257812</ele>
        <time>2015-12-03T13:53:25Z</time>
      </trkpt>
      <trkpt lat="48.08053" lon="-4.22016">
        <ele>76.081420898438</ele>
        <time>2015-12-03T13:53:31Z</time>
      </trkpt>
      <trkpt lat="48.08064" lon="-4.22022">
        <ele>77.5234375</ele>
        <time>2015-12-03T13:53:42Z</time>
      </trkpt>
      <trkpt lat="48.08074" lon="-4.22031">
        <ele>78.004028320312</ele>
        <time>2015-12-03T13:53:52Z</time>
      </trkpt>
      <trkpt lat="48.08082" lon="-4.22037">
        <ele>78.004028320312</ele>
        <time>2015-12-03T13:54:00Z</time>
      </trkpt>
      <trkpt lat="48.08091" lon="-4.22046">
        <ele>78.484741210938</ele>
        <time>2015-12-03T13:54:10Z</time>
      </trkpt>
      <trkpt lat="48.08099" lon="-4.22053">
        <ele>78.965454101562</ele>
        <time>2015-12-03T13:54:18Z</time>
      </trkpt>
      <trkpt lat="48.08107" lon="-4.22059">
        <ele>78.965454101562</ele>
        <time>2015-12-03T13:54:26Z</time>
      </trkpt>
      <trkpt lat="48.08117" lon="-4.22066">
        <ele>78.965454101562</ele>
        <time>2015-12-03T13:54:35Z</time>
      </trkpt>
      <trkpt lat="48.08124" lon="-4.2207">
        <ele>82.330078125</ele>
        <time>2015-12-03T13:54:42Z</time>
      </trkpt>
      <trkpt lat="48.08132" lon="-4.22068">
        <ele>84.7333984375</ele>
        <time>2015-12-03T13:54:50Z</time>
      </trkpt>
      <trkpt lat="48.0814" lon="-4.22058">
        <ele>86.17529296875</ele>
        <time>2015-12-03T13:55:00Z</time>
      </trkpt>
      <trkpt lat="48.08144" lon="-4.22052">
        <ele>86.656005859375</ele>
        <time>2015-12-03T13:55:05Z</time>
      </trkpt>
      <trkpt lat="48.08151" lon="-4.22043">
        <ele>87.136596679688</ele>
        <time>2015-12-03T13:55:13Z</time>
      </trkpt>
      <trkpt lat="48.0816" lon="-4.22036">
        <ele>89.059326171875</ele>
        <time>2015-12-03T13:55:22Z</time>
      </trkpt>
      <trkpt lat="48.08168" lon="-4.2203">
        <ele>89.059326171875</ele>
        <time>2015-12-03T13:55:30Z</time>
      </trkpt>
      <trkpt lat="48.08176" lon="-4.22025">
        <ele>90.020629882812</ele>
        <time>2015-12-03T13:55:37Z</time>
      </trkpt>
      <trkpt lat="48.08182" lon="-4.22015">
        <ele>93.385131835938</ele>
        <time>2015-12-03T13:55:44Z</time>
      </trkpt>
      <trkpt lat="48.08184" lon="-4.22001">
        <ele>93.865844726562</ele>
        <time>2015-12-03T13:55:52Z</time>
      </trkpt>
      <trkpt lat="48.08186" lon="-4.21988">
        <ele>94.346557617188</ele>
        <time>2015-12-03T13:56:00Z</time>
      </trkpt>
      <trkpt lat="48.08189" lon="-4.21971">
        <ele>94.8271484375</ele>
        <time>2015-12-03T13:56:10Z</time>
      </trkpt>
      <trkpt lat="48.08192" lon="-4.2196">
        <ele>95.788452148438</ele>
        <time>2015-12-03T13:56:17Z</time>
      </trkpt>
      <trkpt lat="48.08193" lon="-4.21954">
        <ele>95.788452148438</ele>
        <time>2015-12-03T13:56:21Z</time>
      </trkpt>
      <trkpt lat="48.08193" lon="-4.21947">
        <ele>95.788452148438</ele>
        <time>2015-12-03T13:56:25Z</time>
      </trkpt>
      <trkpt lat="48.08198" lon="-4.21931">
        <ele>98.19189453125</ele>
        <time>2015-12-03T13:56:34Z</time>
      </trkpt>
      <trkpt lat="48.08201" lon="-4.21918">
        <ele>98.672485351562</ele>
        <time>2015-12-03T13:56:42Z</time>
      </trkpt>
      <trkpt lat="48.08202" lon="-4.21913">
        <ele>99.153076171875</ele>
        <time>2015-12-03T13:56:45Z</time>
      </trkpt>
      <trkpt lat="48.08206" lon="-4.21903">
        <ele>101.55639648438</ele>
        <time>2015-12-03T13:56:51Z</time>
      </trkpt>
      <trkpt lat="48.0821" lon="-4.21892">
        <ele>104.4404296875</ele>
        <time>2015-12-03T13:56:58Z</time>
      </trkpt>
      <trkpt lat="48.08215" lon="-4.21881">
        <ele>107.32434082031</ele>
        <time>2015-12-03T13:57:04Z</time>
      </trkpt>
      <trkpt lat="48.08219" lon="-4.21871">
        <ele>109.24694824219</ele>
        <time>2015-12-03T13:57:10Z</time>
      </trkpt>
      <trkpt lat="48.08223" lon="-4.21864">
        <ele>109.72766113281</ele>
        <time>2015-12-03T13:57:16Z</time>
      </trkpt>
      <trkpt lat="48.08226" lon="-4.21858">
        <ele>111.16955566406</ele>
        <time>2015-12-03T13:57:20Z</time>
      </trkpt>
      <trkpt lat="48.08229" lon="-4.21852">
        <ele>113.09228515625</ele>
        <time>2015-12-03T13:57:24Z</time>
      </trkpt>
      <trkpt lat="48.08235" lon="-4.21841">
        <ele>114.05358886719</ele>
        <time>2015-12-03T13:57:31Z</time>
      </trkpt>
      <trkpt lat="48.0824" lon="-4.21832">
        <ele>115.01489257812</ele>
        <time>2015-12-03T13:57:37Z</time>
      </trkpt>
      <trkpt lat="48.08246" lon="-4.21824">
        <ele>116.45678710938</ele>
        <time>2015-12-03T13:57:44Z</time>
      </trkpt>
      <trkpt lat="48.08248" lon="-4.21822">
        <ele>115.97619628906</ele>
        <time>2015-12-03T13:57:47Z</time>
      </trkpt>
      <trkpt lat="48.08252" lon="-4.21813">
        <ele>115.49560546875</ele>
        <time>2015-12-03T13:57:53Z</time>
      </trkpt>
      <trkpt lat="48.08257" lon="-4.21807">
        <ele>115.97619628906</ele>
        <time>2015-12-03T13:57:59Z</time>
      </trkpt>
      <trkpt lat="48.08263" lon="-4.218">
        <ele>116.45678710938</ele>
        <time>2015-12-03T13:58:05Z</time>
      </trkpt>
      <trkpt lat="48.0827" lon="-4.21793">
        <ele>116.45678710938</ele>
        <time>2015-12-03T13:58:12Z</time>
      </trkpt>
      <trkpt lat="48.08277" lon="-4.21786">
        <ele>116.45678710938</ele>
        <time>2015-12-03T13:58:19Z</time>
      </trkpt>
      <trkpt lat="48.08285" lon="-4.21781">
        <ele>116.45678710938</ele>
        <time>2015-12-03T13:58:26Z</time>
      </trkpt>
      <trkpt lat="48.08292" lon="-4.21775">
        <ele>116.9375</ele>
        <time>2015-12-03T13:58:33Z</time>
      </trkpt>
      <trkpt lat="48.08299" lon="-4.2177">
        <ele>118.37939453125</ele>
        <time>2015-12-03T13:58:39Z</time>
      </trkpt>
      <trkpt lat="48.08305" lon="-4.21767">
        <ele>118.37939453125</ele>
        <time>2015-12-03T13:58:44Z</time>
      </trkpt>
      <trkpt lat="48.08314" lon="-4.21762">
        <ele>118.86010742188</ele>
        <time>2015-12-03T13:58:51Z</time>
      </trkpt>
      <trkpt lat="48.08321" lon="-4.21758">
        <ele>118.86010742188</ele>
        <time>2015-12-03T13:58:57Z</time>
      </trkpt>
      <trkpt lat="48.08329" lon="-4.21755">
        <ele>119.82141113281</ele>
        <time>2015-12-03T13:59:04Z</time>
      </trkpt>
      <trkpt lat="48.08332" lon="-4.21753">
        <ele>119.3408203125</ele>
        <time>2015-12-03T13:59:08Z</time>
      </trkpt>
      <trkpt lat="48.08335" lon="-4.21752">
        <ele>119.82141113281</ele>
        <time>2015-12-03T13:59:10Z</time>
      </trkpt>
      <trkpt lat="48.08339" lon="-4.21748">
        <ele>120.30212402344</ele>
        <time>2015-12-03T13:59:14Z</time>
      </trkpt>
      <trkpt lat="48.08347" lon="-4.21744">
        <ele>120.78283691406</ele>
        <time>2015-12-03T13:59:21Z</time>
      </trkpt>
      <trkpt lat="48.08355" lon="-4.21741">
        <ele>122.70544433594</ele>
        <time>2015-12-03T13:59:28Z</time>
      </trkpt>
      <trkpt lat="48.08362" lon="-4.21737">
        <ele>122.70544433594</ele>
        <time>2015-12-03T13:59:34Z</time>
      </trkpt>
      <trkpt lat="48.08372" lon="-4.21733">
        <ele>123.18615722656</ele>
        <time>2015-12-03T13:59:42Z</time>
      </trkpt>
      <trkpt lat="48.08381" lon="-4.21729">
        <ele>125.10876464844</ele>
        <time>2015-12-03T13:59:49Z</time>
      </trkpt>
      <trkpt lat="48.08388" lon="-4.21725">
        <ele>125.58935546875</ele>
        <time>2015-12-03T13:59:56Z</time>
      </trkpt>
      <trkpt lat="48.08393" lon="-4.21723">
        <ele>125.58935546875</ele>
        <time>2015-12-03T14:00:00Z</time>
      </trkpt>
      <trkpt lat="48.08394" lon="-4.21723">
        <ele>125.58935546875</ele>
        <time>2015-12-03T14:00:02Z</time>
      </trkpt>
      <trkpt lat="48.08403" lon="-4.21718">
        <ele>124.62805175781</ele>
        <time>2015-12-03T14:00:10Z</time>
      </trkpt>
      <trkpt lat="48.0841" lon="-4.21712">
        <ele>124.62805175781</ele>
        <time>2015-12-03T14:00:16Z</time>
      </trkpt>
      <trkpt lat="48.08416" lon="-4.21706">
        <ele>126.06994628906</ele>
        <time>2015-12-03T14:00:23Z</time>
      </trkpt>
      <trkpt lat="48.08423" lon="-4.217">
        <ele>127.03137207031</ele>
        <time>2015-12-03T14:00:30Z</time>
      </trkpt>
      <trkpt lat="48.08425" lon="-4.21688">
        <ele>127.99255371094</ele>
        <time>2015-12-03T14:00:37Z</time>
      </trkpt>
      <trkpt lat="48.08424" lon="-4.21679">
        <ele>128.47338867188</ele>
        <time>2015-12-03T14:00:42Z</time>
      </trkpt>
      <trkpt lat="48.08421" lon="-4.21664">
        <ele>129.91528320312</ele>
        <time>2015-12-03T14:00:51Z</time>
      </trkpt>
      <trkpt lat="48.08419" lon="-4.2165">
        <ele>130.39599609375</ele>
        <time>2015-12-03T14:00:59Z</time>
      </trkpt>
      <trkpt lat="48.08416" lon="-4.21635">
        <ele>129.91528320312</ele>
        <time>2015-12-03T14:01:07Z</time>
      </trkpt>
      <trkpt lat="48.08414" lon="-4.21623">
        <ele>129.91528320312</ele>
        <time>2015-12-03T14:01:13Z</time>
      </trkpt>
      <trkpt lat="48.08412" lon="-4.2161">
        <ele>130.87670898438</ele>
        <time>2015-12-03T14:01:20Z</time>
      </trkpt>
      <trkpt lat="48.08411" lon="-4.21597">
        <ele>131.35729980469</ele>
        <time>2015-12-03T14:01:27Z</time>
      </trkpt>
      <trkpt lat="48.08411" lon="-4.21577">
        <ele>133.27990722656</ele>
        <time>2015-12-03T14:01:37Z</time>
      </trkpt>
      <trkpt lat="48.08412" lon="-4.21562">
        <ele>133.76049804688</ele>
        <time>2015-12-03T14:01:45Z</time>
      </trkpt>
      <trkpt lat="48.08413" lon="-4.21548">
        <ele>135.20251464844</ele>
        <time>2015-12-03T14:01:52Z</time>
      </trkpt>
      <trkpt lat="48.08414" lon="-4.21533">
        <ele>135.68310546875</ele>
        <time>2015-12-03T14:02:00Z</time>
      </trkpt>
      <trkpt lat="48.08416" lon="-4.2152">
        <ele>135.68310546875</ele>
        <time>2015-12-03T14:02:07Z</time>
      </trkpt>
      <trkpt lat="48.08419" lon="-4.21508">
        <ele>136.64465332031</ele>
        <time>2015-12-03T14:02:14Z</time>
      </trkpt>
      <trkpt lat="48.08421" lon="-4.21493">
        <ele>138.08654785156</ele>
        <time>2015-12-03T14:02:22Z</time>
      </trkpt>
      <trkpt lat="48.08423" lon="-4.21478">
        <ele>137.12524414062</ele>
        <time>2015-12-03T14:02:31Z</time>
      </trkpt>
      <trkpt lat="48.08425" lon="-4.21461">
        <ele>135.68310546875</ele>
        <time>2015-12-03T14:02:41Z</time>
      </trkpt>
      <trkpt lat="48.08428" lon="-4.21447">
        <ele>135.20251464844</ele>
        <time>2015-12-03T14:02:49Z</time>
      </trkpt>
      <trkpt lat="48.08428" lon="-4.21446">
        <ele>135.20251464844</ele>
        <time>2015-12-03T14:02:50Z</time>
      </trkpt>
      <trkpt lat="48.08431" lon="-4.21433">
        <ele>138.56726074219</ele>
        <time>2015-12-03T14:02:57Z</time>
      </trkpt>
      <trkpt lat="48.08433" lon="-4.21424">
        <ele>140.97045898438</ele>
        <time>2015-12-03T14:03:02Z</time>
      </trkpt>
      <trkpt lat="48.08434" lon="-4.2141">
        <ele>142.89306640625</ele>
        <time>2015-12-03T14:03:09Z</time>
      </trkpt>
      <trkpt lat="48.08435" lon="-4.21398">
        <ele>143.37365722656</ele>
        <time>2015-12-03T14:03:15Z</time>
      </trkpt>
      <trkpt lat="48.08438" lon="-4.21383">
        <ele>142.89306640625</ele>
        <time>2015-12-03T14:03:23Z</time>
      </trkpt>
      <trkpt lat="48.08438" lon="-4.21371">
        <ele>141.45104980469</ele>
        <time>2015-12-03T14:03:30Z</time>
      </trkpt>
      <trkpt lat="48.08438" lon="-4.21366">
        <ele>140.48986816406</ele>
        <time>2015-12-03T14:03:33Z</time>
      </trkpt>
      <trkpt lat="48.0844" lon="-4.21352">
        <ele>138.56726074219</ele>
        <time>2015-12-03T14:03:41Z</time>
      </trkpt>
      <trkpt lat="48.0844" lon="-4.21351">
        <ele>139.0478515625</ele>
        <time>2015-12-03T14:03:42Z</time>
      </trkpt>
      <trkpt lat="48.08441" lon="-4.21338">
        <ele>140.00915527344</ele>
        <time>2015-12-03T14:03:48Z</time>
      </trkpt>
      <trkpt lat="48.08445" lon="-4.21319">
        <ele>140.97045898438</ele>
        <time>2015-12-03T14:03:57Z</time>
      </trkpt>
      <trkpt lat="48.08444" lon="-4.213">
        <ele>140.97045898438</ele>
        <time>2015-12-03T14:04:07Z</time>
      </trkpt>
      <trkpt lat="48.08444" lon="-4.2129">
        <ele>141.93176269531</ele>
        <time>2015-12-03T14:04:12Z</time>
      </trkpt>
      <trkpt lat="48.08445" lon="-4.21282">
        <ele>142.89306640625</ele>
        <time>2015-12-03T14:04:17Z</time>
      </trkpt>
      <trkpt lat="48.08444" lon="-4.21273">
        <ele>141.93176269531</ele>
        <time>2015-12-03T14:04:21Z</time>
      </trkpt>
      <trkpt lat="48.08443" lon="-4.21271">
        <ele>142.89306640625</ele>
        <time>2015-12-03T14:04:22Z</time>
      </trkpt>
      <trkpt lat="48.08441" lon="-4.21255">
        <ele>141.45104980469</ele>
        <time>2015-12-03T14:04:30Z</time>
      </trkpt>
      <trkpt lat="48.08439" lon="-4.21244">
        <ele>140.00915527344</ele>
        <time>2015-12-03T14:04:36Z</time>
      </trkpt>
      <trkpt lat="48.08438" lon="-4.21238">
        <ele>139.0478515625</ele>
        <time>2015-12-03T14:04:39Z</time>
      </trkpt>
      <trkpt lat="48.08439" lon="-4.21234">
        <ele>139.0478515625</ele>
        <time>2015-12-03T14:04:42Z</time>
      </trkpt>
      <trkpt lat="48.08435" lon="-4.21218">
        <ele>138.56726074219</ele>
        <time>2015-12-03T14:04:50Z</time>
      </trkpt>
      <trkpt lat="48.08433" lon="-4.21208">
        <ele>138.56726074219</ele>
        <time>2015-12-03T14:04:56Z</time>
      </trkpt>
      <trkpt lat="48.08431" lon="-4.21195">
        <ele>139.52844238281</ele>
        <time>2015-12-03T14:05:03Z</time>
      </trkpt>
      <trkpt lat="48.08428" lon="-4.21181">
        <ele>140.00915527344</ele>
        <time>2015-12-03T14:05:11Z</time>
      </trkpt>
      <trkpt lat="48.08425" lon="-4.21169">
        <ele>139.52844238281</ele>
        <time>2015-12-03T14:05:17Z</time>
      </trkpt>
      <trkpt lat="48.08422" lon="-4.21154">
        <ele>139.52844238281</ele>
        <time>2015-12-03T14:05:25Z</time>
      </trkpt>
      <trkpt lat="48.08419" lon="-4.21137">
        <ele>140.00915527344</ele>
        <time>2015-12-03T14:05:34Z</time>
      </trkpt>
      <trkpt lat="48.08417" lon="-4.21122">
        <ele>140.48986816406</ele>
        <time>2015-12-03T14:05:42Z</time>
      </trkpt>
      <trkpt lat="48.08415" lon="-4.21106">
        <ele>139.52844238281</ele>
        <time>2015-12-03T14:05:51Z</time>
      </trkpt>
      <trkpt lat="48.08415" lon="-4.21093">
        <ele>139.52844238281</ele>
        <time>2015-12-03T14:05:58Z</time>
      </trkpt>
      <trkpt lat="48.08412" lon="-4.21076">
        <ele>138.56726074219</ele>
        <time>2015-12-03T14:06:07Z</time>
      </trkpt>
      <trkpt lat="48.08412" lon="-4.21064">
        <ele>139.52844238281</ele>
        <time>2015-12-03T14:06:14Z</time>
      </trkpt>
      <trkpt lat="48.08412" lon="-4.21063">
        <ele>139.52844238281</ele>
        <time>2015-12-03T14:06:15Z</time>
      </trkpt>
      <trkpt lat="48.08412" lon="-4.21049">
        <ele>137.12524414062</ele>
        <time>2015-12-03T14:06:22Z</time>
      </trkpt>
      <trkpt lat="48.08414" lon="-4.21035">
        <ele>136.16394042969</ele>
        <time>2015-12-03T14:06:29Z</time>
      </trkpt>
      <trkpt lat="48.08415" lon="-4.21018">
        <ele>136.16394042969</ele>
        <time>2015-12-03T14:06:38Z</time>
      </trkpt>
      <trkpt lat="48.08416" lon="-4.21001">
        <ele>135.68310546875</ele>
        <time>2015-12-03T14:06:47Z</time>
      </trkpt>
      <trkpt lat="48.08409" lon="-4.20987">
        <ele>136.64465332031</ele>
        <time>2015-12-03T14:06:56Z</time>
      </trkpt>
      <trkpt lat="48.08399" lon="-4.20984">
        <ele>137.60583496094</ele>
        <time>2015-12-03T14:07:04Z</time>
      </trkpt>
      <trkpt lat="48.08389" lon="-4.20982">
        <ele>134.72192382812</ele>
        <time>2015-12-03T14:07:12Z</time>
      </trkpt>
      <trkpt lat="48.08379" lon="-4.2098">
        <ele>134.2412109375</ele>
        <time>2015-12-03T14:07:20Z</time>
      </trkpt>
      <trkpt lat="48.08366" lon="-4.20976">
        <ele>131.837890625</ele>
        <time>2015-12-03T14:07:30Z</time>
      </trkpt>
      <trkpt lat="48.08353" lon="-4.20973">
        <ele>129.91528320312</ele>
        <time>2015-12-03T14:07:40Z</time>
      </trkpt>
      <trkpt lat="48.08344" lon="-4.20971">
        <ele>127.99255371094</ele>
        <time>2015-12-03T14:07:48Z</time>
      </trkpt>
      <trkpt lat="48.08332" lon="-4.20968">
        <ele>126.06994628906</ele>
        <time>2015-12-03T14:07:58Z</time>
      </trkpt>
      <trkpt lat="48.08321" lon="-4.20965">
        <ele>125.10876464844</ele>
        <time>2015-12-03T14:08:07Z</time>
      </trkpt>
      <trkpt lat="48.08311" lon="-4.20962">
        <ele>124.62805175781</ele>
        <time>2015-12-03T14:08:16Z</time>
      </trkpt>
      <trkpt lat="48.08303" lon="-4.20961">
        <ele>122.70544433594</ele>
        <time>2015-12-03T14:08:24Z</time>
      </trkpt>
      <trkpt lat="48.08294" lon="-4.20957">
        <ele>121.26354980469</ele>
        <time>2015-12-03T14:08:32Z</time>
      </trkpt>
      <trkpt lat="48.08285" lon="-4.20954">
        <ele>119.3408203125</ele>
        <time>2015-12-03T14:08:39Z</time>
      </trkpt>
      <trkpt lat="48.08277" lon="-4.20951">
        <ele>117.89880371094</ele>
        <time>2015-12-03T14:08:46Z</time>
      </trkpt>
      <trkpt lat="48.08265" lon="-4.20945">
        <ele>120.78283691406</ele>
        <time>2015-12-03T14:08:54Z</time>
      </trkpt>
      <trkpt lat="48.08257" lon="-4.2094">
        <ele>120.30212402344</ele>
        <time>2015-12-03T14:09:00Z</time>
      </trkpt>
      <trkpt lat="48.08255" lon="-4.20939">
        <ele>120.78283691406</ele>
        <time>2015-12-03T14:09:02Z</time>
      </trkpt>
      <trkpt lat="48.08249" lon="-4.20934">
        <ele>120.30212402344</ele>
        <time>2015-12-03T14:09:08Z</time>
      </trkpt>
      <trkpt lat="48.08241" lon="-4.2093">
        <ele>120.30212402344</ele>
        <time>2015-12-03T14:09:15Z</time>
      </trkpt>
      <trkpt lat="48.0824" lon="-4.20928">
        <ele>119.3408203125</ele>
        <time>2015-12-03T14:09:16Z</time>
      </trkpt>
      <trkpt lat="48.08235" lon="-4.20924">
        <ele>118.86010742188</ele>
        <time>2015-12-03T14:09:22Z</time>
      </trkpt>
      <trkpt lat="48.08222" lon="-4.20911">
        <ele>117.89880371094</ele>
        <time>2015-12-03T14:09:31Z</time>
      </trkpt>
      <trkpt lat="48.08214" lon="-4.20903">
        <ele>115.97619628906</ele>
        <time>2015-12-03T14:09:38Z</time>
      </trkpt>
      <trkpt lat="48.08206" lon="-4.20898">
        <ele>115.01489257812</ele>
        <time>2015-12-03T14:09:45Z</time>
      </trkpt>
      <trkpt lat="48.08203" lon="-4.20895">
        <ele>115.49560546875</ele>
        <time>2015-12-03T14:09:47Z</time>
      </trkpt>
      <trkpt lat="48.08195" lon="-4.20888">
        <ele>115.97619628906</ele>
        <time>2015-12-03T14:09:53Z</time>
      </trkpt>
      <trkpt lat="48.08189" lon="-4.20884">
        <ele>116.45678710938</ele>
        <time>2015-12-03T14:09:57Z</time>
      </trkpt>
      <trkpt lat="48.08185" lon="-4.2088">
        <ele>113.57299804688</ele>
        <time>2015-12-03T14:10:02Z</time>
      </trkpt>
      <trkpt lat="48.08178" lon="-4.20874">
        <ele>110.68884277344</ele>
        <time>2015-12-03T14:10:09Z</time>
      </trkpt>
      <trkpt lat="48.08171" lon="-4.20866">
        <ele>110.20825195312</ele>
        <time>2015-12-03T14:10:14Z</time>
      </trkpt>
      <trkpt lat="48.08164" lon="-4.20859">
        <ele>110.68884277344</ele>
        <time>2015-12-03T14:10:20Z</time>
      </trkpt>
      <trkpt lat="48.08161" lon="-4.20856">
        <ele>110.20825195312</ele>
        <time>2015-12-03T14:10:23Z</time>
      </trkpt>
      <trkpt lat="48.0815" lon="-4.20847">
        <ele>111.16955566406</ele>
        <time>2015-12-03T14:10:32Z</time>
      </trkpt>
      <trkpt lat="48.08137" lon="-4.20839">
        <ele>112.13098144531</ele>
        <time>2015-12-03T14:10:41Z</time>
      </trkpt>
      <trkpt lat="48.08129" lon="-4.20834">
        <ele>112.13098144531</ele>
        <time>2015-12-03T14:10:48Z</time>
      </trkpt>
      <trkpt lat="48.08122" lon="-4.20828">
        <ele>112.61157226562</ele>
        <time>2015-12-03T14:10:53Z</time>
      </trkpt>
      <trkpt lat="48.08116" lon="-4.20825">
        <ele>112.61157226562</ele>
        <time>2015-12-03T14:10:58Z</time>
      </trkpt>
      <trkpt lat="48.08107" lon="-4.20816">
        <ele>112.13098144531</ele>
        <time>2015-12-03T14:11:06Z</time>
      </trkpt>
      <trkpt lat="48.08104" lon="-4.20813">
        <ele>111.65026855469</ele>
        <time>2015-12-03T14:11:09Z</time>
      </trkpt>
      <trkpt lat="48.08101" lon="-4.20806">
        <ele>111.65026855469</ele>
        <time>2015-12-03T14:11:14Z</time>
      </trkpt>
      <trkpt lat="48.08097" lon="-4.20797">
        <ele>112.13098144531</ele>
        <time>2015-12-03T14:11:20Z</time>
      </trkpt>
      <trkpt lat="48.08096" lon="-4.20792">
        <ele>111.65026855469</ele>
        <time>2015-12-03T14:11:23Z</time>
      </trkpt>
      <trkpt lat="48.08093" lon="-4.20783">
        <ele>111.65026855469</ele>
        <time>2015-12-03T14:11:28Z</time>
      </trkpt>
      <trkpt lat="48.08092" lon="-4.20779">
        <ele>112.13098144531</ele>
        <time>2015-12-03T14:11:30Z</time>
      </trkpt>
      <trkpt lat="48.08087" lon="-4.20761">
        <ele>111.16955566406</ele>
        <time>2015-12-03T14:11:39Z</time>
      </trkpt>
      <trkpt lat="48.08086" lon="-4.20757">
        <ele>111.16955566406</ele>
        <time>2015-12-03T14:11:41Z</time>
      </trkpt>
      <trkpt lat="48.08083" lon="-4.20745">
        <ele>110.68884277344</ele>
        <time>2015-12-03T14:11:48Z</time>
      </trkpt>
      <trkpt lat="48.08079" lon="-4.20735">
        <ele>110.20825195312</ele>
        <time>2015-12-03T14:11:54Z</time>
      </trkpt>
      <trkpt lat="48.08075" lon="-4.20724">
        <ele>109.72766113281</ele>
        <time>2015-12-03T14:12:01Z</time>
      </trkpt>
      <trkpt lat="48.08072" lon="-4.2072">
        <ele>109.72766113281</ele>
        <time>2015-12-03T14:12:05Z</time>
      </trkpt>
      <trkpt lat="48.08072" lon="-4.20709">
        <ele>109.24694824219</ele>
        <time>2015-12-03T14:12:11Z</time>
      </trkpt>
      <trkpt lat="48.08076" lon="-4.20697">
        <ele>106.84362792969</ele>
        <time>2015-12-03T14:12:17Z</time>
      </trkpt>
      <trkpt lat="48.08079" lon="-4.20688">
        <ele>110.20825195312</ele>
        <time>2015-12-03T14:12:22Z</time>
      </trkpt>
      <trkpt lat="48.0808" lon="-4.20684">
        <ele>111.16955566406</ele>
        <time>2015-12-03T14:12:24Z</time>
      </trkpt>
      <trkpt lat="48.08081" lon="-4.20676">
        <ele>111.65026855469</ele>
        <time>2015-12-03T14:12:29Z</time>
      </trkpt>
      <trkpt lat="48.08083" lon="-4.2067">
        <ele>112.13098144531</ele>
        <time>2015-12-03T14:12:32Z</time>
      </trkpt>
      <trkpt lat="48.08084" lon="-4.20664">
        <ele>112.13098144531</ele>
        <time>2015-12-03T14:12:36Z</time>
      </trkpt>
      <trkpt lat="48.08089" lon="-4.2065">
        <ele>111.65026855469</ele>
        <time>2015-12-03T14:12:44Z</time>
      </trkpt>
      <trkpt lat="48.08092" lon="-4.20638">
        <ele>110.20825195312</ele>
        <time>2015-12-03T14:12:51Z</time>
      </trkpt>
      <trkpt lat="48.08093" lon="-4.20631">
        <ele>110.20825195312</ele>
        <time>2015-12-03T14:12:55Z</time>
      </trkpt>
      <trkpt lat="48.08097" lon="-4.20621">
        <ele>109.72766113281</ele>
        <time>2015-12-03T14:13:01Z</time>
      </trkpt>
      <trkpt lat="48.08101" lon="-4.20611">
        <ele>109.72766113281</ele>
        <time>2015-12-03T14:13:07Z</time>
      </trkpt>
      <trkpt lat="48.08103" lon="-4.20606">
        <ele>109.72766113281</ele>
        <time>2015-12-03T14:13:10Z</time>
      </trkpt>
      <trkpt lat="48.08107" lon="-4.20591">
        <ele>112.13098144531</ele>
        <time>2015-12-03T14:13:18Z</time>
      </trkpt>
      <trkpt lat="48.08111" lon="-4.2058">
        <ele>111.16955566406</ele>
        <time>2015-12-03T14:13:25Z</time>
      </trkpt>
      <trkpt lat="48.08115" lon="-4.20569">
        <ele>110.20825195312</ele>
        <time>2015-12-03T14:13:32Z</time>
      </trkpt>
      <trkpt lat="48.08119" lon="-4.20555">
        <ele>110.20825195312</ele>
        <time>2015-12-03T14:13:40Z</time>
      </trkpt>
      <trkpt lat="48.08122" lon="-4.20544">
        <ele>110.68884277344</ele>
        <time>2015-12-03T14:13:46Z</time>
      </trkpt>
      <trkpt lat="48.08126" lon="-4.20528">
        <ele>110.68884277344</ele>
        <time>2015-12-03T14:13:55Z</time>
      </trkpt>
      <trkpt lat="48.08131" lon="-4.20514">
        <ele>110.68884277344</ele>
        <time>2015-12-03T14:14:03Z</time>
      </trkpt>
      <trkpt lat="48.08135" lon="-4.20505">
        <ele>111.65026855469</ele>
        <time>2015-12-03T14:14:09Z</time>
      </trkpt>
      <trkpt lat="48.08139" lon="-4.20496">
        <ele>112.13098144531</ele>
        <time>2015-12-03T14:14:15Z</time>
      </trkpt>
      <trkpt lat="48.08143" lon="-4.20482">
        <ele>112.61157226562</ele>
        <time>2015-12-03T14:14:24Z</time>
      </trkpt>
      <trkpt lat="48.08146" lon="-4.20475">
        <ele>112.61157226562</ele>
        <time>2015-12-03T14:14:29Z</time>
      </trkpt>
      <trkpt lat="48.08149" lon="-4.20465">
        <ele>112.13098144531</ele>
        <time>2015-12-03T14:14:36Z</time>
      </trkpt>
      <trkpt lat="48.08153" lon="-4.20453">
        <ele>111.65026855469</ele>
        <time>2015-12-03T14:14:43Z</time>
      </trkpt>
      <trkpt lat="48.08154" lon="-4.20449">
        <ele>112.61157226562</ele>
        <time>2015-12-03T14:14:46Z</time>
      </trkpt>
      <trkpt lat="48.08157" lon="-4.20439">
        <ele>113.09228515625</ele>
        <time>2015-12-03T14:14:52Z</time>
      </trkpt>
      <trkpt lat="48.0816" lon="-4.2043">
        <ele>113.57299804688</ele>
        <time>2015-12-03T14:14:58Z</time>
      </trkpt>
      <trkpt lat="48.08161" lon="-4.20426">
        <ele>113.09228515625</ele>
        <time>2015-12-03T14:15:00Z</time>
      </trkpt>
      <trkpt lat="48.08164" lon="-4.20416">
        <ele>113.57299804688</ele>
        <time>2015-12-03T14:15:07Z</time>
      </trkpt>
      <trkpt lat="48.08168" lon="-4.20405">
        <ele>115.97619628906</ele>
        <time>2015-12-03T14:15:14Z</time>
      </trkpt>
      <trkpt lat="48.08169" lon="-4.20402">
        <ele>117.41821289062</ele>
        <time>2015-12-03T14:15:16Z</time>
      </trkpt>
      <trkpt lat="48.08171" lon="-4.20392">
        <ele>118.37939453125</ele>
        <time>2015-12-03T14:15:22Z</time>
      </trkpt>
      <trkpt lat="48.08173" lon="-4.20383">
        <ele>116.45678710938</ele>
        <time>2015-12-03T14:15:27Z</time>
      </trkpt>
      <trkpt lat="48.08173" lon="-4.20382">
        <ele>115.49560546875</ele>
        <time>2015-12-03T14:15:28Z</time>
      </trkpt>
      <trkpt lat="48.08175" lon="-4.20376">
        <ele>114.05358886719</ele>
        <time>2015-12-03T14:15:31Z</time>
      </trkpt>
      <trkpt lat="48.08177" lon="-4.20365">
        <ele>112.61157226562</ele>
        <time>2015-12-03T14:15:37Z</time>
      </trkpt>
      <trkpt lat="48.08178" lon="-4.20358">
        <ele>112.61157226562</ele>
        <time>2015-12-03T14:15:41Z</time>
      </trkpt>
      <trkpt lat="48.08181" lon="-4.20347">
        <ele>112.61157226562</ele>
        <time>2015-12-03T14:15:46Z</time>
      </trkpt>
      <trkpt lat="48.08184" lon="-4.20341">
        <ele>114.5341796875</ele>
        <time>2015-12-03T14:15:50Z</time>
      </trkpt>
      <trkpt lat="48.08188" lon="-4.20335">
        <ele>116.45678710938</ele>
        <time>2015-12-03T14:15:54Z</time>
      </trkpt>
      <trkpt lat="48.08191" lon="-4.20323">
        <ele>115.49560546875</ele>
        <time>2015-12-03T14:16:02Z</time>
      </trkpt>
      <trkpt lat="48.08191" lon="-4.20321">
        <ele>115.49560546875</ele>
        <time>2015-12-03T14:16:03Z</time>
      </trkpt>
      <trkpt lat="48.08191" lon="-4.20313">
        <ele>115.01489257812</ele>
        <time>2015-12-03T14:16:08Z</time>
      </trkpt>
      <trkpt lat="48.08185" lon="-4.20306">
        <ele>115.01489257812</ele>
        <time>2015-12-03T14:16:14Z</time>
      </trkpt>
      <trkpt lat="48.08178" lon="-4.203">
        <ele>115.01489257812</ele>
        <time>2015-12-03T14:16:20Z</time>
      </trkpt>
      <trkpt lat="48.0817" lon="-4.20294">
        <ele>114.5341796875</ele>
        <time>2015-12-03T14:16:28Z</time>
      </trkpt>
      <trkpt lat="48.08166" lon="-4.20292">
        <ele>115.01489257812</ele>
        <time>2015-12-03T14:16:31Z</time>
      </trkpt>
      <trkpt lat="48.08161" lon="-4.20285">
        <ele>115.01489257812</ele>
        <time>2015-12-03T14:16:37Z</time>
      </trkpt>
      <trkpt lat="48.08153" lon="-4.2028">
        <ele>112.61157226562</ele>
        <time>2015-12-03T14:16:44Z</time>
      </trkpt>
      <trkpt lat="48.08144" lon="-4.20275">
        <ele>112.13098144531</ele>
        <time>2015-12-03T14:16:52Z</time>
      </trkpt>
      <trkpt lat="48.08135" lon="-4.2027">
        <ele>113.57299804688</ele>
        <time>2015-12-03T14:16:59Z</time>
      </trkpt>
      <trkpt lat="48.08125" lon="-4.20262">
        <ele>114.05358886719</ele>
        <time>2015-12-03T14:17:08Z</time>
      </trkpt>
      <trkpt lat="48.08116" lon="-4.20256">
        <ele>115.01489257812</ele>
        <time>2015-12-03T14:17:15Z</time>
      </trkpt>
      <trkpt lat="48.08107" lon="-4.20249">
        <ele>115.97619628906</ele>
        <time>2015-12-03T14:17:22Z</time>
      </trkpt>
      <trkpt lat="48.081" lon="-4.20244">
        <ele>116.45678710938</ele>
        <time>2015-12-03T14:17:28Z</time>
      </trkpt>
      <trkpt lat="48.08093" lon="-4.2024">
        <ele>117.41821289062</ele>
        <time>2015-12-03T14:17:33Z</time>
      </trkpt>
      <trkpt lat="48.08085" lon="-4.20234">
        <ele>117.89880371094</ele>
        <time>2015-12-03T14:17:39Z</time>
      </trkpt>
      <trkpt lat="48.08078" lon="-4.2023">
        <ele>117.89880371094</ele>
        <time>2015-12-03T14:17:45Z</time>
      </trkpt>
      <trkpt lat="48.08069" lon="-4.20223">
        <ele>117.89880371094</ele>
        <time>2015-12-03T14:17:53Z</time>
      </trkpt>
      <trkpt lat="48.08062" lon="-4.20217">
        <ele>118.37939453125</ele>
        <time>2015-12-03T14:17:59Z</time>
      </trkpt>
      <trkpt lat="48.08055" lon="-4.20213">
        <ele>119.3408203125</ele>
        <time>2015-12-03T14:18:05Z</time>
      </trkpt>
      <trkpt lat="48.08044" lon="-4.20205">
        <ele>120.78283691406</ele>
        <time>2015-12-03T14:18:14Z</time>
      </trkpt>
      <trkpt lat="48.08034" lon="-4.20197">
        <ele>121.744140625</ele>
        <time>2015-12-03T14:18:22Z</time>
      </trkpt>
      <trkpt lat="48.08025" lon="-4.2019">
        <ele>122.70544433594</ele>
        <time>2015-12-03T14:18:29Z</time>
      </trkpt>
      <trkpt lat="48.08016" lon="-4.20184">
        <ele>123.18615722656</ele>
        <time>2015-12-03T14:18:36Z</time>
      </trkpt>
      <trkpt lat="48.08006" lon="-4.20175">
        <ele>124.14733886719</ele>
        <time>2015-12-03T14:18:45Z</time>
      </trkpt>
      <trkpt lat="48.07996" lon="-4.20166">
        <ele>125.10876464844</ele>
        <time>2015-12-03T14:18:53Z</time>
      </trkpt>
      <trkpt lat="48.0799" lon="-4.20159">
        <ele>126.06994628906</ele>
        <time>2015-12-03T14:18:59Z</time>
      </trkpt>
      <trkpt lat="48.07982" lon="-4.2015">
        <ele>125.58935546875</ele>
        <time>2015-12-03T14:19:07Z</time>
      </trkpt>
      <trkpt lat="48.07975" lon="-4.20142">
        <ele>125.10876464844</ele>
        <time>2015-12-03T14:19:14Z</time>
      </trkpt>
      <trkpt lat="48.0797" lon="-4.20135">
        <ele>124.62805175781</ele>
        <time>2015-12-03T14:19:20Z</time>
      </trkpt>
      <trkpt lat="48.07964" lon="-4.20128">
        <ele>125.10876464844</ele>
        <time>2015-12-03T14:19:26Z</time>
      </trkpt>
      <trkpt lat="48.0796" lon="-4.20119">
        <ele>125.10876464844</ele>
        <time>2015-12-03T14:19:32Z</time>
      </trkpt>
      <trkpt lat="48.07952" lon="-4.20112">
        <ele>125.10876464844</ele>
        <time>2015-12-03T14:19:40Z</time>
      </trkpt>
      <trkpt lat="48.07951" lon="-4.20111">
        <ele>125.58935546875</ele>
        <time>2015-12-03T14:19:41Z</time>
      </trkpt>
      <trkpt lat="48.0795" lon="-4.20107">
        <ele>126.06994628906</ele>
        <time>2015-12-03T14:19:46Z</time>
      </trkpt>
      <trkpt lat="48.0795" lon="-4.20106">
        <ele>127.51196289062</ele>
        <time>2015-12-03T14:19:50Z</time>
      </trkpt>
      <trkpt lat="48.07951" lon="-4.20105">
        <ele>127.99255371094</ele>
        <time>2015-12-03T14:19:55Z</time>
      </trkpt>
      <trkpt lat="48.07945" lon="-4.20093">
        <ele>126.55065917969</ele>
        <time>2015-12-03T14:20:04Z</time>
      </trkpt>
      <trkpt lat="48.07943" lon="-4.20089">
        <ele>126.55065917969</ele>
        <time>2015-12-03T14:20:07Z</time>
      </trkpt>
      <trkpt lat="48.0794" lon="-4.20083">
        <ele>126.06994628906</ele>
        <time>2015-12-03T14:20:11Z</time>
      </trkpt>
      <trkpt lat="48.07935" lon="-4.20072">
        <ele>123.18615722656</ele>
        <time>2015-12-03T14:20:18Z</time>
      </trkpt>
      <trkpt lat="48.0793" lon="-4.20062">
        <ele>122.70544433594</ele>
        <time>2015-12-03T14:20:24Z</time>
      </trkpt>
      <trkpt lat="48.07928" lon="-4.20058">
        <ele>122.70544433594</ele>
        <time>2015-12-03T14:20:26Z</time>
      </trkpt>
      <trkpt lat="48.07924" lon="-4.20048">
        <ele>122.70544433594</ele>
        <time>2015-12-03T14:20:32Z</time>
      </trkpt>
      <trkpt lat="48.07921" lon="-4.20043">
        <ele>122.22473144531</ele>
        <time>2015-12-03T14:20:35Z</time>
      </trkpt>
      <trkpt lat="48.07918" lon="-4.20035">
        <ele>122.22473144531</ele>
        <time>2015-12-03T14:20:41Z</time>
      </trkpt>
      <trkpt lat="48.07913" lon="-4.20024">
        <ele>123.66674804688</ele>
        <time>2015-12-03T14:20:48Z</time>
      </trkpt>
      <trkpt lat="48.07905" lon="-4.20019">
        <ele>124.14733886719</ele>
        <time>2015-12-03T14:20:55Z</time>
      </trkpt>
      <trkpt lat="48.079" lon="-4.2001">
        <ele>124.62805175781</ele>
        <time>2015-12-03T14:21:02Z</time>
      </trkpt>
      <trkpt lat="48.07903" lon="-4.20001">
        <ele>126.06994628906</ele>
        <time>2015-12-03T14:21:08Z</time>
      </trkpt>
      <trkpt lat="48.07904" lon="-4.19994">
        <ele>127.03137207031</ele>
        <time>2015-12-03T14:21:12Z</time>
      </trkpt>
      <trkpt lat="48.07902" lon="-4.19985">
        <ele>128.9541015625</ele>
        <time>2015-12-03T14:21:17Z</time>
      </trkpt>
      <trkpt lat="48.07895" lon="-4.19973">
        <ele>127.99255371094</ele>
        <time>2015-12-03T14:21:25Z</time>
      </trkpt>
      <trkpt lat="48.07891" lon="-4.19963">
        <ele>127.03137207031</ele>
        <time>2015-12-03T14:21:31Z</time>
      </trkpt>
      <trkpt lat="48.07888" lon="-4.19955">
        <ele>126.55065917969</ele>
        <time>2015-12-03T14:21:36Z</time>
      </trkpt>
      <trkpt lat="48.07883" lon="-4.19944">
        <ele>126.06994628906</ele>
        <time>2015-12-03T14:21:42Z</time>
      </trkpt>
      <trkpt lat="48.0788" lon="-4.19934">
        <ele>125.58935546875</ele>
        <time>2015-12-03T14:21:48Z</time>
      </trkpt>
      <trkpt lat="48.07877" lon="-4.19924">
        <ele>124.62805175781</ele>
        <time>2015-12-03T14:21:53Z</time>
      </trkpt>
      <trkpt lat="48.07875" lon="-4.19916">
        <ele>123.66674804688</ele>
        <time>2015-12-03T14:21:58Z</time>
      </trkpt>
      <trkpt lat="48.07874" lon="-4.19908">
        <ele>124.62805175781</ele>
        <time>2015-12-03T14:22:02Z</time>
      </trkpt>
      <trkpt lat="48.07868" lon="-4.19894">
        <ele>125.58935546875</ele>
        <time>2015-12-03T14:22:11Z</time>
      </trkpt>
      <trkpt lat="48.07865" lon="-4.19886">
        <ele>126.06994628906</ele>
        <time>2015-12-03T14:22:15Z</time>
      </trkpt>
      <trkpt lat="48.07861" lon="-4.19876">
        <ele>127.03137207031</ele>
        <time>2015-12-03T14:22:21Z</time>
      </trkpt>
      <trkpt lat="48.07857" lon="-4.19863">
        <ele>127.03137207031</ele>
        <time>2015-12-03T14:22:29Z</time>
      </trkpt>
      <trkpt lat="48.07853" lon="-4.19853">
        <ele>127.51196289062</ele>
        <time>2015-12-03T14:22:35Z</time>
      </trkpt>
      <trkpt lat="48.07847" lon="-4.19841">
        <ele>127.99255371094</ele>
        <time>2015-12-03T14:22:42Z</time>
      </trkpt>
      <trkpt lat="48.07843" lon="-4.19832">
        <ele>129.91528320312</ele>
        <time>2015-12-03T14:22:48Z</time>
      </trkpt>
      <trkpt lat="48.0784" lon="-4.19824">
        <ele>130.87670898438</ele>
        <time>2015-12-03T14:22:53Z</time>
      </trkpt>
      <trkpt lat="48.07839" lon="-4.19822">
        <ele>130.39599609375</ele>
        <time>2015-12-03T14:22:54Z</time>
      </trkpt>
      <trkpt lat="48.07834" lon="-4.19808">
        <ele>130.39599609375</ele>
        <time>2015-12-03T14:23:02Z</time>
      </trkpt>
      <trkpt lat="48.07831" lon="-4.19804">
        <ele>129.91528320312</ele>
        <time>2015-12-03T14:23:05Z</time>
      </trkpt>
      <trkpt lat="48.07824" lon="-4.19794">
        <ele>129.91528320312</ele>
        <time>2015-12-03T14:23:12Z</time>
      </trkpt>
      <trkpt lat="48.07822" lon="-4.1979">
        <ele>130.39599609375</ele>
        <time>2015-12-03T14:23:15Z</time>
      </trkpt>
      <trkpt lat="48.07821" lon="-4.19787">
        <ele>130.87670898438</ele>
        <time>2015-12-03T14:23:17Z</time>
      </trkpt>
      <trkpt lat="48.07817" lon="-4.19777">
        <ele>131.837890625</ele>
        <time>2015-12-03T14:23:23Z</time>
      </trkpt>
      <trkpt lat="48.07815" lon="-4.19771">
        <ele>131.837890625</ele>
        <time>2015-12-03T14:23:26Z</time>
      </trkpt>
      <trkpt lat="48.0781" lon="-4.19759">
        <ele>131.837890625</ele>
        <time>2015-12-03T14:23:34Z</time>
      </trkpt>
      <trkpt lat="48.07805" lon="-4.19753">
        <ele>132.31860351562</ele>
        <time>2015-12-03T14:23:39Z</time>
      </trkpt>
      <trkpt lat="48.07801" lon="-4.1975">
        <ele>132.79931640625</ele>
        <time>2015-12-03T14:23:42Z</time>
      </trkpt>
      <trkpt lat="48.07802" lon="-4.19741">
        <ele>133.27990722656</ele>
        <time>2015-12-03T14:23:48Z</time>
      </trkpt>
      <trkpt lat="48.07806" lon="-4.1973">
        <ele>133.27990722656</ele>
        <time>2015-12-03T14:23:55Z</time>
      </trkpt>
      <trkpt lat="48.07808" lon="-4.19717">
        <ele>132.79931640625</ele>
        <time>2015-12-03T14:24:02Z</time>
      </trkpt>
      <trkpt lat="48.07808" lon="-4.197">
        <ele>132.79931640625</ele>
        <time>2015-12-03T14:24:11Z</time>
      </trkpt>
      <trkpt lat="48.07809" lon="-4.19685">
        <ele>132.31860351562</ele>
        <time>2015-12-03T14:24:18Z</time>
      </trkpt>
      <trkpt lat="48.0781" lon="-4.19677">
        <ele>130.87670898438</ele>
        <time>2015-12-03T14:24:22Z</time>
      </trkpt>
      <trkpt lat="48.07813" lon="-4.19664">
        <ele>130.39599609375</ele>
        <time>2015-12-03T14:24:28Z</time>
      </trkpt>
      <trkpt lat="48.07811" lon="-4.19653">
        <ele>130.87670898438</ele>
        <time>2015-12-03T14:24:33Z</time>
      </trkpt>
      <trkpt lat="48.07811" lon="-4.19643">
        <ele>128.9541015625</ele>
        <time>2015-12-03T14:24:38Z</time>
      </trkpt>
      <trkpt lat="48.07809" lon="-4.19635">
        <ele>126.55065917969</ele>
        <time>2015-12-03T14:24:43Z</time>
      </trkpt>
      <trkpt lat="48.07808" lon="-4.19624">
        <ele>124.14733886719</ele>
        <time>2015-12-03T14:24:49Z</time>
      </trkpt>
      <trkpt lat="48.07807" lon="-4.19621">
        <ele>124.14733886719</ele>
        <time>2015-12-03T14:24:50Z</time>
      </trkpt>
      <trkpt lat="48.07808" lon="-4.19612">
        <ele>124.14733886719</ele>
        <time>2015-12-03T14:24:55Z</time>
      </trkpt>
      <trkpt lat="48.07808" lon="-4.19594">
        <ele>123.18615722656</ele>
        <time>2015-12-03T14:25:04Z</time>
      </trkpt>
      <trkpt lat="48.07808" lon="-4.1959">
        <ele>122.70544433594</ele>
        <time>2015-12-03T14:25:06Z</time>
      </trkpt>
      <trkpt lat="48.07808" lon="-4.19578">
        <ele>123.18615722656</ele>
        <time>2015-12-03T14:25:12Z</time>
      </trkpt>
      <trkpt lat="48.07808" lon="-4.19571">
        <ele>123.18615722656</ele>
        <time>2015-12-03T14:25:15Z</time>
      </trkpt>
      <trkpt lat="48.07808" lon="-4.19564">
        <ele>123.66674804688</ele>
        <time>2015-12-03T14:25:19Z</time>
      </trkpt>
      <trkpt lat="48.07806" lon="-4.19551">
        <ele>121.744140625</ele>
        <time>2015-12-03T14:25:25Z</time>
      </trkpt>
      <trkpt lat="48.07805" lon="-4.19539">
        <ele>120.78283691406</ele>
        <time>2015-12-03T14:25:31Z</time>
      </trkpt>
      <trkpt lat="48.07805" lon="-4.19537">
        <ele>120.30212402344</ele>
        <time>2015-12-03T14:25:32Z</time>
      </trkpt>
      <trkpt lat="48.07805" lon="-4.19528">
        <ele>121.26354980469</ele>
        <time>2015-12-03T14:25:37Z</time>
      </trkpt>
      <trkpt lat="48.07803" lon="-4.19517">
        <ele>120.78283691406</ele>
        <time>2015-12-03T14:25:42Z</time>
      </trkpt>
      <trkpt lat="48.07803" lon="-4.19506">
        <ele>120.30212402344</ele>
        <time>2015-12-03T14:25:48Z</time>
      </trkpt>
      <trkpt lat="48.07803" lon="-4.195">
        <ele>120.78283691406</ele>
        <time>2015-12-03T14:25:51Z</time>
      </trkpt>
      <trkpt lat="48.07802" lon="-4.19488">
        <ele>121.744140625</ele>
        <time>2015-12-03T14:25:57Z</time>
      </trkpt>
      <trkpt lat="48.07802" lon="-4.19477">
        <ele>123.18615722656</ele>
        <time>2015-12-03T14:26:03Z</time>
      </trkpt>
      <trkpt lat="48.07801" lon="-4.19468">
        <ele>123.18615722656</ele>
        <time>2015-12-03T14:26:08Z</time>
      </trkpt>
      <trkpt lat="48.078" lon="-4.1946">
        <ele>124.14733886719</ele>
        <time>2015-12-03T14:26:12Z</time>
      </trkpt>
      <trkpt lat="48.078" lon="-4.19459">
        <ele>124.62805175781</ele>
        <time>2015-12-03T14:26:13Z</time>
      </trkpt>
      <trkpt lat="48.07803" lon="-4.19445">
        <ele>127.03137207031</ele>
        <time>2015-12-03T14:26:20Z</time>
      </trkpt>
      <trkpt lat="48.07805" lon="-4.19438">
        <ele>127.99255371094</ele>
        <time>2015-12-03T14:26:24Z</time>
      </trkpt>
      <trkpt lat="48.07804" lon="-4.1943">
        <ele>127.51196289062</ele>
        <time>2015-12-03T14:26:28Z</time>
      </trkpt>
      <trkpt lat="48.07806" lon="-4.19414">
        <ele>129.43469238281</ele>
        <time>2015-12-03T14:26:36Z</time>
      </trkpt>
      <trkpt lat="48.07808" lon="-4.19406">
        <ele>132.31860351562</ele>
        <time>2015-12-03T14:26:41Z</time>
      </trkpt>
      <trkpt lat="48.07807" lon="-4.19395">
        <ele>132.31860351562</ele>
        <time>2015-12-03T14:26:46Z</time>
      </trkpt>
      <trkpt lat="48.07809" lon="-4.19388">
        <ele>133.76049804688</ele>
        <time>2015-12-03T14:26:50Z</time>
      </trkpt>
      <trkpt lat="48.07809" lon="-4.19384">
        <ele>134.72192382812</ele>
        <time>2015-12-03T14:26:52Z</time>
      </trkpt>
      <trkpt lat="48.07811" lon="-4.19371">
        <ele>136.64465332031</ele>
        <time>2015-12-03T14:26:59Z</time>
      </trkpt>
      <trkpt lat="48.07812" lon="-4.19359">
        <ele>138.56726074219</ele>
        <time>2015-12-03T14:27:05Z</time>
      </trkpt>
      <trkpt lat="48.07812" lon="-4.19355">
        <ele>139.0478515625</ele>
        <time>2015-12-03T14:27:07Z</time>
      </trkpt>
      <trkpt lat="48.07813" lon="-4.19341">
        <ele>138.08654785156</ele>
        <time>2015-12-03T14:27:15Z</time>
      </trkpt>
      <trkpt lat="48.07812" lon="-4.1933">
        <ele>137.12524414062</ele>
        <time>2015-12-03T14:27:21Z</time>
      </trkpt>
      <trkpt lat="48.07812" lon="-4.1932">
        <ele>136.16394042969</ele>
        <time>2015-12-03T14:27:27Z</time>
      </trkpt>
      <trkpt lat="48.07812" lon="-4.19316">
        <ele>135.68310546875</ele>
        <time>2015-12-03T14:27:29Z</time>
      </trkpt>
      <trkpt lat="48.0781" lon="-4.19314">
        <ele>135.68310546875</ele>
        <time>2015-12-03T14:27:31Z</time>
      </trkpt>
      <trkpt lat="48.0781" lon="-4.19304">
        <ele>136.64465332031</ele>
        <time>2015-12-03T14:27:36Z</time>
      </trkpt>
      <trkpt lat="48.07812" lon="-4.19297">
        <ele>136.64465332031</ele>
        <time>2015-12-03T14:27:40Z</time>
      </trkpt>
      <trkpt lat="48.07812" lon="-4.19292">
        <ele>136.16394042969</ele>
        <time>2015-12-03T14:27:43Z</time>
      </trkpt>
      <trkpt lat="48.07814" lon="-4.19286">
        <ele>136.16394042969</ele>
        <time>2015-12-03T14:27:46Z</time>
      </trkpt>
      <trkpt lat="48.07815" lon="-4.19275">
        <ele>135.68310546875</ele>
        <time>2015-12-03T14:27:52Z</time>
      </trkpt>
      <trkpt lat="48.07816" lon="-4.19266">
        <ele>135.20251464844</ele>
        <time>2015-12-03T14:27:57Z</time>
      </trkpt>
      <trkpt lat="48.0782" lon="-4.1925">
        <ele>135.68310546875</ele>
        <time>2015-12-03T14:28:06Z</time>
      </trkpt>
      <trkpt lat="48.07822" lon="-4.19243">
        <ele>136.64465332031</ele>
        <time>2015-12-03T14:28:11Z</time>
      </trkpt>
      <trkpt lat="48.07827" lon="-4.19246">
        <ele>134.2412109375</ele>
        <time>2015-12-03T14:28:15Z</time>
      </trkpt>
      <trkpt lat="48.07829" lon="-4.19248">
        <ele>132.79931640625</ele>
        <time>2015-12-03T14:28:18Z</time>
      </trkpt>
      <trkpt lat="48.07835" lon="-4.19248">
        <ele>132.79931640625</ele>
        <time>2015-12-03T14:28:23Z</time>
      </trkpt>
      <trkpt lat="48.07839" lon="-4.19243">
        <ele>134.72192382812</ele>
        <time>2015-12-03T14:28:27Z</time>
      </trkpt>
      <trkpt lat="48.07842" lon="-4.19233">
        <ele>136.64465332031</ele>
        <time>2015-12-03T14:28:32Z</time>
      </trkpt>
      <trkpt lat="48.07845" lon="-4.19229">
        <ele>137.60583496094</ele>
        <time>2015-12-03T14:28:35Z</time>
      </trkpt>
      <trkpt lat="48.07845" lon="-4.19217">
        <ele>136.64465332031</ele>
        <time>2015-12-03T14:28:40Z</time>
      </trkpt>
      <trkpt lat="48.07844" lon="-4.19211">
        <ele>136.16394042969</ele>
        <time>2015-12-03T14:28:44Z</time>
      </trkpt>
      <trkpt lat="48.07843" lon="-4.19205">
        <ele>136.16394042969</ele>
        <time>2015-12-03T14:28:47Z</time>
      </trkpt>
      <trkpt lat="48.07842" lon="-4.19198">
        <ele>136.16394042969</ele>
        <time>2015-12-03T14:28:53Z</time>
      </trkpt>
      <trkpt lat="48.07841" lon="-4.19188">
        <ele>135.68310546875</ele>
        <time>2015-12-03T14:28:58Z</time>
      </trkpt>
      <trkpt lat="48.07843" lon="-4.19179">
        <ele>137.12524414062</ele>
        <time>2015-12-03T14:29:03Z</time>
      </trkpt>
      <trkpt lat="48.07842" lon="-4.19175">
        <ele>137.12524414062</ele>
        <time>2015-12-03T14:29:05Z</time>
      </trkpt>
      <trkpt lat="48.0784" lon="-4.19168">
        <ele>135.68310546875</ele>
        <time>2015-12-03T14:29:09Z</time>
      </trkpt>
      <trkpt lat="48.07838" lon="-4.19156">
        <ele>137.12524414062</ele>
        <time>2015-12-03T14:29:15Z</time>
      </trkpt>
      <trkpt lat="48.07838" lon="-4.19146">
        <ele>138.56726074219</ele>
        <time>2015-12-03T14:29:19Z</time>
      </trkpt>
      <trkpt lat="48.07836" lon="-4.19137">
        <ele>138.56726074219</ele>
        <time>2015-12-03T14:29:23Z</time>
      </trkpt>
      <trkpt lat="48.07836" lon="-4.19131">
        <ele>137.60583496094</ele>
        <time>2015-12-03T14:29:27Z</time>
      </trkpt>
      <trkpt lat="48.07835" lon="-4.19127">
        <ele>136.64465332031</ele>
        <time>2015-12-03T14:29:29Z</time>
      </trkpt>
      <trkpt lat="48.07836" lon="-4.19116">
        <ele>133.27990722656</ele>
        <time>2015-12-03T14:29:36Z</time>
      </trkpt>
      <trkpt lat="48.0784" lon="-4.19105">
        <ele>129.91528320312</ele>
        <time>2015-12-03T14:29:43Z</time>
      </trkpt>
      <trkpt lat="48.07838" lon="-4.19097">
        <ele>129.43469238281</ele>
        <time>2015-12-03T14:29:47Z</time>
      </trkpt>
      <trkpt lat="48.07841" lon="-4.19086">
        <ele>127.99255371094</ele>
        <time>2015-12-03T14:29:53Z</time>
      </trkpt>
      <trkpt lat="48.07841" lon="-4.19079">
        <ele>127.03137207031</ele>
        <time>2015-12-03T14:29:59Z</time>
      </trkpt>
      <trkpt lat="48.07841" lon="-4.19072">
        <ele>127.99255371094</ele>
        <time>2015-12-03T14:30:03Z</time>
      </trkpt>
      <trkpt lat="48.07842" lon="-4.19062">
        <ele>127.99255371094</ele>
        <time>2015-12-03T14:30:07Z</time>
      </trkpt>
      <trkpt lat="48.07843" lon="-4.19047">
        <ele>130.39599609375</ele>
        <time>2015-12-03T14:30:14Z</time>
      </trkpt>
      <trkpt lat="48.07842" lon="-4.19037">
        <ele>130.87670898438</ele>
        <time>2015-12-03T14:30:18Z</time>
      </trkpt>
      <trkpt lat="48.07842" lon="-4.1903">
        <ele>130.87670898438</ele>
        <time>2015-12-03T14:30:22Z</time>
      </trkpt>
      <trkpt lat="48.07846" lon="-4.19025">
        <ele>130.87670898438</ele>
        <time>2015-12-03T14:30:25Z</time>
      </trkpt>
      <trkpt lat="48.07847" lon="-4.19014">
        <ele>131.837890625</ele>
        <time>2015-12-03T14:30:30Z</time>
      </trkpt>
      <trkpt lat="48.07847" lon="-4.19008">
        <ele>132.79931640625</ele>
        <time>2015-12-03T14:30:33Z</time>
      </trkpt>
      <trkpt lat="48.07849" lon="-4.18994">
        <ele>130.87670898438</ele>
        <time>2015-12-03T14:30:39Z</time>
      </trkpt>
      <trkpt lat="48.07851" lon="-4.18984">
        <ele>129.43469238281</ele>
        <time>2015-12-03T14:30:44Z</time>
      </trkpt>
      <trkpt lat="48.07855" lon="-4.18978">
        <ele>128.9541015625</ele>
        <time>2015-12-03T14:30:48Z</time>
      </trkpt>
      <trkpt lat="48.07856" lon="-4.18968">
        <ele>128.9541015625</ele>
        <time>2015-12-03T14:30:53Z</time>
      </trkpt>
      <trkpt lat="48.07859" lon="-4.18955">
        <ele>128.47338867188</ele>
        <time>2015-12-03T14:31:00Z</time>
      </trkpt>
      <trkpt lat="48.07859" lon="-4.18941">
        <ele>129.43469238281</ele>
        <time>2015-12-03T14:31:06Z</time>
      </trkpt>
      <trkpt lat="48.0786" lon="-4.18932">
        <ele>129.91528320312</ele>
        <time>2015-12-03T14:31:11Z</time>
      </trkpt>
      <trkpt lat="48.07861" lon="-4.18929">
        <ele>129.91528320312</ele>
        <time>2015-12-03T14:31:13Z</time>
      </trkpt>
      <trkpt lat="48.07862" lon="-4.18921">
        <ele>129.91528320312</ele>
        <time>2015-12-03T14:31:17Z</time>
      </trkpt>
      <trkpt lat="48.07866" lon="-4.18909">
        <ele>131.837890625</ele>
        <time>2015-12-03T14:31:24Z</time>
      </trkpt>
      <trkpt lat="48.07862" lon="-4.18899">
        <ele>134.72192382812</ele>
        <time>2015-12-03T14:31:28Z</time>
      </trkpt>
      <trkpt lat="48.07862" lon="-4.18891">
        <ele>133.27990722656</ele>
        <time>2015-12-03T14:31:33Z</time>
      </trkpt>
      <trkpt lat="48.07862" lon="-4.1887">
        <ele>129.91528320312</ele>
        <time>2015-12-03T14:31:43Z</time>
      </trkpt>
      <trkpt lat="48.07866" lon="-4.18852">
        <ele>123.66674804688</ele>
        <time>2015-12-03T14:31:52Z</time>
      </trkpt>
      <trkpt lat="48.07867" lon="-4.18835">
        <ele>121.26354980469</ele>
        <time>2015-12-03T14:32:00Z</time>
      </trkpt>
      <trkpt lat="48.07869" lon="-4.18813">
        <ele>118.86010742188</ele>
        <time>2015-12-03T14:32:10Z</time>
      </trkpt>
      <trkpt lat="48.07871" lon="-4.18789">
        <ele>116.45678710938</ele>
        <time>2015-12-03T14:32:22Z</time>
      </trkpt>
      <trkpt lat="48.07875" lon="-4.18769">
        <ele>115.01489257812</ele>
        <time>2015-12-03T14:32:33Z</time>
      </trkpt>
      <trkpt lat="48.07883" lon="-4.18764">
        <ele>113.57299804688</ele>
        <time>2015-12-03T14:32:41Z</time>
      </trkpt>
      <trkpt lat="48.07892" lon="-4.18773">
        <ele>112.13098144531</ele>
        <time>2015-12-03T14:32:50Z</time>
      </trkpt>
      <trkpt lat="48.07895" lon="-4.18777">
        <ele>111.65026855469</ele>
        <time>2015-12-03T14:32:53Z</time>
      </trkpt>
      <trkpt lat="48.07903" lon="-4.18784">
        <ele>111.65026855469</ele>
        <time>2015-12-03T14:33:00Z</time>
      </trkpt>
      <trkpt lat="48.07914" lon="-4.18792">
        <ele>111.65026855469</ele>
        <time>2015-12-03T14:33:09Z</time>
      </trkpt>
      <trkpt lat="48.07924" lon="-4.188">
        <ele>111.16955566406</ele>
        <time>2015-12-03T14:33:18Z</time>
      </trkpt>
      <trkpt lat="48.07932" lon="-4.18806">
        <ele>110.20825195312</ele>
        <time>2015-12-03T14:33:25Z</time>
      </trkpt>
      <trkpt lat="48.07945" lon="-4.18816">
        <ele>110.20825195312</ele>
        <time>2015-12-03T14:33:36Z</time>
      </trkpt>
      <trkpt lat="48.07955" lon="-4.18825">
        <ele>109.72766113281</ele>
        <time>2015-12-03T14:33:45Z</time>
      </trkpt>
      <trkpt lat="48.07967" lon="-4.18835">
        <ele>109.72766113281</ele>
        <time>2015-12-03T14:33:55Z</time>
      </trkpt>
      <trkpt lat="48.07975" lon="-4.18845">
        <ele>109.24694824219</ele>
        <time>2015-12-03T14:34:03Z</time>
      </trkpt>
      <trkpt lat="48.07986" lon="-4.18853">
        <ele>108.76623535156</ele>
        <time>2015-12-03T14:34:12Z</time>
      </trkpt>
      <trkpt lat="48.07992" lon="-4.18859">
        <ele>106.84362792969</ele>
        <time>2015-12-03T14:34:18Z</time>
      </trkpt>
      <trkpt lat="48.07996" lon="-4.18865">
        <ele>105.88244628906</ele>
        <time>2015-12-03T14:34:22Z</time>
      </trkpt>
      <trkpt lat="48.08" lon="-4.18871">
        <ele>103.95971679688</ele>
        <time>2015-12-03T14:34:27Z</time>
      </trkpt>
      <trkpt lat="48.08004" lon="-4.18877">
        <ele>103.95971679688</ele>
        <time>2015-12-03T14:34:31Z</time>
      </trkpt>
      <trkpt lat="48.0801" lon="-4.18884">
        <ele>103.95971679688</ele>
        <time>2015-12-03T14:34:37Z</time>
      </trkpt>
      <trkpt lat="48.08021" lon="-4.18892">
        <ele>104.4404296875</ele>
        <time>2015-12-03T14:34:45Z</time>
      </trkpt>
      <trkpt lat="48.08028" lon="-4.18898">
        <ele>106.36303710938</ele>
        <time>2015-12-03T14:34:51Z</time>
      </trkpt>
      <trkpt lat="48.08036" lon="-4.18903">
        <ele>106.36303710938</ele>
        <time>2015-12-03T14:34:57Z</time>
      </trkpt>
      <trkpt lat="48.08047" lon="-4.18907">
        <ele>105.88244628906</ele>
        <time>2015-12-03T14:35:05Z</time>
      </trkpt>
      <trkpt lat="48.08063" lon="-4.18913">
        <ele>107.32434082031</ele>
        <time>2015-12-03T14:35:16Z</time>
      </trkpt>
      <trkpt lat="48.0808" lon="-4.18919">
        <ele>107.80505371094</ele>
        <time>2015-12-03T14:35:28Z</time>
      </trkpt>
      <trkpt lat="48.08092" lon="-4.18926">
        <ele>108.76623535156</ele>
        <time>2015-12-03T14:35:38Z</time>
      </trkpt>
      <trkpt lat="48.08106" lon="-4.18927">
        <ele>109.72766113281</ele>
        <time>2015-12-03T14:35:49Z</time>
      </trkpt>
      <trkpt lat="48.0812" lon="-4.18924">
        <ele>111.16955566406</ele>
        <time>2015-12-03T14:35:59Z</time>
      </trkpt>
      <trkpt lat="48.08133" lon="-4.18917">
        <ele>111.16955566406</ele>
        <time>2015-12-03T14:36:09Z</time>
      </trkpt>
      <trkpt lat="48.08142" lon="-4.18911">
        <ele>111.16955566406</ele>
        <time>2015-12-03T14:36:15Z</time>
      </trkpt>
      <trkpt lat="48.08152" lon="-4.18904">
        <ele>113.09228515625</ele>
        <time>2015-12-03T14:36:23Z</time>
      </trkpt>
      <trkpt lat="48.08159" lon="-4.18898">
        <ele>114.5341796875</ele>
        <time>2015-12-03T14:36:28Z</time>
      </trkpt>
      <trkpt lat="48.08168" lon="-4.18888">
        <ele>115.49560546875</ele>
        <time>2015-12-03T14:36:36Z</time>
      </trkpt>
      <trkpt lat="48.08179" lon="-4.18874">
        <ele>115.49560546875</ele>
        <time>2015-12-03T14:36:46Z</time>
      </trkpt>
      <trkpt lat="48.08187" lon="-4.18864">
        <ele>117.41821289062</ele>
        <time>2015-12-03T14:36:53Z</time>
      </trkpt>
      <trkpt lat="48.0819" lon="-4.18857">
        <ele>117.41821289062</ele>
        <time>2015-12-03T14:36:57Z</time>
      </trkpt>
      <trkpt lat="48.08197" lon="-4.18845">
        <ele>119.82141113281</ele>
        <time>2015-12-03T14:37:04Z</time>
      </trkpt>
      <trkpt lat="48.08197" lon="-4.18843">
        <ele>119.82141113281</ele>
        <time>2015-12-03T14:37:05Z</time>
      </trkpt>
      <trkpt lat="48.08201" lon="-4.18837">
        <ele>121.744140625</ele>
        <time>2015-12-03T14:37:09Z</time>
      </trkpt>
      <trkpt lat="48.08202" lon="-4.18828">
        <ele>123.66674804688</ele>
        <time>2015-12-03T14:37:13Z</time>
      </trkpt>
      <trkpt lat="48.08206" lon="-4.18812">
        <ele>122.70544433594</ele>
        <time>2015-12-03T14:37:21Z</time>
      </trkpt>
      <trkpt lat="48.0821" lon="-4.18794">
        <ele>121.26354980469</ele>
        <time>2015-12-03T14:37:30Z</time>
      </trkpt>
      <trkpt lat="48.08213" lon="-4.18781">
        <ele>119.3408203125</ele>
        <time>2015-12-03T14:37:37Z</time>
      </trkpt>
      <trkpt lat="48.08218" lon="-4.18765">
        <ele>119.3408203125</ele>
        <time>2015-12-03T14:37:45Z</time>
      </trkpt>
      <trkpt lat="48.0822" lon="-4.18751">
        <ele>116.45678710938</ele>
        <time>2015-12-03T14:37:52Z</time>
      </trkpt>
      <trkpt lat="48.08225" lon="-4.18734">
        <ele>116.45678710938</ele>
        <time>2015-12-03T14:38:01Z</time>
      </trkpt>
      <trkpt lat="48.08229" lon="-4.18717">
        <ele>115.49560546875</ele>
        <time>2015-12-03T14:38:10Z</time>
      </trkpt>
      <trkpt lat="48.08233" lon="-4.18704">
        <ele>115.01489257812</ele>
        <time>2015-12-03T14:38:17Z</time>
      </trkpt>
      <trkpt lat="48.08242" lon="-4.18689">
        <ele>122.70544433594</ele>
        <time>2015-12-03T14:38:25Z</time>
      </trkpt>
      <trkpt lat="48.08254" lon="-4.18675">
        <ele>133.27990722656</ele>
        <time>2015-12-03T14:38:33Z</time>
      </trkpt>
      <trkpt lat="48.0826" lon="-4.18656">
        <ele>126.06994628906</ele>
        <time>2015-12-03T14:38:44Z</time>
      </trkpt>
      <trkpt lat="48.08265" lon="-4.18645">
        <ele>121.26354980469</ele>
        <time>2015-12-03T14:38:51Z</time>
      </trkpt>
      <trkpt lat="48.0827" lon="-4.18631">
        <ele>114.5341796875</ele>
        <time>2015-12-03T14:39:01Z</time>
      </trkpt>
      <trkpt lat="48.08281" lon="-4.18617">
        <ele>114.5341796875</ele>
        <time>2015-12-03T14:39:12Z</time>
      </trkpt>
      <trkpt lat="48.08291" lon="-4.18605">
        <ele>116.9375</ele>
        <time>2015-12-03T14:39:21Z</time>
      </trkpt>
      <trkpt lat="48.08298" lon="-4.18592">
        <ele>116.45678710938</ele>
        <time>2015-12-03T14:39:30Z</time>
      </trkpt>
      <trkpt lat="48.08303" lon="-4.18576">
        <ele>115.01489257812</ele>
        <time>2015-12-03T14:39:39Z</time>
      </trkpt>
      <trkpt lat="48.08306" lon="-4.18558">
        <ele>115.49560546875</ele>
        <time>2015-12-03T14:39:48Z</time>
      </trkpt>
      <trkpt lat="48.08311" lon="-4.18536">
        <ele>117.41821289062</ele>
        <time>2015-12-03T14:39:59Z</time>
      </trkpt>
      <trkpt lat="48.08313" lon="-4.18523">
        <ele>118.86010742188</ele>
        <time>2015-12-03T14:40:06Z</time>
      </trkpt>
      <trkpt lat="48.08316" lon="-4.1851">
        <ele>119.82141113281</ele>
        <time>2015-12-03T14:40:14Z</time>
      </trkpt>
      <trkpt lat="48.08317" lon="-4.18507">
        <ele>119.82141113281</ele>
        <time>2015-12-03T14:40:16Z</time>
      </trkpt>
      <trkpt lat="48.08322" lon="-4.185">
        <ele>119.3408203125</ele>
        <time>2015-12-03T14:40:22Z</time>
      </trkpt>
      <trkpt lat="48.08326" lon="-4.18493">
        <ele>118.86010742188</ele>
        <time>2015-12-03T14:40:28Z</time>
      </trkpt>
      <trkpt lat="48.08331" lon="-4.18484">
        <ele>117.41821289062</ele>
        <time>2015-12-03T14:40:35Z</time>
      </trkpt>
      <trkpt lat="48.08339" lon="-4.18473">
        <ele>116.45678710938</ele>
        <time>2015-12-03T14:40:44Z</time>
      </trkpt>
      <trkpt lat="48.08341" lon="-4.18468">
        <ele>116.45678710938</ele>
        <time>2015-12-03T14:40:47Z</time>
      </trkpt>
      <trkpt lat="48.08344" lon="-4.18464">
        <ele>116.9375</ele>
        <time>2015-12-03T14:40:50Z</time>
      </trkpt>
      <trkpt lat="48.08352" lon="-4.18451">
        <ele>117.89880371094</ele>
        <time>2015-12-03T14:40:59Z</time>
      </trkpt>
      <trkpt lat="48.08356" lon="-4.1844">
        <ele>116.9375</ele>
        <time>2015-12-03T14:41:05Z</time>
      </trkpt>
      <trkpt lat="48.08363" lon="-4.18424">
        <ele>114.5341796875</ele>
        <time>2015-12-03T14:41:14Z</time>
      </trkpt>
      <trkpt lat="48.08364" lon="-4.18423">
        <ele>114.5341796875</ele>
        <time>2015-12-03T14:41:15Z</time>
      </trkpt>
      <trkpt lat="48.08369" lon="-4.18411">
        <ele>113.57299804688</ele>
        <time>2015-12-03T14:41:22Z</time>
      </trkpt>
      <trkpt lat="48.08375" lon="-4.18397">
        <ele>114.05358886719</ele>
        <time>2015-12-03T14:41:30Z</time>
      </trkpt>
      <trkpt lat="48.08381" lon="-4.18387">
        <ele>113.09228515625</ele>
        <time>2015-12-03T14:41:37Z</time>
      </trkpt>
      <trkpt lat="48.08388" lon="-4.18384">
        <ele>113.09228515625</ele>
        <time>2015-12-03T14:41:44Z</time>
      </trkpt>
      <trkpt lat="48.08398" lon="-4.18384">
        <ele>113.57299804688</ele>
        <time>2015-12-03T14:41:51Z</time>
      </trkpt>
      <trkpt lat="48.0841" lon="-4.18386">
        <ele>115.97619628906</ele>
        <time>2015-12-03T14:42:02Z</time>
      </trkpt>
      <trkpt lat="48.08422" lon="-4.18386">
        <ele>116.45678710938</ele>
        <time>2015-12-03T14:42:11Z</time>
      </trkpt>
      <trkpt lat="48.08431" lon="-4.18385">
        <ele>116.45678710938</ele>
        <time>2015-12-03T14:42:19Z</time>
      </trkpt>
      <trkpt lat="48.08443" lon="-4.18385">
        <ele>117.41821289062</ele>
        <time>2015-12-03T14:42:28Z</time>
      </trkpt>
      <trkpt lat="48.08459" lon="-4.18384">
        <ele>118.37939453125</ele>
        <time>2015-12-03T14:42:39Z</time>
      </trkpt>
      <trkpt lat="48.08467" lon="-4.18384">
        <ele>119.3408203125</ele>
        <time>2015-12-03T14:42:45Z</time>
      </trkpt>
      <trkpt lat="48.08476" lon="-4.18383">
        <ele>120.30212402344</ele>
        <time>2015-12-03T14:42:51Z</time>
      </trkpt>
      <trkpt lat="48.08487" lon="-4.18384">
        <ele>123.18615722656</ele>
        <time>2015-12-03T14:42:59Z</time>
      </trkpt>
      <trkpt lat="48.08495" lon="-4.18385">
        <ele>125.10876464844</ele>
        <time>2015-12-03T14:43:06Z</time>
      </trkpt>
      <trkpt lat="48.08497" lon="-4.18385">
        <ele>125.10876464844</ele>
        <time>2015-12-03T14:43:07Z</time>
      </trkpt>
      <trkpt lat="48.08505" lon="-4.18388">
        <ele>127.51196289062</ele>
        <time>2015-12-03T14:43:13Z</time>
      </trkpt>
      <trkpt lat="48.08512" lon="-4.18394">
        <ele>128.47338867188</ele>
        <time>2015-12-03T14:43:20Z</time>
      </trkpt>
      <trkpt lat="48.08516" lon="-4.18398">
        <ele>129.43469238281</ele>
        <time>2015-12-03T14:43:24Z</time>
      </trkpt>
      <trkpt lat="48.08516" lon="-4.18397">
        <ele>128.9541015625</ele>
        <time>2015-12-03T14:43:32Z</time>
      </trkpt>
      <trkpt lat="48.08516" lon="-4.18394">
        <ele>129.43469238281</ele>
        <time>2015-12-03T14:43:36Z</time>
      </trkpt>
      <trkpt lat="48.08521" lon="-4.18399">
        <ele>129.43469238281</ele>
        <time>2015-12-03T14:43:41Z</time>
      </trkpt>
      <trkpt lat="48.08526" lon="-4.18404">
        <ele>130.39599609375</ele>
        <time>2015-12-03T14:43:48Z</time>
      </trkpt>
      <trkpt lat="48.08529" lon="-4.18407">
        <ele>130.87670898438</ele>
        <time>2015-12-03T14:43:54Z</time>
      </trkpt>
      <trkpt lat="48.08534" lon="-4.18412">
        <ele>131.35729980469</ele>
        <time>2015-12-03T14:44:00Z</time>
      </trkpt>
      <trkpt lat="48.08539" lon="-4.18416">
        <ele>132.79931640625</ele>
        <time>2015-12-03T14:44:05Z</time>
      </trkpt>
      <trkpt lat="48.08546" lon="-4.18423">
        <ele>133.27990722656</ele>
        <time>2015-12-03T14:44:12Z</time>
      </trkpt>
      <trkpt lat="48.08554" lon="-4.1843">
        <ele>134.2412109375</ele>
        <time>2015-12-03T14:44:20Z</time>
      </trkpt>
      <trkpt lat="48.08561" lon="-4.18438">
        <ele>136.16394042969</ele>
        <time>2015-12-03T14:44:27Z</time>
      </trkpt>
      <trkpt lat="48.08568" lon="-4.18444">
        <ele>136.64465332031</ele>
        <time>2015-12-03T14:44:34Z</time>
      </trkpt>
      <trkpt lat="48.08573" lon="-4.18449">
        <ele>137.12524414062</ele>
        <time>2015-12-03T14:44:39Z</time>
      </trkpt>
      <trkpt lat="48.08578" lon="-4.18454">
        <ele>138.08654785156</ele>
        <time>2015-12-03T14:44:44Z</time>
      </trkpt>
      <trkpt lat="48.08583" lon="-4.18459">
        <ele>139.0478515625</ele>
        <time>2015-12-03T14:44:49Z</time>
      </trkpt>
      <trkpt lat="48.08586" lon="-4.18462">
        <ele>140.00915527344</ele>
        <time>2015-12-03T14:44:52Z</time>
      </trkpt>
      <trkpt lat="48.08594" lon="-4.18468">
        <ele>140.00915527344</ele>
        <time>2015-12-03T14:44:59Z</time>
      </trkpt>
      <trkpt lat="48.08597" lon="-4.18469">
        <ele>139.52844238281</ele>
        <time>2015-12-03T14:45:04Z</time>
      </trkpt>
      <trkpt lat="48.08601" lon="-4.1847">
        <ele>139.52844238281</ele>
        <time>2015-12-03T14:45:07Z</time>
      </trkpt>
      <trkpt lat="48.08608" lon="-4.18467">
        <ele>139.52844238281</ele>
        <time>2015-12-03T14:45:14Z</time>
      </trkpt>
      <trkpt lat="48.08608" lon="-4.18466">
        <ele>139.52844238281</ele>
        <time>2015-12-03T14:45:20Z</time>
      </trkpt>
      <trkpt lat="48.08611" lon="-4.18463">
        <ele>139.52844238281</ele>
        <time>2015-12-03T14:45:26Z</time>
      </trkpt>
      <trkpt lat="48.08614" lon="-4.18454">
        <ele>140.00915527344</ele>
        <time>2015-12-03T14:45:32Z</time>
      </trkpt>
      <trkpt lat="48.08614" lon="-4.18452">
        <ele>140.00915527344</ele>
        <time>2015-12-03T14:45:33Z</time>
      </trkpt>
      <trkpt lat="48.08617" lon="-4.18441">
        <ele>140.97045898438</ele>
        <time>2015-12-03T14:45:40Z</time>
      </trkpt>
      <trkpt lat="48.08619" lon="-4.18428">
        <ele>141.93176269531</ele>
        <time>2015-12-03T14:45:47Z</time>
      </trkpt>
      <trkpt lat="48.0862" lon="-4.18418">
        <ele>142.89306640625</ele>
        <time>2015-12-03T14:45:53Z</time>
      </trkpt>
      <trkpt lat="48.08622" lon="-4.18407">
        <ele>143.85437011719</ele>
        <time>2015-12-03T14:46:00Z</time>
      </trkpt>
      <trkpt lat="48.08623" lon="-4.18394">
        <ele>144.33520507812</ele>
        <time>2015-12-03T14:46:07Z</time>
      </trkpt>
      <trkpt lat="48.08625" lon="-4.18382">
        <ele>145.29638671875</ele>
        <time>2015-12-03T14:46:14Z</time>
      </trkpt>
      <trkpt lat="48.08627" lon="-4.1837">
        <ele>147.21899414062</ele>
        <time>2015-12-03T14:46:21Z</time>
      </trkpt>
      <trkpt lat="48.08628" lon="-4.18357">
        <ele>149.1416015625</ele>
        <time>2015-12-03T14:46:29Z</time>
      </trkpt>
      <trkpt lat="48.0863" lon="-4.18343">
        <ele>150.58361816406</ele>
        <time>2015-12-03T14:46:37Z</time>
      </trkpt>
      <trkpt lat="48.0863" lon="-4.18334">
        <ele>150.58361816406</ele>
        <time>2015-12-03T14:46:42Z</time>
      </trkpt>
      <trkpt lat="48.0863" lon="-4.1832">
        <ele>151.06420898438</ele>
        <time>2015-12-03T14:46:49Z</time>
      </trkpt>
      <trkpt lat="48.0863" lon="-4.18313">
        <ele>151.544921875</ele>
        <time>2015-12-03T14:46:53Z</time>
      </trkpt>
      <trkpt lat="48.08629" lon="-4.18301">
        <ele>151.544921875</ele>
        <time>2015-12-03T14:46:59Z</time>
      </trkpt>
      <trkpt lat="48.08629" lon="-4.18292">
        <ele>151.06420898438</ele>
        <time>2015-12-03T14:47:04Z</time>
      </trkpt>
      <trkpt lat="48.08628" lon="-4.18279">
        <ele>152.02575683594</ele>
        <time>2015-12-03T14:47:11Z</time>
      </trkpt>
      <trkpt lat="48.08628" lon="-4.18275">
        <ele>151.06420898438</ele>
        <time>2015-12-03T14:47:13Z</time>
      </trkpt>
      <trkpt lat="48.08626" lon="-4.18264">
        <ele>149.1416015625</ele>
        <time>2015-12-03T14:47:19Z</time>
      </trkpt>
      <trkpt lat="48.08626" lon="-4.18258">
        <ele>148.66101074219</ele>
        <time>2015-12-03T14:47:22Z</time>
      </trkpt>
      <trkpt lat="48.08626" lon="-4.18247">
        <ele>148.66101074219</ele>
        <time>2015-12-03T14:47:28Z</time>
      </trkpt>
      <trkpt lat="48.08626" lon="-4.18245">
        <ele>149.1416015625</ele>
        <time>2015-12-03T14:47:29Z</time>
      </trkpt>
      <trkpt lat="48.08627" lon="-4.18235">
        <ele>149.62231445312</ele>
        <time>2015-12-03T14:47:34Z</time>
      </trkpt>
      <trkpt lat="48.08627" lon="-4.1822">
        <ele>151.06420898438</ele>
        <time>2015-12-03T14:47:42Z</time>
      </trkpt>
      <trkpt lat="48.08627" lon="-4.18208">
        <ele>152.02575683594</ele>
        <time>2015-12-03T14:47:48Z</time>
      </trkpt>
      <trkpt lat="48.08626" lon="-4.18205">
        <ele>152.02575683594</ele>
        <time>2015-12-03T14:47:50Z</time>
      </trkpt>
      <trkpt lat="48.08625" lon="-4.18196">
        <ele>152.02575683594</ele>
        <time>2015-12-03T14:47:54Z</time>
      </trkpt>
      <trkpt lat="48.08624" lon="-4.18183">
        <ele>151.544921875</ele>
        <time>2015-12-03T14:48:01Z</time>
      </trkpt>
      <trkpt lat="48.08624" lon="-4.18181">
        <ele>151.544921875</ele>
        <time>2015-12-03T14:48:02Z</time>
      </trkpt>
      <trkpt lat="48.08625" lon="-4.18168">
        <ele>151.544921875</ele>
        <time>2015-12-03T14:48:09Z</time>
      </trkpt>
      <trkpt lat="48.08625" lon="-4.18164">
        <ele>151.06420898438</ele>
        <time>2015-12-03T14:48:11Z</time>
      </trkpt>
      <trkpt lat="48.08625" lon="-4.18152">
        <ele>151.544921875</ele>
        <time>2015-12-03T14:48:17Z</time>
      </trkpt>
      <trkpt lat="48.08625" lon="-4.18143">
        <ele>151.544921875</ele>
        <time>2015-12-03T14:48:22Z</time>
      </trkpt>
      <trkpt lat="48.08626" lon="-4.18139">
        <ele>151.544921875</ele>
        <time>2015-12-03T14:48:24Z</time>
      </trkpt>
      <trkpt lat="48.08625" lon="-4.18129">
        <ele>152.98693847656</ele>
        <time>2015-12-03T14:48:30Z</time>
      </trkpt>
      <trkpt lat="48.08626" lon="-4.18114">
        <ele>153.46765136719</ele>
        <time>2015-12-03T14:48:38Z</time>
      </trkpt>
      <trkpt lat="48.08627" lon="-4.18105">
        <ele>154.42895507812</ele>
        <time>2015-12-03T14:48:43Z</time>
      </trkpt>
      <trkpt lat="48.08627" lon="-4.18103">
        <ele>154.90954589844</ele>
        <time>2015-12-03T14:48:44Z</time>
      </trkpt>
      <trkpt lat="48.08628" lon="-4.18089">
        <ele>154.42895507812</ele>
        <time>2015-12-03T14:48:52Z</time>
      </trkpt>
      <trkpt lat="48.0863" lon="-4.18073">
        <ele>153.46765136719</ele>
        <time>2015-12-03T14:49:00Z</time>
      </trkpt>
      <trkpt lat="48.08631" lon="-4.18058">
        <ele>152.50634765625</ele>
        <time>2015-12-03T14:49:08Z</time>
      </trkpt>
      <trkpt lat="48.08634" lon="-4.18042">
        <ele>152.02575683594</ele>
        <time>2015-12-03T14:49:17Z</time>
      </trkpt>
      <trkpt lat="48.08636" lon="-4.1803">
        <ele>152.98693847656</ele>
        <time>2015-12-03T14:49:23Z</time>
      </trkpt>
      <trkpt lat="48.08638" lon="-4.18019">
        <ele>154.42895507812</ele>
        <time>2015-12-03T14:49:29Z</time>
      </trkpt>
      <trkpt lat="48.08639" lon="-4.18017">
        <ele>154.90954589844</ele>
        <time>2015-12-03T14:49:30Z</time>
      </trkpt>
      <trkpt lat="48.08641" lon="-4.18002">
        <ele>157.31286621094</ele>
        <time>2015-12-03T14:49:38Z</time>
      </trkpt>
      <trkpt lat="48.08646" lon="-4.1799">
        <ele>160.19689941406</ele>
        <time>2015-12-03T14:49:45Z</time>
      </trkpt>
      <trkpt lat="48.08648" lon="-4.17983">
        <ele>161.158203125</ele>
        <time>2015-12-03T14:49:50Z</time>
      </trkpt>
      <trkpt lat="48.08654" lon="-4.17974">
        <ele>162.11950683594</ele>
        <time>2015-12-03T14:49:57Z</time>
      </trkpt>
      <trkpt lat="48.08659" lon="-4.17968">
        <ele>162.11950683594</ele>
        <time>2015-12-03T14:50:04Z</time>
      </trkpt>
      <trkpt lat="48.08666" lon="-4.17965">
        <ele>163.5615234375</ele>
        <time>2015-12-03T14:50:11Z</time>
      </trkpt>
      <trkpt lat="48.08674" lon="-4.17963">
        <ele>165.48413085938</ele>
        <time>2015-12-03T14:50:18Z</time>
      </trkpt>
      <trkpt lat="48.08682" lon="-4.17962">
        <ele>167.40673828125</ele>
        <time>2015-12-03T14:50:25Z</time>
      </trkpt>
      <trkpt lat="48.08688" lon="-4.17961">
        <ele>167.88732910156</ele>
        <time>2015-12-03T14:50:31Z</time>
      </trkpt>
      <trkpt lat="48.08694" lon="-4.1796">
        <ele>168.36804199219</ele>
        <time>2015-12-03T14:50:37Z</time>
      </trkpt>
      <trkpt lat="48.087" lon="-4.1796">
        <ele>168.84875488281</ele>
        <time>2015-12-03T14:50:43Z</time>
      </trkpt>
      <trkpt lat="48.08707" lon="-4.1796">
        <ele>169.81005859375</ele>
        <time>2015-12-03T14:50:49Z</time>
      </trkpt>
      <trkpt lat="48.08715" lon="-4.17958">
        <ele>170.77136230469</ele>
        <time>2015-12-03T14:50:56Z</time>
      </trkpt>
      <trkpt lat="48.08718" lon="-4.17959">
        <ele>170.77136230469</ele>
        <time>2015-12-03T14:51:01Z</time>
      </trkpt>
      <trkpt lat="48.08724" lon="-4.17959">
        <ele>171.25207519531</ele>
        <time>2015-12-03T14:51:07Z</time>
      </trkpt>
      <trkpt lat="48.08726" lon="-4.17959">
        <ele>171.25207519531</ele>
        <time>2015-12-03T14:51:08Z</time>
      </trkpt>
      <trkpt lat="48.08731" lon="-4.1796">
        <ele>172.21325683594</ele>
        <time>2015-12-03T14:51:12Z</time>
      </trkpt>
      <trkpt lat="48.08732" lon="-4.17962">
        <ele>172.69396972656</ele>
        <time>2015-12-03T14:51:14Z</time>
      </trkpt>
      <trkpt lat="48.08734" lon="-4.17965">
        <ele>173.6552734375</ele>
        <time>2015-12-03T14:51:17Z</time>
      </trkpt>
      <trkpt lat="48.08739" lon="-4.17973">
        <ele>174.61657714844</ele>
        <time>2015-12-03T14:51:24Z</time>
      </trkpt>
      <trkpt lat="48.08743" lon="-4.17978">
        <ele>173.6552734375</ele>
        <time>2015-12-03T14:51:29Z</time>
      </trkpt>
      <trkpt lat="48.08743" lon="-4.17979">
        <ele>173.6552734375</ele>
        <time>2015-12-03T14:51:30Z</time>
      </trkpt>
      <trkpt lat="48.08749" lon="-4.17989">
        <ele>172.69396972656</ele>
        <time>2015-12-03T14:51:38Z</time>
      </trkpt>
      <trkpt lat="48.08751" lon="-4.17995">
        <ele>173.17468261719</ele>
        <time>2015-12-03T14:51:42Z</time>
      </trkpt>
      <trkpt lat="48.08752" lon="-4.18002">
        <ele>173.6552734375</ele>
        <time>2015-12-03T14:51:46Z</time>
      </trkpt>
      <trkpt lat="48.08753" lon="-4.18014">
        <ele>174.61657714844</ele>
        <time>2015-12-03T14:51:53Z</time>
      </trkpt>
      <trkpt lat="48.08754" lon="-4.18031">
        <ele>174.61657714844</ele>
        <time>2015-12-03T14:52:02Z</time>
      </trkpt>
      <trkpt lat="48.08755" lon="-4.18045">
        <ele>174.13586425781</ele>
        <time>2015-12-03T14:52:09Z</time>
      </trkpt>
      <trkpt lat="48.08756" lon="-4.18053">
        <ele>174.61657714844</ele>
        <time>2015-12-03T14:52:13Z</time>
      </trkpt>
      <trkpt lat="48.08757" lon="-4.18074">
        <ele>174.61657714844</ele>
        <time>2015-12-03T14:52:24Z</time>
      </trkpt>
      <trkpt lat="48.08757" lon="-4.18089">
        <ele>174.61657714844</ele>
        <time>2015-12-03T14:52:31Z</time>
      </trkpt>
      <trkpt lat="48.08758" lon="-4.18103">
        <ele>174.61657714844</ele>
        <time>2015-12-03T14:52:38Z</time>
      </trkpt>
      <trkpt lat="48.08759" lon="-4.18116">
        <ele>175.57788085938</ele>
        <time>2015-12-03T14:52:45Z</time>
      </trkpt>
      <trkpt lat="48.0876" lon="-4.18127">
        <ele>176.05859375</ele>
        <time>2015-12-03T14:52:51Z</time>
      </trkpt>
      <trkpt lat="48.08761" lon="-4.18138">
        <ele>176.05859375</ele>
        <time>2015-12-03T14:52:57Z</time>
      </trkpt>
      <trkpt lat="48.08762" lon="-4.18152">
        <ele>174.61657714844</ele>
        <time>2015-12-03T14:53:05Z</time>
      </trkpt>
      <trkpt lat="48.08762" lon="-4.18156">
        <ele>173.6552734375</ele>
        <time>2015-12-03T14:53:07Z</time>
      </trkpt>
      <trkpt lat="48.08764" lon="-4.18164">
        <ele>172.69396972656</ele>
        <time>2015-12-03T14:53:12Z</time>
      </trkpt>
      <trkpt lat="48.08765" lon="-4.18185">
        <ele>171.25207519531</ele>
        <time>2015-12-03T14:53:22Z</time>
      </trkpt>
      <trkpt lat="48.08766" lon="-4.18208">
        <ele>170.77136230469</ele>
        <time>2015-12-03T14:53:33Z</time>
      </trkpt>
      <trkpt lat="48.08766" lon="-4.18214">
        <ele>170.77136230469</ele>
        <time>2015-12-03T14:53:36Z</time>
      </trkpt>
      <trkpt lat="48.08767" lon="-4.18226">
        <ele>170.77136230469</ele>
        <time>2015-12-03T14:53:43Z</time>
      </trkpt>
      <trkpt lat="48.08767" lon="-4.18236">
        <ele>171.73266601562</ele>
        <time>2015-12-03T14:53:48Z</time>
      </trkpt>
      <trkpt lat="48.08769" lon="-4.18249">
        <ele>170.77136230469</ele>
        <time>2015-12-03T14:53:55Z</time>
      </trkpt>
      <trkpt lat="48.0877" lon="-4.18253">
        <ele>170.29064941406</ele>
        <time>2015-12-03T14:53:57Z</time>
      </trkpt>
      <trkpt lat="48.08776" lon="-4.18263">
        <ele>170.77136230469</ele>
        <time>2015-12-03T14:54:04Z</time>
      </trkpt>
      <trkpt lat="48.08783" lon="-4.1827">
        <ele>172.21325683594</ele>
        <time>2015-12-03T14:54:11Z</time>
      </trkpt>
      <trkpt lat="48.0879" lon="-4.18274">
        <ele>173.6552734375</ele>
        <time>2015-12-03T14:54:18Z</time>
      </trkpt>
      <trkpt lat="48.08791" lon="-4.18274">
        <ele>174.13586425781</ele>
        <time>2015-12-03T14:54:19Z</time>
      </trkpt>
      <trkpt lat="48.08794" lon="-4.18276">
        <ele>174.61657714844</ele>
        <time>2015-12-03T14:54:22Z</time>
      </trkpt>
      <trkpt lat="48.088" lon="-4.18277">
        <ele>175.09729003906</ele>
        <time>2015-12-03T14:54:27Z</time>
      </trkpt>
      <trkpt lat="48.08808" lon="-4.18279">
        <ele>175.09729003906</ele>
        <time>2015-12-03T14:54:33Z</time>
      </trkpt>
      <trkpt lat="48.08814" lon="-4.18281">
        <ele>175.57788085938</ele>
        <time>2015-12-03T14:54:38Z</time>
      </trkpt>
      <trkpt lat="48.08822" lon="-4.18284">
        <ele>176.05859375</ele>
        <time>2015-12-03T14:54:45Z</time>
      </trkpt>
      <trkpt lat="48.08828" lon="-4.18285">
        <ele>176.53930664062</ele>
        <time>2015-12-03T14:54:49Z</time>
      </trkpt>
      <trkpt lat="48.08838" lon="-4.18287">
        <ele>177.02001953125</ele>
        <time>2015-12-03T14:54:57Z</time>
      </trkpt>
      <trkpt lat="48.08843" lon="-4.18289">
        <ele>177.50061035156</ele>
        <time>2015-12-03T14:55:01Z</time>
      </trkpt>
      <trkpt lat="48.08849" lon="-4.1829">
        <ele>177.50061035156</ele>
        <time>2015-12-03T14:55:05Z</time>
      </trkpt>
      <trkpt lat="48.08851" lon="-4.18291">
        <ele>177.98120117188</ele>
        <time>2015-12-03T14:55:07Z</time>
      </trkpt>
      <trkpt lat="48.08857" lon="-4.18293">
        <ele>178.94262695312</ele>
        <time>2015-12-03T14:55:12Z</time>
      </trkpt>
      <trkpt lat="48.08868" lon="-4.18296">
        <ele>180.38452148438</ele>
        <time>2015-12-03T14:55:21Z</time>
      </trkpt>
      <trkpt lat="48.08877" lon="-4.18296">
        <ele>180.38452148438</ele>
        <time>2015-12-03T14:55:28Z</time>
      </trkpt>
      <trkpt lat="48.08887" lon="-4.18299">
        <ele>181.82641601562</ele>
        <time>2015-12-03T14:55:35Z</time>
      </trkpt>
      <trkpt lat="48.08893" lon="-4.183">
        <ele>182.30712890625</ele>
        <time>2015-12-03T14:55:40Z</time>
      </trkpt>
      <trkpt lat="48.08902" lon="-4.18302">
        <ele>183.26843261719</ele>
        <time>2015-12-03T14:55:46Z</time>
      </trkpt>
      <trkpt lat="48.0891" lon="-4.18304">
        <ele>184.22985839844</ele>
        <time>2015-12-03T14:55:52Z</time>
      </trkpt>
      <trkpt lat="48.0892" lon="-4.18306">
        <ele>185.19116210938</ele>
        <time>2015-12-03T14:56:00Z</time>
      </trkpt>
      <trkpt lat="48.08929" lon="-4.18307">
        <ele>185.67175292969</ele>
        <time>2015-12-03T14:56:07Z</time>
      </trkpt>
      <trkpt lat="48.08933" lon="-4.18307">
        <ele>186.15246582031</ele>
        <time>2015-12-03T14:56:11Z</time>
      </trkpt>
      <trkpt lat="48.08934" lon="-4.18308">
        <ele>185.67175292969</ele>
        <time>2015-12-03T14:56:13Z</time>
      </trkpt>
      <trkpt lat="48.0894" lon="-4.18308">
        <ele>186.63317871094</ele>
        <time>2015-12-03T14:56:19Z</time>
      </trkpt>
      <trkpt lat="48.08943" lon="-4.1831">
        <ele>186.15246582031</ele>
        <time>2015-12-03T14:56:24Z</time>
      </trkpt>
      <trkpt lat="48.08941" lon="-4.18302">
        <ele>184.22985839844</ele>
        <time>2015-12-03T14:56:30Z</time>
      </trkpt>
      <trkpt lat="48.08943" lon="-4.18294">
        <ele>182.78784179688</ele>
        <time>2015-12-03T14:56:35Z</time>
      </trkpt>
      <trkpt lat="48.08944" lon="-4.18293">
        <ele>182.78784179688</ele>
        <time>2015-12-03T14:56:36Z</time>
      </trkpt>
      <trkpt lat="48.08946" lon="-4.18282">
        <ele>182.30712890625</ele>
        <time>2015-12-03T14:56:42Z</time>
      </trkpt>
      <trkpt lat="48.08948" lon="-4.18273">
        <ele>181.82641601562</ele>
        <time>2015-12-03T14:56:47Z</time>
      </trkpt>
      <trkpt lat="48.08949" lon="-4.18269">
        <ele>181.34582519531</ele>
        <time>2015-12-03T14:56:50Z</time>
      </trkpt>
      <trkpt lat="48.0895" lon="-4.1826">
        <ele>182.78784179688</ele>
        <time>2015-12-03T14:56:56Z</time>
      </trkpt>
      <trkpt lat="48.08951" lon="-4.18256">
        <ele>183.26843261719</ele>
        <time>2015-12-03T14:56:58Z</time>
      </trkpt>
      <trkpt lat="48.08951" lon="-4.18243">
        <ele>184.71057128906</ele>
        <time>2015-12-03T14:57:03Z</time>
      </trkpt>
      <trkpt lat="48.08953" lon="-4.18233">
        <ele>184.71057128906</ele>
        <time>2015-12-03T14:57:08Z</time>
      </trkpt>
      <trkpt lat="48.08951" lon="-4.18222">
        <ele>187.11376953125</ele>
        <time>2015-12-03T14:57:14Z</time>
      </trkpt>
      <trkpt lat="48.08949" lon="-4.18215">
        <ele>185.67175292969</ele>
        <time>2015-12-03T14:57:18Z</time>
      </trkpt>
      <trkpt lat="48.08944" lon="-4.18206">
        <ele>182.30712890625</ele>
        <time>2015-12-03T14:57:24Z</time>
      </trkpt>
      <trkpt lat="48.0894" lon="-4.18198">
        <ele>180.38452148438</ele>
        <time>2015-12-03T14:57:29Z</time>
      </trkpt>
      <trkpt lat="48.08936" lon="-4.18194">
        <ele>178.94262695312</ele>
        <time>2015-12-03T14:57:33Z</time>
      </trkpt>
      <trkpt lat="48.08932" lon="-4.1819">
        <ele>177.98120117188</ele>
        <time>2015-12-03T14:57:37Z</time>
      </trkpt>
      <trkpt lat="48.0893" lon="-4.18185">
        <ele>177.02001953125</ele>
        <time>2015-12-03T14:57:40Z</time>
      </trkpt>
      <trkpt lat="48.08925" lon="-4.18179">
        <ele>176.05859375</ele>
        <time>2015-12-03T14:57:45Z</time>
      </trkpt>
      <trkpt lat="48.0892" lon="-4.18175">
        <ele>174.61657714844</ele>
        <time>2015-12-03T14:57:50Z</time>
      </trkpt>
      <trkpt lat="48.08919" lon="-4.18173">
        <ele>174.61657714844</ele>
        <time>2015-12-03T14:57:52Z</time>
      </trkpt>
      <trkpt lat="48.08917" lon="-4.18166">
        <ele>174.61657714844</ele>
        <time>2015-12-03T14:57:56Z</time>
      </trkpt>
      <trkpt lat="48.08914" lon="-4.18156">
        <ele>174.61657714844</ele>
        <time>2015-12-03T14:58:02Z</time>
      </trkpt>
      <trkpt lat="48.08913" lon="-4.18155">
        <ele>174.61657714844</ele>
        <time>2015-12-03T14:58:03Z</time>
      </trkpt>
      <trkpt lat="48.08912" lon="-4.18152">
        <ele>175.09729003906</ele>
        <time>2015-12-03T14:58:05Z</time>
      </trkpt>
      <trkpt lat="48.08908" lon="-4.18142">
        <ele>175.57788085938</ele>
        <time>2015-12-03T14:58:10Z</time>
      </trkpt>
      <trkpt lat="48.08907" lon="-4.18131">
        <ele>175.09729003906</ele>
        <time>2015-12-03T14:58:17Z</time>
      </trkpt>
      <trkpt lat="48.08906" lon="-4.18124">
        <ele>174.61657714844</ele>
        <time>2015-12-03T14:58:20Z</time>
      </trkpt>
      <trkpt lat="48.08906" lon="-4.18113">
        <ele>175.57788085938</ele>
        <time>2015-12-03T14:58:25Z</time>
      </trkpt>
      <trkpt lat="48.08904" lon="-4.18109">
        <ele>177.50061035156</ele>
        <time>2015-12-03T14:58:29Z</time>
      </trkpt>
      <trkpt lat="48.08903" lon="-4.18106">
        <ele>177.98120117188</ele>
        <time>2015-12-03T14:58:31Z</time>
      </trkpt>
      <trkpt lat="48.08904" lon="-4.18102">
        <ele>178.94262695312</ele>
        <time>2015-12-03T14:58:33Z</time>
      </trkpt>
      <trkpt lat="48.08904" lon="-4.18091">
        <ele>177.02001953125</ele>
        <time>2015-12-03T14:58:38Z</time>
      </trkpt>
      <trkpt lat="48.08903" lon="-4.18088">
        <ele>176.53930664062</ele>
        <time>2015-12-03T14:58:39Z</time>
      </trkpt>
      <trkpt lat="48.08903" lon="-4.1807">
        <ele>175.57788085938</ele>
        <time>2015-12-03T14:58:46Z</time>
      </trkpt>
      <trkpt lat="48.08904" lon="-4.18061">
        <ele>172.69396972656</ele>
        <time>2015-12-03T14:58:51Z</time>
      </trkpt>
      <trkpt lat="48.08904" lon="-4.18057">
        <ele>172.21325683594</ele>
        <time>2015-12-03T14:58:53Z</time>
      </trkpt>
      <trkpt lat="48.08904" lon="-4.18042">
        <ele>168.84875488281</ele>
        <time>2015-12-03T14:59:00Z</time>
      </trkpt>
      <trkpt lat="48.08904" lon="-4.18034">
        <ele>167.40673828125</ele>
        <time>2015-12-03T14:59:04Z</time>
      </trkpt>
      <trkpt lat="48.08904" lon="-4.18026">
        <ele>166.4453125</ele>
        <time>2015-12-03T14:59:08Z</time>
      </trkpt>
      <trkpt lat="48.08904" lon="-4.18022">
        <ele>164.52270507812</ele>
        <time>2015-12-03T14:59:11Z</time>
      </trkpt>
      <trkpt lat="48.08904" lon="-4.18019">
        <ele>165.48413085938</ele>
        <time>2015-12-03T14:59:13Z</time>
      </trkpt>
      <trkpt lat="48.08903" lon="-4.1801">
        <ele>165.96472167969</ele>
        <time>2015-12-03T14:59:18Z</time>
      </trkpt>
      <trkpt lat="48.08904" lon="-4.17998">
        <ele>163.08081054688</ele>
        <time>2015-12-03T14:59:24Z</time>
      </trkpt>
      <trkpt lat="48.08904" lon="-4.17993">
        <ele>162.60009765625</ele>
        <time>2015-12-03T14:59:27Z</time>
      </trkpt>
      <trkpt lat="48.08906" lon="-4.17986">
        <ele>161.158203125</ele>
        <time>2015-12-03T14:59:31Z</time>
      </trkpt>
      <trkpt lat="48.08907" lon="-4.17984">
        <ele>160.67749023438</ele>
        <time>2015-12-03T14:59:33Z</time>
      </trkpt>
      <trkpt lat="48.08908" lon="-4.17968">
        <ele>161.158203125</ele>
        <time>2015-12-03T14:59:40Z</time>
      </trkpt>
      <trkpt lat="48.08907" lon="-4.17957">
        <ele>162.60009765625</ele>
        <time>2015-12-03T14:59:45Z</time>
      </trkpt>
      <trkpt lat="48.08908" lon="-4.17954">
        <ele>163.08081054688</ele>
        <time>2015-12-03T14:59:47Z</time>
      </trkpt>
      <trkpt lat="48.08909" lon="-4.17949">
        <ele>162.60009765625</ele>
        <time>2015-12-03T14:59:50Z</time>
      </trkpt>
      <trkpt lat="48.08911" lon="-4.17933">
        <ele>165.96472167969</ele>
        <time>2015-12-03T14:59:57Z</time>
      </trkpt>
      <trkpt lat="48.08911" lon="-4.1792">
        <ele>165.96472167969</ele>
        <time>2015-12-03T15:00:02Z</time>
      </trkpt>
      <trkpt lat="48.08911" lon="-4.179">
        <ele>166.92602539062</ele>
        <time>2015-12-03T15:00:11Z</time>
      </trkpt>
      <trkpt lat="48.08911" lon="-4.1789">
        <ele>167.88732910156</ele>
        <time>2015-12-03T15:00:17Z</time>
      </trkpt>
      <trkpt lat="48.08912" lon="-4.17879">
        <ele>169.32946777344</ele>
        <time>2015-12-03T15:00:22Z</time>
      </trkpt>
      <trkpt lat="48.08912" lon="-4.17869">
        <ele>168.84875488281</ele>
        <time>2015-12-03T15:00:28Z</time>
      </trkpt>
      <trkpt lat="48.08915" lon="-4.17864">
        <ele>168.84875488281</ele>
        <time>2015-12-03T15:00:31Z</time>
      </trkpt>
      <trkpt lat="48.08915" lon="-4.17862">
        <ele>169.32946777344</ele>
        <time>2015-12-03T15:00:33Z</time>
      </trkpt>
      <trkpt lat="48.0892" lon="-4.17864">
        <ele>169.81005859375</ele>
        <time>2015-12-03T15:00:39Z</time>
      </trkpt>
      <trkpt lat="48.08924" lon="-4.1787">
        <ele>169.81005859375</ele>
        <time>2015-12-03T15:00:44Z</time>
      </trkpt>
      <trkpt lat="48.08929" lon="-4.1788">
        <ele>169.32946777344</ele>
        <time>2015-12-03T15:00:51Z</time>
      </trkpt>
      <trkpt lat="48.08938" lon="-4.17895">
        <ele>166.92602539062</ele>
        <time>2015-12-03T15:01:02Z</time>
      </trkpt>
      <trkpt lat="48.08944" lon="-4.17903">
        <ele>166.4453125</ele>
        <time>2015-12-03T15:01:09Z</time>
      </trkpt>
      <trkpt lat="48.08951" lon="-4.1791">
        <ele>166.4453125</ele>
        <time>2015-12-03T15:01:16Z</time>
      </trkpt>
      <trkpt lat="48.08957" lon="-4.17916">
        <ele>167.88732910156</ele>
        <time>2015-12-03T15:01:22Z</time>
      </trkpt>
      <trkpt lat="48.08964" lon="-4.17922">
        <ele>170.29064941406</ele>
        <time>2015-12-03T15:01:29Z</time>
      </trkpt>
      <trkpt lat="48.08972" lon="-4.17929">
        <ele>172.21325683594</ele>
        <time>2015-12-03T15:01:36Z</time>
      </trkpt>
      <trkpt lat="48.08978" lon="-4.17933">
        <ele>172.69396972656</ele>
        <time>2015-12-03T15:01:42Z</time>
      </trkpt>
      <trkpt lat="48.08984" lon="-4.17936">
        <ele>173.6552734375</ele>
        <time>2015-12-03T15:01:48Z</time>
      </trkpt>
      <trkpt lat="48.0899" lon="-4.1794">
        <ele>174.61657714844</ele>
        <time>2015-12-03T15:01:54Z</time>
      </trkpt>
      <trkpt lat="48.08996" lon="-4.17943">
        <ele>174.61657714844</ele>
        <time>2015-12-03T15:02:00Z</time>
      </trkpt>
      <trkpt lat="48.09004" lon="-4.17946">
        <ele>175.09729003906</ele>
        <time>2015-12-03T15:02:07Z</time>
      </trkpt>
      <trkpt lat="48.0901" lon="-4.17949">
        <ele>175.09729003906</ele>
        <time>2015-12-03T15:02:13Z</time>
      </trkpt>
      <trkpt lat="48.09016" lon="-4.17952">
        <ele>176.05859375</ele>
        <time>2015-12-03T15:02:19Z</time>
      </trkpt>
      <trkpt lat="48.09022" lon="-4.17954">
        <ele>177.02001953125</ele>
        <time>2015-12-03T15:02:24Z</time>
      </trkpt>
      <trkpt lat="48.09029" lon="-4.17957">
        <ele>179.42321777344</ele>
        <time>2015-12-03T15:02:31Z</time>
      </trkpt>
      <trkpt lat="48.09037" lon="-4.1796">
        <ele>179.42321777344</ele>
        <time>2015-12-03T15:02:38Z</time>
      </trkpt>
      <trkpt lat="48.09045" lon="-4.17964">
        <ele>180.38452148438</ele>
        <time>2015-12-03T15:02:45Z</time>
      </trkpt>
      <trkpt lat="48.09051" lon="-4.17968">
        <ele>179.90380859375</ele>
        <time>2015-12-03T15:02:52Z</time>
      </trkpt>
      <trkpt lat="48.09059" lon="-4.17971">
        <ele>179.90380859375</ele>
        <time>2015-12-03T15:02:58Z</time>
      </trkpt>
      <trkpt lat="48.09066" lon="-4.17975">
        <ele>180.38452148438</ele>
        <time>2015-12-03T15:03:04Z</time>
      </trkpt>
      <trkpt lat="48.09073" lon="-4.17978">
        <ele>180.865234375</ele>
        <time>2015-12-03T15:03:10Z</time>
      </trkpt>
      <trkpt lat="48.0908" lon="-4.17982">
        <ele>181.82641601562</ele>
        <time>2015-12-03T15:03:17Z</time>
      </trkpt>
      <trkpt lat="48.09088" lon="-4.17985">
        <ele>181.82641601562</ele>
        <time>2015-12-03T15:03:24Z</time>
      </trkpt>
      <trkpt lat="48.09095" lon="-4.17988">
        <ele>182.30712890625</ele>
        <time>2015-12-03T15:03:30Z</time>
      </trkpt>
      <trkpt lat="48.09102" lon="-4.1799">
        <ele>183.7490234375</ele>
        <time>2015-12-03T15:03:36Z</time>
      </trkpt>
      <trkpt lat="48.09108" lon="-4.17992">
        <ele>184.71057128906</ele>
        <time>2015-12-03T15:03:42Z</time>
      </trkpt>
      <trkpt lat="48.09115" lon="-4.17994">
        <ele>185.67175292969</ele>
        <time>2015-12-03T15:03:48Z</time>
      </trkpt>
      <trkpt lat="48.09122" lon="-4.17995">
        <ele>186.15246582031</ele>
        <time>2015-12-03T15:03:54Z</time>
      </trkpt>
      <trkpt lat="48.09129" lon="-4.17997">
        <ele>187.11376953125</ele>
        <time>2015-12-03T15:04:00Z</time>
      </trkpt>
      <trkpt lat="48.09136" lon="-4.17997">
        <ele>188.07507324219</ele>
        <time>2015-12-03T15:04:06Z</time>
      </trkpt>
      <trkpt lat="48.09143" lon="-4.17995">
        <ele>189.03637695312</ele>
        <time>2015-12-03T15:04:12Z</time>
      </trkpt>
      <trkpt lat="48.0915" lon="-4.17996">
        <ele>189.51696777344</ele>
        <time>2015-12-03T15:04:18Z</time>
      </trkpt>
      <trkpt lat="48.09155" lon="-4.17998">
        <ele>190.47839355469</ele>
        <time>2015-12-03T15:04:23Z</time>
      </trkpt>
      <trkpt lat="48.09158" lon="-4.18005">
        <ele>192.40112304688</ele>
        <time>2015-12-03T15:04:29Z</time>
      </trkpt>
      <trkpt lat="48.09155" lon="-4.18017">
        <ele>193.3623046875</ele>
        <time>2015-12-03T15:04:36Z</time>
      </trkpt>
      <trkpt lat="48.09152" lon="-4.18027">
        <ele>194.80432128906</ele>
        <time>2015-12-03T15:04:42Z</time>
      </trkpt>
      <trkpt lat="48.09149" lon="-4.18036">
        <ele>194.80432128906</ele>
        <time>2015-12-03T15:04:47Z</time>
      </trkpt>
      <trkpt lat="48.09148" lon="-4.18045">
        <ele>194.32373046875</ele>
        <time>2015-12-03T15:04:52Z</time>
      </trkpt>
      <trkpt lat="48.09146" lon="-4.18053">
        <ele>195.28491210938</ele>
        <time>2015-12-03T15:04:57Z</time>
      </trkpt>
      <trkpt lat="48.09146" lon="-4.18055">
        <ele>195.28491210938</ele>
        <time>2015-12-03T15:04:58Z</time>
      </trkpt>
      <trkpt lat="48.09144" lon="-4.18066">
        <ele>194.80432128906</ele>
        <time>2015-12-03T15:05:04Z</time>
      </trkpt>
      <trkpt lat="48.09145" lon="-4.18074">
        <ele>194.32373046875</ele>
        <time>2015-12-03T15:05:10Z</time>
      </trkpt>
      <trkpt lat="48.09146" lon="-4.1808">
        <ele>193.3623046875</ele>
        <time>2015-12-03T15:05:13Z</time>
      </trkpt>
      <trkpt lat="48.09148" lon="-4.18088">
        <ele>193.84301757812</ele>
        <time>2015-12-03T15:05:18Z</time>
      </trkpt>
      <trkpt lat="48.09149" lon="-4.18102">
        <ele>194.80432128906</ele>
        <time>2015-12-03T15:05:25Z</time>
      </trkpt>
      <trkpt lat="48.0915" lon="-4.18116">
        <ele>193.84301757812</ele>
        <time>2015-12-03T15:05:32Z</time>
      </trkpt>
      <trkpt lat="48.09152" lon="-4.18129">
        <ele>193.84301757812</ele>
        <time>2015-12-03T15:05:39Z</time>
      </trkpt>
      <trkpt lat="48.09152" lon="-4.18133">
        <ele>193.84301757812</ele>
        <time>2015-12-03T15:05:41Z</time>
      </trkpt>
      <trkpt lat="48.09153" lon="-4.18142">
        <ele>195.28491210938</ele>
        <time>2015-12-03T15:05:46Z</time>
      </trkpt>
      <trkpt lat="48.09154" lon="-4.18154">
        <ele>194.80432128906</ele>
        <time>2015-12-03T15:05:53Z</time>
      </trkpt>
      <trkpt lat="48.09155" lon="-4.18164">
        <ele>195.28491210938</ele>
        <time>2015-12-03T15:05:59Z</time>
      </trkpt>
      <trkpt lat="48.09155" lon="-4.18166">
        <ele>194.80432128906</ele>
        <time>2015-12-03T15:06:00Z</time>
      </trkpt>
      <trkpt lat="48.09156" lon="-4.18172">
        <ele>194.80432128906</ele>
        <time>2015-12-03T15:06:03Z</time>
      </trkpt>
      <trkpt lat="48.09156" lon="-4.18179">
        <ele>195.28491210938</ele>
        <time>2015-12-03T15:06:07Z</time>
      </trkpt>
      <trkpt lat="48.09157" lon="-4.18188">
        <ele>194.80432128906</ele>
        <time>2015-12-03T15:06:12Z</time>
      </trkpt>
      <trkpt lat="48.09158" lon="-4.18199">
        <ele>195.765625</ele>
        <time>2015-12-03T15:06:18Z</time>
      </trkpt>
      <trkpt lat="48.09158" lon="-4.18211">
        <ele>196.72692871094</ele>
        <time>2015-12-03T15:06:24Z</time>
      </trkpt>
      <trkpt lat="48.09158" lon="-4.18221">
        <ele>196.72692871094</ele>
        <time>2015-12-03T15:06:29Z</time>
      </trkpt>
      <trkpt lat="48.0916" lon="-4.18232">
        <ele>198.1689453125</ele>
        <time>2015-12-03T15:06:36Z</time>
      </trkpt>
      <trkpt lat="48.09162" lon="-4.18246">
        <ele>199.61083984375</ele>
        <time>2015-12-03T15:06:44Z</time>
      </trkpt>
      <trkpt lat="48.09163" lon="-4.18256">
        <ele>200.09167480469</ele>
        <time>2015-12-03T15:06:50Z</time>
      </trkpt>
      <trkpt lat="48.09165" lon="-4.18267">
        <ele>200.572265625</ele>
        <time>2015-12-03T15:06:57Z</time>
      </trkpt>
      <trkpt lat="48.09166" lon="-4.18278">
        <ele>201.53356933594</ele>
        <time>2015-12-03T15:07:03Z</time>
      </trkpt>
      <trkpt lat="48.09167" lon="-4.1829">
        <ele>202.97546386719</ele>
        <time>2015-12-03T15:07:10Z</time>
      </trkpt>
      <trkpt lat="48.09169" lon="-4.183">
        <ele>204.41748046875</ele>
        <time>2015-12-03T15:07:16Z</time>
      </trkpt>
      <trkpt lat="48.0917" lon="-4.18311">
        <ele>205.37878417969</ele>
        <time>2015-12-03T15:07:22Z</time>
      </trkpt>
      <trkpt lat="48.09172" lon="-4.18322">
        <ele>206.34008789062</ele>
        <time>2015-12-03T15:07:29Z</time>
      </trkpt>
      <trkpt lat="48.09173" lon="-4.18332">
        <ele>206.82067871094</ele>
        <time>2015-12-03T15:07:36Z</time>
      </trkpt>
      <trkpt lat="48.09174" lon="-4.18344">
        <ele>207.30139160156</ele>
        <time>2015-12-03T15:07:43Z</time>
      </trkpt>
      <trkpt lat="48.09175" lon="-4.18356">
        <ele>208.74340820312</ele>
        <time>2015-12-03T15:07:50Z</time>
      </trkpt>
      <trkpt lat="48.09176" lon="-4.18372">
        <ele>209.70483398438</ele>
        <time>2015-12-03T15:07:59Z</time>
      </trkpt>
      <trkpt lat="48.09178" lon="-4.18387">
        <ele>210.18542480469</ele>
        <time>2015-12-03T15:08:08Z</time>
      </trkpt>
      <trkpt lat="48.09178" lon="-4.18401">
        <ele>211.14672851562</ele>
        <time>2015-12-03T15:08:16Z</time>
      </trkpt>
      <trkpt lat="48.09179" lon="-4.18412">
        <ele>212.10803222656</ele>
        <time>2015-12-03T15:08:23Z</time>
      </trkpt>
      <trkpt lat="48.0918" lon="-4.18419">
        <ele>212.58862304688</ele>
        <time>2015-12-03T15:08:27Z</time>
      </trkpt>
      <trkpt lat="48.0918" lon="-4.18424">
        <ele>214.51123046875</ele>
        <time>2015-12-03T15:08:31Z</time>
      </trkpt>
      <trkpt lat="48.09181" lon="-4.18436">
        <ele>217.39538574219</ele>
        <time>2015-12-03T15:08:38Z</time>
      </trkpt>
      <trkpt lat="48.09184" lon="-4.18458">
        <ele>219.31799316406</ele>
        <time>2015-12-03T15:08:50Z</time>
      </trkpt>
      <trkpt lat="48.09187" lon="-4.18477">
        <ele>218.83728027344</ele>
        <time>2015-12-03T15:09:00Z</time>
      </trkpt>
      <trkpt lat="48.0919" lon="-4.18491">
        <ele>219.79858398438</ele>
        <time>2015-12-03T15:09:07Z</time>
      </trkpt>
      <trkpt lat="48.09192" lon="-4.18504">
        <ele>220.27917480469</ele>
        <time>2015-12-03T15:09:14Z</time>
      </trkpt>
      <trkpt lat="48.09193" lon="-4.18514">
        <ele>219.79858398438</ele>
        <time>2015-12-03T15:09:19Z</time>
      </trkpt>
      <trkpt lat="48.09196" lon="-4.18525">
        <ele>220.27917480469</ele>
        <time>2015-12-03T15:09:25Z</time>
      </trkpt>
      <trkpt lat="48.09195" lon="-4.18531">
        <ele>219.79858398438</ele>
        <time>2015-12-03T15:09:27Z</time>
      </trkpt>
      <trkpt lat="48.09199" lon="-4.18545">
        <ele>220.75988769531</ele>
        <time>2015-12-03T15:09:35Z</time>
      </trkpt>
      <trkpt lat="48.09202" lon="-4.18555">
        <ele>221.72119140625</ele>
        <time>2015-12-03T15:09:41Z</time>
      </trkpt>
      <trkpt lat="48.09205" lon="-4.18567">
        <ele>222.68249511719</ele>
        <time>2015-12-03T15:09:48Z</time>
      </trkpt>
      <trkpt lat="48.09207" lon="-4.18575">
        <ele>222.68249511719</ele>
        <time>2015-12-03T15:09:53Z</time>
      </trkpt>
      <trkpt lat="48.09208" lon="-4.18584">
        <ele>222.68249511719</ele>
        <time>2015-12-03T15:09:58Z</time>
      </trkpt>
      <trkpt lat="48.09209" lon="-4.18588">
        <ele>222.68249511719</ele>
        <time>2015-12-03T15:10:00Z</time>
      </trkpt>
      <trkpt lat="48.09211" lon="-4.18598">
        <ele>221.24060058594</ele>
        <time>2015-12-03T15:10:05Z</time>
      </trkpt>
      <trkpt lat="48.09217" lon="-4.1861">
        <ele>218.35656738281</ele>
        <time>2015-12-03T15:10:13Z</time>
      </trkpt>
      <trkpt lat="48.09219" lon="-4.18615">
        <ele>218.83728027344</ele>
        <time>2015-12-03T15:10:16Z</time>
      </trkpt>
      <trkpt lat="48.0922" lon="-4.1862">
        <ele>218.35656738281</ele>
        <time>2015-12-03T15:10:19Z</time>
      </trkpt>
      <trkpt lat="48.09222" lon="-4.18623">
        <ele>218.35656738281</ele>
        <time>2015-12-03T15:10:21Z</time>
      </trkpt>
      <trkpt lat="48.09225" lon="-4.18631">
        <ele>216.91467285156</ele>
        <time>2015-12-03T15:10:25Z</time>
      </trkpt>
      <trkpt lat="48.09227" lon="-4.18635">
        <ele>216.91467285156</ele>
        <time>2015-12-03T15:10:28Z</time>
      </trkpt>
      <trkpt lat="48.09229" lon="-4.18638">
        <ele>216.91467285156</ele>
        <time>2015-12-03T15:10:30Z</time>
      </trkpt>
      <trkpt lat="48.09234" lon="-4.18644">
        <ele>217.39538574219</ele>
        <time>2015-12-03T15:10:35Z</time>
      </trkpt>
      <trkpt lat="48.09243" lon="-4.18656">
        <ele>220.75988769531</ele>
        <time>2015-12-03T15:10:44Z</time>
      </trkpt>
      <trkpt lat="48.09249" lon="-4.18665">
        <ele>221.24060058594</ele>
        <time>2015-12-03T15:10:50Z</time>
      </trkpt>
      <trkpt lat="48.09255" lon="-4.18671">
        <ele>221.72119140625</ele>
        <time>2015-12-03T15:10:57Z</time>
      </trkpt>
      <trkpt lat="48.09256" lon="-4.18672">
        <ele>221.72119140625</ele>
        <time>2015-12-03T15:10:58Z</time>
      </trkpt>
      <trkpt lat="48.0926" lon="-4.18681">
        <ele>222.68249511719</ele>
        <time>2015-12-03T15:11:04Z</time>
      </trkpt>
      <trkpt lat="48.09269" lon="-4.18694">
        <ele>224.12451171875</ele>
        <time>2015-12-03T15:11:13Z</time>
      </trkpt>
      <trkpt lat="48.09274" lon="-4.18703">
        <ele>225.56652832031</ele>
        <time>2015-12-03T15:11:19Z</time>
      </trkpt>
      <trkpt lat="48.09285" lon="-4.18723">
        <ele>224.60522460938</ele>
        <time>2015-12-03T15:11:32Z</time>
      </trkpt>
      <trkpt lat="48.09293" lon="-4.18735">
        <ele>223.64379882812</ele>
        <time>2015-12-03T15:11:41Z</time>
      </trkpt>
      <trkpt lat="48.09298" lon="-4.18746">
        <ele>222.20178222656</ele>
        <time>2015-12-03T15:11:48Z</time>
      </trkpt>
      <trkpt lat="48.09304" lon="-4.18756">
        <ele>222.20178222656</ele>
        <time>2015-12-03T15:11:55Z</time>
      </trkpt>
      <trkpt lat="48.0931" lon="-4.18768">
        <ele>222.68249511719</ele>
        <time>2015-12-03T15:12:02Z</time>
      </trkpt>
      <trkpt lat="48.09316" lon="-4.1878">
        <ele>222.20178222656</ele>
        <time>2015-12-03T15:12:09Z</time>
      </trkpt>
      <trkpt lat="48.09323" lon="-4.18793">
        <ele>223.16320800781</ele>
        <time>2015-12-03T15:12:18Z</time>
      </trkpt>
      <trkpt lat="48.09329" lon="-4.18804">
        <ele>224.12451171875</ele>
        <time>2015-12-03T15:12:25Z</time>
      </trkpt>
      <trkpt lat="48.09335" lon="-4.18815">
        <ele>224.12451171875</ele>
        <time>2015-12-03T15:12:32Z</time>
      </trkpt>
      <trkpt lat="48.09341" lon="-4.18828">
        <ele>225.0859375</ele>
        <time>2015-12-03T15:12:40Z</time>
      </trkpt>
      <trkpt lat="48.09347" lon="-4.18841">
        <ele>225.56652832031</ele>
        <time>2015-12-03T15:12:48Z</time>
      </trkpt>
      <trkpt lat="48.09353" lon="-4.18854">
        <ele>226.52783203125</ele>
        <time>2015-12-03T15:12:56Z</time>
      </trkpt>
      <trkpt lat="48.09358" lon="-4.18868">
        <ele>227.00854492188</ele>
        <time>2015-12-03T15:13:04Z</time>
      </trkpt>
      <trkpt lat="48.0936" lon="-4.18872">
        <ele>227.48913574219</ele>
        <time>2015-12-03T15:13:10Z</time>
      </trkpt>
      <trkpt lat="48.09359" lon="-4.18875">
        <ele>227.48913574219</ele>
        <time>2015-12-03T15:13:15Z</time>
      </trkpt>
      <trkpt lat="48.09357" lon="-4.18879">
        <ele>227.48913574219</ele>
        <time>2015-12-03T15:13:18Z</time>
      </trkpt>
      <trkpt lat="48.09351" lon="-4.18886">
        <ele>227.00854492188</ele>
        <time>2015-12-03T15:13:24Z</time>
      </trkpt>
      <trkpt lat="48.09348" lon="-4.18892">
        <ele>226.52783203125</ele>
        <time>2015-12-03T15:13:28Z</time>
      </trkpt>
      <trkpt lat="48.09346" lon="-4.18895">
        <ele>226.04711914062</ele>
        <time>2015-12-03T15:13:30Z</time>
      </trkpt>
      <trkpt lat="48.09341" lon="-4.18906">
        <ele>224.60522460938</ele>
        <time>2015-12-03T15:13:38Z</time>
      </trkpt>
      <trkpt lat="48.09335" lon="-4.18918">
        <ele>224.60522460938</ele>
        <time>2015-12-03T15:13:45Z</time>
      </trkpt>
      <trkpt lat="48.0933" lon="-4.18924">
        <ele>222.68249511719</ele>
        <time>2015-12-03T15:13:49Z</time>
      </trkpt>
      <trkpt lat="48.09329" lon="-4.18926">
        <ele>222.20178222656</ele>
        <time>2015-12-03T15:13:51Z</time>
      </trkpt>
      <trkpt lat="48.09329" lon="-4.18933">
        <ele>221.24060058594</ele>
        <time>2015-12-03T15:13:55Z</time>
      </trkpt>
      <trkpt lat="48.09328" lon="-4.18935">
        <ele>220.75988769531</ele>
        <time>2015-12-03T15:13:56Z</time>
      </trkpt>
      <trkpt lat="48.09323" lon="-4.18946">
        <ele>219.79858398438</ele>
        <time>2015-12-03T15:14:03Z</time>
      </trkpt>
      <trkpt lat="48.09322" lon="-4.18952">
        <ele>219.79858398438</ele>
        <time>2015-12-03T15:14:05Z</time>
      </trkpt>
      <trkpt lat="48.0932" lon="-4.1896">
        <ele>217.8759765625</ele>
        <time>2015-12-03T15:14:10Z</time>
      </trkpt>
      <trkpt lat="48.09317" lon="-4.18976">
        <ele>217.8759765625</ele>
        <time>2015-12-03T15:14:18Z</time>
      </trkpt>
      <trkpt lat="48.09317" lon="-4.1898">
        <ele>218.35656738281</ele>
        <time>2015-12-03T15:14:20Z</time>
      </trkpt>
      <trkpt lat="48.09316" lon="-4.18997">
        <ele>218.35656738281</ele>
        <time>2015-12-03T15:14:29Z</time>
      </trkpt>
      <trkpt lat="48.09314" lon="-4.19011">
        <ele>218.35656738281</ele>
        <time>2015-12-03T15:14:37Z</time>
      </trkpt>
      <trkpt lat="48.09311" lon="-4.19025">
        <ele>220.27917480469</ele>
        <time>2015-12-03T15:14:44Z</time>
      </trkpt>
      <trkpt lat="48.09308" lon="-4.19036">
        <ele>221.72119140625</ele>
        <time>2015-12-03T15:14:50Z</time>
      </trkpt>
      <trkpt lat="48.09306" lon="-4.19047">
        <ele>220.75988769531</ele>
        <time>2015-12-03T15:14:56Z</time>
      </trkpt>
      <trkpt lat="48.09302" lon="-4.1906">
        <ele>217.8759765625</ele>
        <time>2015-12-03T15:15:04Z</time>
      </trkpt>
      <trkpt lat="48.09299" lon="-4.19072">
        <ele>217.39538574219</ele>
        <time>2015-12-03T15:15:10Z</time>
      </trkpt>
      <trkpt lat="48.09297" lon="-4.19084">
        <ele>215.95324707031</ele>
        <time>2015-12-03T15:15:17Z</time>
      </trkpt>
      <trkpt lat="48.09296" lon="-4.19096">
        <ele>216.43395996094</ele>
        <time>2015-12-03T15:15:23Z</time>
      </trkpt>
      <trkpt lat="48.09293" lon="-4.19112">
        <ele>215.47265625</ele>
        <time>2015-12-03T15:15:31Z</time>
      </trkpt>
      <trkpt lat="48.09291" lon="-4.19126">
        <ele>215.47265625</ele>
        <time>2015-12-03T15:15:38Z</time>
      </trkpt>
      <trkpt lat="48.0929" lon="-4.19135">
        <ele>214.99194335938</ele>
        <time>2015-12-03T15:15:43Z</time>
      </trkpt>
      <trkpt lat="48.09289" lon="-4.19143">
        <ele>214.51123046875</ele>
        <time>2015-12-03T15:15:48Z</time>
      </trkpt>
      <trkpt lat="48.09287" lon="-4.19151">
        <ele>214.51123046875</ele>
        <time>2015-12-03T15:15:53Z</time>
      </trkpt>
      <trkpt lat="48.09286" lon="-4.19162">
        <ele>215.47265625</ele>
        <time>2015-12-03T15:15:58Z</time>
      </trkpt>
      <trkpt lat="48.09284" lon="-4.19171">
        <ele>215.95324707031</ele>
        <time>2015-12-03T15:16:03Z</time>
      </trkpt>
      <trkpt lat="48.09282" lon="-4.19182">
        <ele>214.51123046875</ele>
        <time>2015-12-03T15:16:10Z</time>
      </trkpt>
      <trkpt lat="48.09279" lon="-4.19194">
        <ele>214.51123046875</ele>
        <time>2015-12-03T15:16:16Z</time>
      </trkpt>
      <trkpt lat="48.09277" lon="-4.19202">
        <ele>214.51123046875</ele>
        <time>2015-12-03T15:16:20Z</time>
      </trkpt>
      <trkpt lat="48.09273" lon="-4.19215">
        <ele>214.03063964844</ele>
        <time>2015-12-03T15:16:28Z</time>
      </trkpt>
      <trkpt lat="48.09269" lon="-4.19225">
        <ele>213.0693359375</ele>
        <time>2015-12-03T15:16:34Z</time>
      </trkpt>
      <trkpt lat="48.09265" lon="-4.19236">
        <ele>211.62744140625</ele>
        <time>2015-12-03T15:16:41Z</time>
      </trkpt>
      <trkpt lat="48.0926" lon="-4.19248">
        <ele>210.18542480469</ele>
        <time>2015-12-03T15:16:49Z</time>
      </trkpt>
      <trkpt lat="48.09255" lon="-4.19261">
        <ele>209.22412109375</ele>
        <time>2015-12-03T15:16:57Z</time>
      </trkpt>
      <trkpt lat="48.09249" lon="-4.19273">
        <ele>208.74340820312</ele>
        <time>2015-12-03T15:17:04Z</time>
      </trkpt>
      <trkpt lat="48.09246" lon="-4.19279">
        <ele>207.78210449219</ele>
        <time>2015-12-03T15:17:08Z</time>
      </trkpt>
      <trkpt lat="48.09241" lon="-4.19287">
        <ele>205.85949707031</ele>
        <time>2015-12-03T15:17:14Z</time>
      </trkpt>
      <trkpt lat="48.09238" lon="-4.19294">
        <ele>204.41748046875</ele>
        <time>2015-12-03T15:17:19Z</time>
      </trkpt>
      <trkpt lat="48.09235" lon="-4.19298">
        <ele>202.01428222656</ele>
        <time>2015-12-03T15:17:23Z</time>
      </trkpt>
      <trkpt lat="48.09231" lon="-4.1931">
        <ele>201.05285644531</ele>
        <time>2015-12-03T15:17:30Z</time>
      </trkpt>
      <trkpt lat="48.09228" lon="-4.19314">
        <ele>199.61083984375</ele>
        <time>2015-12-03T15:17:34Z</time>
      </trkpt>
      <trkpt lat="48.09223" lon="-4.19324">
        <ele>198.1689453125</ele>
        <time>2015-12-03T15:17:41Z</time>
      </trkpt>
      <trkpt lat="48.09221" lon="-4.19332">
        <ele>196.72692871094</ele>
        <time>2015-12-03T15:17:45Z</time>
      </trkpt>
      <trkpt lat="48.09219" lon="-4.19337">
        <ele>195.765625</ele>
        <time>2015-12-03T15:17:48Z</time>
      </trkpt>
      <trkpt lat="48.09217" lon="-4.19344">
        <ele>195.765625</ele>
        <time>2015-12-03T15:17:52Z</time>
      </trkpt>
      <trkpt lat="48.09215" lon="-4.19356">
        <ele>195.765625</ele>
        <time>2015-12-03T15:17:58Z</time>
      </trkpt>
      <trkpt lat="48.09211" lon="-4.19367">
        <ele>198.1689453125</ele>
        <time>2015-12-03T15:18:05Z</time>
      </trkpt>
      <trkpt lat="48.09211" lon="-4.19371">
        <ele>197.68823242188</ele>
        <time>2015-12-03T15:18:07Z</time>
      </trkpt>
      <trkpt lat="48.0921" lon="-4.19381">
        <ele>195.765625</ele>
        <time>2015-12-03T15:18:13Z</time>
      </trkpt>
      <trkpt lat="48.09212" lon="-4.19394">
        <ele>195.765625</ele>
        <time>2015-12-03T15:18:19Z</time>
      </trkpt>
      <trkpt lat="48.09218" lon="-4.19405">
        <ele>195.765625</ele>
        <time>2015-12-03T15:18:26Z</time>
      </trkpt>
      <trkpt lat="48.09221" lon="-4.19409">
        <ele>194.80432128906</ele>
        <time>2015-12-03T15:18:29Z</time>
      </trkpt>
      <trkpt lat="48.09223" lon="-4.19411">
        <ele>194.32373046875</ele>
        <time>2015-12-03T15:18:31Z</time>
      </trkpt>
      <trkpt lat="48.09228" lon="-4.19416">
        <ele>193.3623046875</ele>
        <time>2015-12-03T15:18:36Z</time>
      </trkpt>
      <trkpt lat="48.09235" lon="-4.19423">
        <ele>189.99768066406</ele>
        <time>2015-12-03T15:18:44Z</time>
      </trkpt>
      <trkpt lat="48.0924" lon="-4.19425">
        <ele>189.99768066406</ele>
        <time>2015-12-03T15:18:48Z</time>
      </trkpt>
      <trkpt lat="48.09247" lon="-4.19429">
        <ele>189.51696777344</ele>
        <time>2015-12-03T15:18:54Z</time>
      </trkpt>
      <trkpt lat="48.09256" lon="-4.19434">
        <ele>188.55578613281</ele>
        <time>2015-12-03T15:19:01Z</time>
      </trkpt>
      <trkpt lat="48.09264" lon="-4.1944">
        <ele>189.03637695312</ele>
        <time>2015-12-03T15:19:09Z</time>
      </trkpt>
      <trkpt lat="48.09268" lon="-4.19445">
        <ele>190.47839355469</ele>
        <time>2015-12-03T15:19:13Z</time>
      </trkpt>
      <trkpt lat="48.09271" lon="-4.19448">
        <ele>190.958984375</ele>
        <time>2015-12-03T15:19:16Z</time>
      </trkpt>
      <trkpt lat="48.09273" lon="-4.19452">
        <ele>190.47839355469</ele>
        <time>2015-12-03T15:19:21Z</time>
      </trkpt>
      <trkpt lat="48.09277" lon="-4.19452">
        <ele>191.92028808594</ele>
        <time>2015-12-03T15:19:25Z</time>
      </trkpt>
      <trkpt lat="48.09279" lon="-4.19455">
        <ele>191.92028808594</ele>
        <time>2015-12-03T15:19:29Z</time>
      </trkpt>
      <trkpt lat="48.09284" lon="-4.19457">
        <ele>191.92028808594</ele>
        <time>2015-12-03T15:19:34Z</time>
      </trkpt>
      <trkpt lat="48.0929" lon="-4.19462">
        <ele>190.47839355469</ele>
        <time>2015-12-03T15:19:41Z</time>
      </trkpt>
      <trkpt lat="48.09293" lon="-4.19464">
        <ele>191.43957519531</ele>
        <time>2015-12-03T15:19:45Z</time>
      </trkpt>
      <trkpt lat="48.09298" lon="-4.19469">
        <ele>191.92028808594</ele>
        <time>2015-12-03T15:19:52Z</time>
      </trkpt>
      <trkpt lat="48.093" lon="-4.19472">
        <ele>192.40112304688</ele>
        <time>2015-12-03T15:19:58Z</time>
      </trkpt>
      <trkpt lat="48.09299" lon="-4.19474">
        <ele>192.40112304688</ele>
        <time>2015-12-03T15:20:02Z</time>
      </trkpt>
      <trkpt lat="48.093" lon="-4.19481">
        <ele>192.40112304688</ele>
        <time>2015-12-03T15:20:08Z</time>
      </trkpt>
      <trkpt lat="48.09301" lon="-4.1949">
        <ele>192.88171386719</ele>
        <time>2015-12-03T15:20:15Z</time>
      </trkpt>
      <trkpt lat="48.09305" lon="-4.19493">
        <ele>193.84301757812</ele>
        <time>2015-12-03T15:20:21Z</time>
      </trkpt>
      <trkpt lat="48.09311" lon="-4.19491">
        <ele>194.32373046875</ele>
        <time>2015-12-03T15:20:26Z</time>
      </trkpt>
      <trkpt lat="48.09315" lon="-4.19491">
        <ele>193.84301757812</ele>
        <time>2015-12-03T15:20:31Z</time>
      </trkpt>
      <trkpt lat="48.09317" lon="-4.19498">
        <ele>195.765625</ele>
        <time>2015-12-03T15:20:38Z</time>
      </trkpt>
      <trkpt lat="48.09317" lon="-4.19498">
        <ele>195.765625</ele>
        <time>2015-12-03T15:20:44Z</time>
      </trkpt>
      <trkpt lat="48.09316" lon="-4.19504">
        <ele>197.68823242188</ele>
        <time>2015-12-03T15:20:49Z</time>
      </trkpt>
      <trkpt lat="48.09314" lon="-4.19509">
        <ele>199.13012695312</ele>
        <time>2015-12-03T15:20:53Z</time>
      </trkpt>
      <trkpt lat="48.09309" lon="-4.19521">
        <ele>201.05285644531</ele>
        <time>2015-12-03T15:21:01Z</time>
      </trkpt>
      <trkpt lat="48.09305" lon="-4.19529">
        <ele>201.05285644531</ele>
        <time>2015-12-03T15:21:07Z</time>
      </trkpt>
      <trkpt lat="48.09304" lon="-4.1953">
        <ele>201.53356933594</ele>
        <time>2015-12-03T15:21:08Z</time>
      </trkpt>
      <trkpt lat="48.093" lon="-4.19536">
        <ele>204.41748046875</ele>
        <time>2015-12-03T15:21:12Z</time>
      </trkpt>
      <trkpt lat="48.09296" lon="-4.19546">
        <ele>205.37878417969</ele>
        <time>2015-12-03T15:21:19Z</time>
      </trkpt>
      <trkpt lat="48.09294" lon="-4.19553">
        <ele>204.89807128906</ele>
        <time>2015-12-03T15:21:24Z</time>
      </trkpt>
      <trkpt lat="48.0929" lon="-4.19564">
        <ele>205.85949707031</ele>
        <time>2015-12-03T15:21:31Z</time>
      </trkpt>
      <trkpt lat="48.09288" lon="-4.19566">
        <ele>206.82067871094</ele>
        <time>2015-12-03T15:21:33Z</time>
      </trkpt>
      <trkpt lat="48.09285" lon="-4.1958">
        <ele>206.34008789062</ele>
        <time>2015-12-03T15:21:41Z</time>
      </trkpt>
      <trkpt lat="48.09281" lon="-4.19591">
        <ele>207.30139160156</ele>
        <time>2015-12-03T15:21:48Z</time>
      </trkpt>
      <trkpt lat="48.09278" lon="-4.19603">
        <ele>206.34008789062</ele>
        <time>2015-12-03T15:21:54Z</time>
      </trkpt>
      <trkpt lat="48.09275" lon="-4.19613">
        <ele>205.85949707031</ele>
        <time>2015-12-03T15:22:00Z</time>
      </trkpt>
      <trkpt lat="48.09271" lon="-4.19624">
        <ele>205.85949707031</ele>
        <time>2015-12-03T15:22:07Z</time>
      </trkpt>
      <trkpt lat="48.09269" lon="-4.19633">
        <ele>205.37878417969</ele>
        <time>2015-12-03T15:22:13Z</time>
      </trkpt>
      <trkpt lat="48.09268" lon="-4.19646">
        <ele>207.30139160156</ele>
        <time>2015-12-03T15:22:21Z</time>
      </trkpt>
      <trkpt lat="48.09272" lon="-4.19655">
        <ele>207.30139160156</ele>
        <time>2015-12-03T15:22:28Z</time>
      </trkpt>
      <trkpt lat="48.09273" lon="-4.19656">
        <ele>207.78210449219</ele>
        <time>2015-12-03T15:22:29Z</time>
      </trkpt>
      <trkpt lat="48.09277" lon="-4.19663">
        <ele>209.22412109375</ele>
        <time>2015-12-03T15:22:36Z</time>
      </trkpt>
      <trkpt lat="48.09279" lon="-4.19668">
        <ele>210.18542480469</ele>
        <time>2015-12-03T15:22:41Z</time>
      </trkpt>
      <trkpt lat="48.09284" lon="-4.19674">
        <ele>211.62744140625</ele>
        <time>2015-12-03T15:22:48Z</time>
      </trkpt>
      <trkpt lat="48.09288" lon="-4.19681">
        <ele>213.55004882812</ele>
        <time>2015-12-03T15:22:55Z</time>
      </trkpt>
      <trkpt lat="48.09291" lon="-4.19687">
        <ele>214.51123046875</ele>
        <time>2015-12-03T15:23:00Z</time>
      </trkpt>
      <trkpt lat="48.09293" lon="-4.19693">
        <ele>214.51123046875</ele>
        <time>2015-12-03T15:23:04Z</time>
      </trkpt>
      <trkpt lat="48.09298" lon="-4.197">
        <ele>213.55004882812</ele>
        <time>2015-12-03T15:23:11Z</time>
      </trkpt>
      <trkpt lat="48.09301" lon="-4.19707">
        <ele>212.10803222656</ele>
        <time>2015-12-03T15:23:16Z</time>
      </trkpt>
      <trkpt lat="48.09299" lon="-4.19713">
        <ele>212.58862304688</ele>
        <time>2015-12-03T15:23:22Z</time>
      </trkpt>
      <trkpt lat="48.09299" lon="-4.19719">
        <ele>213.0693359375</ele>
        <time>2015-12-03T15:23:25Z</time>
      </trkpt>
      <trkpt lat="48.09297" lon="-4.19728">
        <ele>212.58862304688</ele>
        <time>2015-12-03T15:23:31Z</time>
      </trkpt>
      <trkpt lat="48.09294" lon="-4.19734">
        <ele>212.58862304688</ele>
        <time>2015-12-03T15:23:34Z</time>
      </trkpt>
      <trkpt lat="48.09292" lon="-4.19745">
        <ele>213.0693359375</ele>
        <time>2015-12-03T15:23:40Z</time>
      </trkpt>
      <trkpt lat="48.09289" lon="-4.19756">
        <ele>213.55004882812</ele>
        <time>2015-12-03T15:23:46Z</time>
      </trkpt>
      <trkpt lat="48.09285" lon="-4.19771">
        <ele>214.51123046875</ele>
        <time>2015-12-03T15:23:54Z</time>
      </trkpt>
      <trkpt lat="48.09285" lon="-4.19782">
        <ele>215.47265625</ele>
        <time>2015-12-03T15:24:00Z</time>
      </trkpt>
      <trkpt lat="48.09285" lon="-4.19784">
        <ele>215.95324707031</ele>
        <time>2015-12-03T15:24:01Z</time>
      </trkpt>
      <trkpt lat="48.09288" lon="-4.19786">
        <ele>214.99194335938</ele>
        <time>2015-12-03T15:24:07Z</time>
      </trkpt>
      <trkpt lat="48.09293" lon="-4.19789">
        <ele>215.95324707031</ele>
        <time>2015-12-03T15:24:19Z</time>
      </trkpt>
      <trkpt lat="48.09294" lon="-4.1979">
        <ele>215.95324707031</ele>
        <time>2015-12-03T15:24:20Z</time>
      </trkpt>
      <trkpt lat="48.09302" lon="-4.19795">
        <ele>216.91467285156</ele>
        <time>2015-12-03T15:24:28Z</time>
      </trkpt>
      <trkpt lat="48.09304" lon="-4.19796">
        <ele>216.91467285156</ele>
        <time>2015-12-03T15:24:30Z</time>
      </trkpt>
      <trkpt lat="48.09311" lon="-4.19802">
        <ele>215.95324707031</ele>
        <time>2015-12-03T15:24:37Z</time>
      </trkpt>
      <trkpt lat="48.09313" lon="-4.19804">
        <ele>216.43395996094</ele>
        <time>2015-12-03T15:24:40Z</time>
      </trkpt>
      <trkpt lat="48.09319" lon="-4.19807">
        <ele>216.91467285156</ele>
        <time>2015-12-03T15:24:47Z</time>
      </trkpt>
      <trkpt lat="48.09326" lon="-4.19812">
        <ele>217.8759765625</ele>
        <time>2015-12-03T15:24:55Z</time>
      </trkpt>
      <trkpt lat="48.0933" lon="-4.19816">
        <ele>217.8759765625</ele>
        <time>2015-12-03T15:25:01Z</time>
      </trkpt>
      <trkpt lat="48.09335" lon="-4.19819">
        <ele>217.39538574219</ele>
        <time>2015-12-03T15:25:06Z</time>
      </trkpt>
      <trkpt lat="48.09338" lon="-4.19825">
        <ele>214.99194335938</ele>
        <time>2015-12-03T15:25:09Z</time>
      </trkpt>
      <trkpt lat="48.09342" lon="-4.19831">
        <ele>215.95324707031</ele>
        <time>2015-12-03T15:25:13Z</time>
      </trkpt>
      <trkpt lat="48.09346" lon="-4.19843">
        <ele>214.03063964844</ele>
        <time>2015-12-03T15:25:20Z</time>
      </trkpt>
      <trkpt lat="48.09346" lon="-4.19848">
        <ele>213.0693359375</ele>
        <time>2015-12-03T15:25:24Z</time>
      </trkpt>
      <trkpt lat="48.09349" lon="-4.19855">
        <ele>210.666015625</ele>
        <time>2015-12-03T15:25:28Z</time>
      </trkpt>
      <trkpt lat="48.09349" lon="-4.19858">
        <ele>210.666015625</ele>
        <time>2015-12-03T15:25:30Z</time>
      </trkpt>
      <trkpt lat="48.0935" lon="-4.1986">
        <ele>212.10803222656</ele>
        <time>2015-12-03T15:25:36Z</time>
      </trkpt>
      <trkpt lat="48.09351" lon="-4.19857">
        <ele>212.58862304688</ele>
        <time>2015-12-03T15:25:43Z</time>
      </trkpt>
      <trkpt lat="48.0935" lon="-4.19857">
        <ele>210.666015625</ele>
        <time>2015-12-03T15:25:47Z</time>
      </trkpt>
      <trkpt lat="48.09347" lon="-4.19863">
        <ele>218.83728027344</ele>
        <time>2015-12-03T15:25:53Z</time>
      </trkpt>
      <trkpt lat="48.09353" lon="-4.19862">
        <ele>223.16320800781</ele>
        <time>2015-12-03T15:26:04Z</time>
      </trkpt>
      <trkpt lat="48.09355" lon="-4.19863">
        <ele>227.00854492188</ele>
        <time>2015-12-03T15:26:15Z</time>
      </trkpt>
      <trkpt lat="48.09352" lon="-4.19863">
        <ele>215.47265625</ele>
        <time>2015-12-03T15:26:34Z</time>
      </trkpt>
      <trkpt lat="48.09351" lon="-4.19868">
        <ele>219.31799316406</ele>
        <time>2015-12-03T15:27:16Z</time>
      </trkpt>
      <trkpt lat="48.09352" lon="-4.19869">
        <ele>218.35656738281</ele>
        <time>2015-12-03T15:27:22Z</time>
      </trkpt>
      <trkpt lat="48.09356" lon="-4.19869">
        <ele>216.91467285156</ele>
        <time>2015-12-03T15:27:32Z</time>
      </trkpt>
      <trkpt lat="48.0936" lon="-4.19872">
        <ele>212.10803222656</ele>
        <time>2015-12-03T15:27:40Z</time>
      </trkpt>
      <trkpt lat="48.09364" lon="-4.19878">
        <ele>209.22412109375</ele>
        <time>2015-12-03T15:27:47Z</time>
      </trkpt>
      <trkpt lat="48.0937" lon="-4.19883">
        <ele>211.62744140625</ele>
        <time>2015-12-03T15:27:53Z</time>
      </trkpt>
      <trkpt lat="48.09373" lon="-4.19886">
        <ele>213.55004882812</ele>
        <time>2015-12-03T15:27:58Z</time>
      </trkpt>
      <trkpt lat="48.09373" lon="-4.19888">
        <ele>213.0693359375</ele>
        <time>2015-12-03T15:27:59Z</time>
      </trkpt>
      <trkpt lat="48.09377" lon="-4.19892">
        <ele>211.14672851562</ele>
        <time>2015-12-03T15:28:04Z</time>
      </trkpt>
      <trkpt lat="48.09381" lon="-4.19897">
        <ele>210.18542480469</ele>
        <time>2015-12-03T15:28:09Z</time>
      </trkpt>
      <trkpt lat="48.09385" lon="-4.19899">
        <ele>207.78210449219</ele>
        <time>2015-12-03T15:28:13Z</time>
      </trkpt>
      <trkpt lat="48.09388" lon="-4.19903">
        <ele>204.41748046875</ele>
        <time>2015-12-03T15:28:18Z</time>
      </trkpt>
      <trkpt lat="48.0939" lon="-4.19904">
        <ele>204.41748046875</ele>
        <time>2015-12-03T15:28:20Z</time>
      </trkpt>
      <trkpt lat="48.09401" lon="-4.19907">
        <ele>205.85949707031</ele>
        <time>2015-12-03T15:28:28Z</time>
      </trkpt>
      <trkpt lat="48.09409" lon="-4.19909">
        <ele>207.30139160156</ele>
        <time>2015-12-03T15:28:33Z</time>
      </trkpt>
      <trkpt lat="48.09413" lon="-4.19909">
        <ele>209.22412109375</ele>
        <time>2015-12-03T15:28:35Z</time>
      </trkpt>
      <trkpt lat="48.09415" lon="-4.19911">
        <ele>208.74340820312</ele>
        <time>2015-12-03T15:28:37Z</time>
      </trkpt>
      <trkpt lat="48.09419" lon="-4.19913">
        <ele>207.30139160156</ele>
        <time>2015-12-03T15:28:41Z</time>
      </trkpt>
      <trkpt lat="48.09426" lon="-4.19915">
        <ele>205.85949707031</ele>
        <time>2015-12-03T15:28:47Z</time>
      </trkpt>
      <trkpt lat="48.09432" lon="-4.19915">
        <ele>202.97546386719</ele>
        <time>2015-12-03T15:28:53Z</time>
      </trkpt>
      <trkpt lat="48.09436" lon="-4.19916">
        <ele>202.97546386719</ele>
        <time>2015-12-03T15:28:56Z</time>
      </trkpt>
      <trkpt lat="48.09449" lon="-4.19921">
        <ele>205.85949707031</ele>
        <time>2015-12-03T15:29:04Z</time>
      </trkpt>
      <trkpt lat="48.09453" lon="-4.19923">
        <ele>208.26281738281</ele>
        <time>2015-12-03T15:29:07Z</time>
      </trkpt>
      <trkpt lat="48.0946" lon="-4.19921">
        <ele>212.58862304688</ele>
        <time>2015-12-03T15:29:13Z</time>
      </trkpt>
      <trkpt lat="48.09465" lon="-4.19916">
        <ele>214.99194335938</ele>
        <time>2015-12-03T15:29:20Z</time>
      </trkpt>
      <trkpt lat="48.09469" lon="-4.19913">
        <ele>212.58862304688</ele>
        <time>2015-12-03T15:29:23Z</time>
      </trkpt>
      <trkpt lat="48.09476" lon="-4.19903">
        <ele>211.14672851562</ele>
        <time>2015-12-03T15:29:29Z</time>
      </trkpt>
      <trkpt lat="48.09479" lon="-4.19902">
        <ele>214.03063964844</ele>
        <time>2015-12-03T15:29:31Z</time>
      </trkpt>
      <trkpt lat="48.09485" lon="-4.19894">
        <ele>217.8759765625</ele>
        <time>2015-12-03T15:29:37Z</time>
      </trkpt>
      <trkpt lat="48.0949" lon="-4.19889">
        <ele>215.95324707031</ele>
        <time>2015-12-03T15:29:41Z</time>
      </trkpt>
      <trkpt lat="48.0949" lon="-4.19887">
        <ele>216.43395996094</ele>
        <time>2015-12-03T15:29:43Z</time>
      </trkpt>
      <trkpt lat="48.09493" lon="-4.19883">
        <ele>216.43395996094</ele>
        <time>2015-12-03T15:29:47Z</time>
      </trkpt>
      <trkpt lat="48.09499" lon="-4.19874">
        <ele>213.55004882812</ele>
        <time>2015-12-03T15:29:53Z</time>
      </trkpt>
      <trkpt lat="48.09499" lon="-4.19869">
        <ele>212.10803222656</ele>
        <time>2015-12-03T15:29:56Z</time>
      </trkpt>
      <trkpt lat="48.095" lon="-4.19866">
        <ele>211.62744140625</ele>
        <time>2015-12-03T15:29:59Z</time>
      </trkpt>
      <trkpt lat="48.09502" lon="-4.19864">
        <ele>211.62744140625</ele>
        <time>2015-12-03T15:30:02Z</time>
      </trkpt>
      <trkpt lat="48.09506" lon="-4.19863">
        <ele>212.58862304688</ele>
        <time>2015-12-03T15:30:06Z</time>
      </trkpt>
      <trkpt lat="48.09511" lon="-4.19863">
        <ele>213.0693359375</ele>
        <time>2015-12-03T15:30:09Z</time>
      </trkpt>
      <trkpt lat="48.09515" lon="-4.19856">
        <ele>207.78210449219</ele>
        <time>2015-12-03T15:30:14Z</time>
      </trkpt>
      <trkpt lat="48.0952" lon="-4.1985">
        <ele>202.49487304688</ele>
        <time>2015-12-03T15:30:19Z</time>
      </trkpt>
      <trkpt lat="48.09522" lon="-4.1985">
        <ele>202.49487304688</ele>
        <time>2015-12-03T15:30:20Z</time>
      </trkpt>
      <trkpt lat="48.09526" lon="-4.19846">
        <ele>201.05285644531</ele>
        <time>2015-12-03T15:30:26Z</time>
      </trkpt>
      <trkpt lat="48.09531" lon="-4.19842">
        <ele>196.24633789062</ele>
        <time>2015-12-03T15:30:31Z</time>
      </trkpt>
      <trkpt lat="48.09534" lon="-4.19838">
        <ele>194.80432128906</ele>
        <time>2015-12-03T15:30:34Z</time>
      </trkpt>
      <trkpt lat="48.09536" lon="-4.19833">
        <ele>193.3623046875</ele>
        <time>2015-12-03T15:30:38Z</time>
      </trkpt>
      <trkpt lat="48.0954" lon="-4.19828">
        <ele>193.84301757812</ele>
        <time>2015-12-03T15:30:43Z</time>
      </trkpt>
      <trkpt lat="48.09545" lon="-4.1982">
        <ele>191.92028808594</ele>
        <time>2015-12-03T15:30:49Z</time>
      </trkpt>
      <trkpt lat="48.09545" lon="-4.19818">
        <ele>191.43957519531</ele>
        <time>2015-12-03T15:30:50Z</time>
      </trkpt>
      <trkpt lat="48.09548" lon="-4.19809">
        <ele>192.40112304688</ele>
        <time>2015-12-03T15:30:56Z</time>
      </trkpt>
      <trkpt lat="48.09553" lon="-4.19798">
        <ele>192.88171386719</ele>
        <time>2015-12-03T15:31:04Z</time>
      </trkpt>
      <trkpt lat="48.09557" lon="-4.19788">
        <ele>192.88171386719</ele>
        <time>2015-12-03T15:31:11Z</time>
      </trkpt>
      <trkpt lat="48.09557" lon="-4.19783">
        <ele>191.92028808594</ele>
        <time>2015-12-03T15:31:15Z</time>
      </trkpt>
      <trkpt lat="48.0956" lon="-4.19772">
        <ele>190.958984375</ele>
        <time>2015-12-03T15:31:22Z</time>
      </trkpt>
      <trkpt lat="48.0956" lon="-4.19768">
        <ele>190.958984375</ele>
        <time>2015-12-03T15:31:24Z</time>
      </trkpt>
      <trkpt lat="48.09562" lon="-4.19765">
        <ele>190.47839355469</ele>
        <time>2015-12-03T15:31:26Z</time>
      </trkpt>
      <trkpt lat="48.09568" lon="-4.19763">
        <ele>191.43957519531</ele>
        <time>2015-12-03T15:31:30Z</time>
      </trkpt>
      <trkpt lat="48.09571" lon="-4.19758">
        <ele>191.43957519531</ele>
        <time>2015-12-03T15:31:36Z</time>
      </trkpt>
      <trkpt lat="48.09574" lon="-4.19759">
        <ele>188.55578613281</ele>
        <time>2015-12-03T15:31:41Z</time>
      </trkpt>
      <trkpt lat="48.09576" lon="-4.19759">
        <ele>187.11376953125</ele>
        <time>2015-12-03T15:31:44Z</time>
      </trkpt>
      <trkpt lat="48.09583" lon="-4.19759">
        <ele>187.59436035156</ele>
        <time>2015-12-03T15:31:51Z</time>
      </trkpt>
      <trkpt lat="48.09587" lon="-4.19759">
        <ele>187.59436035156</ele>
        <time>2015-12-03T15:31:57Z</time>
      </trkpt>
      <trkpt lat="48.09592" lon="-4.19761">
        <ele>188.55578613281</ele>
        <time>2015-12-03T15:32:01Z</time>
      </trkpt>
      <trkpt lat="48.09595" lon="-4.19763">
        <ele>188.07507324219</ele>
        <time>2015-12-03T15:32:04Z</time>
      </trkpt>
      <trkpt lat="48.09599" lon="-4.19766">
        <ele>184.22985839844</ele>
        <time>2015-12-03T15:32:09Z</time>
      </trkpt>
      <trkpt lat="48.09605" lon="-4.19769">
        <ele>182.78784179688</ele>
        <time>2015-12-03T15:32:15Z</time>
      </trkpt>
      <trkpt lat="48.0961" lon="-4.19771">
        <ele>181.34582519531</ele>
        <time>2015-12-03T15:32:20Z</time>
      </trkpt>
      <trkpt lat="48.09615" lon="-4.19775">
        <ele>178.94262695312</ele>
        <time>2015-12-03T15:32:25Z</time>
      </trkpt>
      <trkpt lat="48.0962" lon="-4.19777">
        <ele>177.02001953125</ele>
        <time>2015-12-03T15:32:29Z</time>
      </trkpt>
      <trkpt lat="48.09624" lon="-4.1978">
        <ele>176.05859375</ele>
        <time>2015-12-03T15:32:34Z</time>
      </trkpt>
      <trkpt lat="48.09631" lon="-4.19782">
        <ele>175.09729003906</ele>
        <time>2015-12-03T15:32:39Z</time>
      </trkpt>
      <trkpt lat="48.09637" lon="-4.19789">
        <ele>170.77136230469</ele>
        <time>2015-12-03T15:32:46Z</time>
      </trkpt>
      <trkpt lat="48.09644" lon="-4.19794">
        <ele>172.21325683594</ele>
        <time>2015-12-03T15:32:52Z</time>
      </trkpt>
      <trkpt lat="48.0965" lon="-4.19796">
        <ele>173.17468261719</ele>
        <time>2015-12-03T15:32:57Z</time>
      </trkpt>
      <trkpt lat="48.09659" lon="-4.198">
        <ele>174.13586425781</ele>
        <time>2015-12-03T15:33:04Z</time>
      </trkpt>
      <trkpt lat="48.09663" lon="-4.19802">
        <ele>172.21325683594</ele>
        <time>2015-12-03T15:33:08Z</time>
      </trkpt>
      <trkpt lat="48.09667" lon="-4.19807">
        <ele>172.21325683594</ele>
        <time>2015-12-03T15:33:14Z</time>
      </trkpt>
      <trkpt lat="48.09668" lon="-4.19812">
        <ele>172.21325683594</ele>
        <time>2015-12-03T15:33:17Z</time>
      </trkpt>
      <trkpt lat="48.09668" lon="-4.19821">
        <ele>173.6552734375</ele>
        <time>2015-12-03T15:33:22Z</time>
      </trkpt>
      <trkpt lat="48.09668" lon="-4.19822">
        <ele>174.61657714844</ele>
        <time>2015-12-03T15:33:23Z</time>
      </trkpt>
      <trkpt lat="48.09668" lon="-4.19839">
        <ele>177.02001953125</ele>
        <time>2015-12-03T15:33:31Z</time>
      </trkpt>
      <trkpt lat="48.09669" lon="-4.19852">
        <ele>177.02001953125</ele>
        <time>2015-12-03T15:33:38Z</time>
      </trkpt>
      <trkpt lat="48.09672" lon="-4.19865">
        <ele>177.50061035156</ele>
        <time>2015-12-03T15:33:45Z</time>
      </trkpt>
      <trkpt lat="48.09675" lon="-4.19875">
        <ele>177.50061035156</ele>
        <time>2015-12-03T15:33:51Z</time>
      </trkpt>
      <trkpt lat="48.09676" lon="-4.19883">
        <ele>177.02001953125</ele>
        <time>2015-12-03T15:33:55Z</time>
      </trkpt>
      <trkpt lat="48.09679" lon="-4.19894">
        <ele>176.53930664062</ele>
        <time>2015-12-03T15:34:02Z</time>
      </trkpt>
      <trkpt lat="48.0968" lon="-4.19897">
        <ele>176.53930664062</ele>
        <time>2015-12-03T15:34:07Z</time>
      </trkpt>
      <trkpt lat="48.09681" lon="-4.19902">
        <ele>175.09729003906</ele>
        <time>2015-12-03T15:34:14Z</time>
      </trkpt>
      <trkpt lat="48.09685" lon="-4.19908">
        <ele>174.61657714844</ele>
        <time>2015-12-03T15:34:20Z</time>
      </trkpt>
      <trkpt lat="48.09688" lon="-4.19918">
        <ele>174.61657714844</ele>
        <time>2015-12-03T15:34:26Z</time>
      </trkpt>
      <trkpt lat="48.09688" lon="-4.1992">
        <ele>174.61657714844</ele>
        <time>2015-12-03T15:34:27Z</time>
      </trkpt>
      <trkpt lat="48.0969" lon="-4.19925">
        <ele>172.69396972656</ele>
        <time>2015-12-03T15:34:31Z</time>
      </trkpt>
      <trkpt lat="48.09696" lon="-4.19937">
        <ele>169.81005859375</ele>
        <time>2015-12-03T15:34:39Z</time>
      </trkpt>
      <trkpt lat="48.09701" lon="-4.19947">
        <ele>169.32946777344</ele>
        <time>2015-12-03T15:34:46Z</time>
      </trkpt>
      <trkpt lat="48.09704" lon="-4.19954">
        <ele>167.40673828125</ele>
        <time>2015-12-03T15:34:51Z</time>
      </trkpt>
      <trkpt lat="48.09704" lon="-4.19955">
        <ele>166.92602539062</ele>
        <time>2015-12-03T15:34:52Z</time>
      </trkpt>
      <trkpt lat="48.09708" lon="-4.19963">
        <ele>160.67749023438</ele>
        <time>2015-12-03T15:34:59Z</time>
      </trkpt>
      <trkpt lat="48.09714" lon="-4.19971">
        <ele>157.79357910156</ele>
        <time>2015-12-03T15:35:06Z</time>
      </trkpt>
      <trkpt lat="48.09714" lon="-4.19972">
        <ele>157.79357910156</ele>
        <time>2015-12-03T15:35:07Z</time>
      </trkpt>
      <trkpt lat="48.09718" lon="-4.19975">
        <ele>157.79357910156</ele>
        <time>2015-12-03T15:35:13Z</time>
      </trkpt>
      <trkpt lat="48.09723" lon="-4.19975">
        <ele>160.19689941406</ele>
        <time>2015-12-03T15:35:17Z</time>
      </trkpt>
      <trkpt lat="48.09729" lon="-4.19977">
        <ele>160.67749023438</ele>
        <time>2015-12-03T15:35:22Z</time>
      </trkpt>
      <trkpt lat="48.09733" lon="-4.19981">
        <ele>161.158203125</ele>
        <time>2015-12-03T15:35:27Z</time>
      </trkpt>
      <trkpt lat="48.09734" lon="-4.19997">
        <ele>163.5615234375</ele>
        <time>2015-12-03T15:35:35Z</time>
      </trkpt>
      <trkpt lat="48.09737" lon="-4.20009">
        <ele>164.04211425781</ele>
        <time>2015-12-03T15:35:42Z</time>
      </trkpt>
      <trkpt lat="48.0974" lon="-4.20023">
        <ele>164.04211425781</ele>
        <time>2015-12-03T15:35:49Z</time>
      </trkpt>
      <trkpt lat="48.09744" lon="-4.20035">
        <ele>164.52270507812</ele>
        <time>2015-12-03T15:35:56Z</time>
      </trkpt>
      <trkpt lat="48.09745" lon="-4.20039">
        <ele>164.52270507812</ele>
        <time>2015-12-03T15:35:58Z</time>
      </trkpt>
      <trkpt lat="48.09752" lon="-4.20052">
        <ele>162.11950683594</ele>
        <time>2015-12-03T15:36:06Z</time>
      </trkpt>
      <trkpt lat="48.09755" lon="-4.20064">
        <ele>162.11950683594</ele>
        <time>2015-12-03T15:36:13Z</time>
      </trkpt>
      <trkpt lat="48.0976" lon="-4.20074">
        <ele>162.60009765625</ele>
        <time>2015-12-03T15:36:19Z</time>
      </trkpt>
      <trkpt lat="48.09764" lon="-4.20084">
        <ele>161.158203125</ele>
        <time>2015-12-03T15:36:25Z</time>
      </trkpt>
      <trkpt lat="48.09766" lon="-4.2009">
        <ele>160.19689941406</ele>
        <time>2015-12-03T15:36:29Z</time>
      </trkpt>
      <trkpt lat="48.09769" lon="-4.20098">
        <ele>160.67749023438</ele>
        <time>2015-12-03T15:36:33Z</time>
      </trkpt>
      <trkpt lat="48.09773" lon="-4.20106">
        <ele>162.60009765625</ele>
        <time>2015-12-03T15:36:38Z</time>
      </trkpt>
      <trkpt lat="48.0978" lon="-4.2012">
        <ele>165.48413085938</ele>
        <time>2015-12-03T15:36:47Z</time>
      </trkpt>
      <trkpt lat="48.09785" lon="-4.20135">
        <ele>165.48413085938</ele>
        <time>2015-12-03T15:36:55Z</time>
      </trkpt>
      <trkpt lat="48.09789" lon="-4.20148">
        <ele>165.96472167969</ele>
        <time>2015-12-03T15:37:02Z</time>
      </trkpt>
      <trkpt lat="48.09794" lon="-4.2016">
        <ele>166.92602539062</ele>
        <time>2015-12-03T15:37:09Z</time>
      </trkpt>
      <trkpt lat="48.09795" lon="-4.20165">
        <ele>166.4453125</ele>
        <time>2015-12-03T15:37:12Z</time>
      </trkpt>
      <trkpt lat="48.09799" lon="-4.20173">
        <ele>166.92602539062</ele>
        <time>2015-12-03T15:37:17Z</time>
      </trkpt>
      <trkpt lat="48.09803" lon="-4.20185">
        <ele>167.40673828125</ele>
        <time>2015-12-03T15:37:24Z</time>
      </trkpt>
      <trkpt lat="48.09804" lon="-4.20189">
        <ele>166.4453125</ele>
        <time>2015-12-03T15:37:26Z</time>
      </trkpt>
      <trkpt lat="48.09811" lon="-4.20205">
        <ele>166.92602539062</ele>
        <time>2015-12-03T15:37:35Z</time>
      </trkpt>
      <trkpt lat="48.09816" lon="-4.2022">
        <ele>166.92602539062</ele>
        <time>2015-12-03T15:37:43Z</time>
      </trkpt>
      <trkpt lat="48.0982" lon="-4.20231">
        <ele>166.92602539062</ele>
        <time>2015-12-03T15:37:50Z</time>
      </trkpt>
      <trkpt lat="48.09824" lon="-4.20243">
        <ele>165.96472167969</ele>
        <time>2015-12-03T15:37:57Z</time>
      </trkpt>
      <trkpt lat="48.0983" lon="-4.20257">
        <ele>165.48413085938</ele>
        <time>2015-12-03T15:38:05Z</time>
      </trkpt>
      <trkpt lat="48.09834" lon="-4.2027">
        <ele>164.52270507812</ele>
        <time>2015-12-03T15:38:13Z</time>
      </trkpt>
      <trkpt lat="48.09839" lon="-4.20284">
        <ele>164.04211425781</ele>
        <time>2015-12-03T15:38:20Z</time>
      </trkpt>
      <trkpt lat="48.09843" lon="-4.20298">
        <ele>164.04211425781</ele>
        <time>2015-12-03T15:38:28Z</time>
      </trkpt>
      <trkpt lat="48.09847" lon="-4.2031">
        <ele>163.08081054688</ele>
        <time>2015-12-03T15:38:35Z</time>
      </trkpt>
      <trkpt lat="48.09851" lon="-4.20319">
        <ele>163.08081054688</ele>
        <time>2015-12-03T15:38:40Z</time>
      </trkpt>
      <trkpt lat="48.09854" lon="-4.20326">
        <ele>163.08081054688</ele>
        <time>2015-12-03T15:38:44Z</time>
      </trkpt>
      <trkpt lat="48.09858" lon="-4.20344">
        <ele>162.11950683594</ele>
        <time>2015-12-03T15:38:53Z</time>
      </trkpt>
      <trkpt lat="48.09859" lon="-4.20348">
        <ele>161.63891601562</ele>
        <time>2015-12-03T15:38:55Z</time>
      </trkpt>
      <trkpt lat="48.09863" lon="-4.20361">
        <ele>160.67749023438</ele>
        <time>2015-12-03T15:39:02Z</time>
      </trkpt>
      <trkpt lat="48.09867" lon="-4.20373">
        <ele>161.63891601562</ele>
        <time>2015-12-03T15:39:09Z</time>
      </trkpt>
      <trkpt lat="48.09873" lon="-4.20384">
        <ele>162.11950683594</ele>
        <time>2015-12-03T15:39:16Z</time>
      </trkpt>
      <trkpt lat="48.09876" lon="-4.20397">
        <ele>160.67749023438</ele>
        <time>2015-12-03T15:39:23Z</time>
      </trkpt>
      <trkpt lat="48.09882" lon="-4.20415">
        <ele>160.67749023438</ele>
        <time>2015-12-03T15:39:33Z</time>
      </trkpt>
      <trkpt lat="48.09886" lon="-4.20427">
        <ele>160.19689941406</ele>
        <time>2015-12-03T15:39:40Z</time>
      </trkpt>
      <trkpt lat="48.0989" lon="-4.20444">
        <ele>160.67749023438</ele>
        <time>2015-12-03T15:39:49Z</time>
      </trkpt>
      <trkpt lat="48.09891" lon="-4.20462">
        <ele>160.19689941406</ele>
        <time>2015-12-03T15:39:58Z</time>
      </trkpt>
      <trkpt lat="48.09892" lon="-4.2047">
        <ele>160.19689941406</ele>
        <time>2015-12-03T15:40:02Z</time>
      </trkpt>
      <trkpt lat="48.09891" lon="-4.20478">
        <ele>160.67749023438</ele>
        <time>2015-12-03T15:40:06Z</time>
      </trkpt>
      <trkpt lat="48.0989" lon="-4.20484">
        <ele>162.11950683594</ele>
        <time>2015-12-03T15:40:09Z</time>
      </trkpt>
      <trkpt lat="48.0989" lon="-4.20494">
        <ele>162.11950683594</ele>
        <time>2015-12-03T15:40:14Z</time>
      </trkpt>
      <trkpt lat="48.0989" lon="-4.20507">
        <ele>162.60009765625</ele>
        <time>2015-12-03T15:40:21Z</time>
      </trkpt>
      <trkpt lat="48.09887" lon="-4.20527">
        <ele>162.60009765625</ele>
        <time>2015-12-03T15:40:31Z</time>
      </trkpt>
      <trkpt lat="48.09884" lon="-4.20545">
        <ele>161.63891601562</ele>
        <time>2015-12-03T15:40:40Z</time>
      </trkpt>
      <trkpt lat="48.09881" lon="-4.20565">
        <ele>162.11950683594</ele>
        <time>2015-12-03T15:40:50Z</time>
      </trkpt>
      <trkpt lat="48.0988" lon="-4.20582">
        <ele>163.5615234375</ele>
        <time>2015-12-03T15:40:59Z</time>
      </trkpt>
      <trkpt lat="48.09878" lon="-4.20595">
        <ele>163.08081054688</ele>
        <time>2015-12-03T15:41:06Z</time>
      </trkpt>
      <trkpt lat="48.09876" lon="-4.20609">
        <ele>163.5615234375</ele>
        <time>2015-12-03T15:41:13Z</time>
      </trkpt>
      <trkpt lat="48.09872" lon="-4.2062">
        <ele>162.60009765625</ele>
        <time>2015-12-03T15:41:20Z</time>
      </trkpt>
      <trkpt lat="48.0987" lon="-4.20633">
        <ele>161.158203125</ele>
        <time>2015-12-03T15:41:27Z</time>
      </trkpt>
      <trkpt lat="48.0987" lon="-4.20636">
        <ele>161.158203125</ele>
        <time>2015-12-03T15:41:29Z</time>
      </trkpt>
      <trkpt lat="48.09868" lon="-4.20649">
        <ele>163.5615234375</ele>
        <time>2015-12-03T15:41:35Z</time>
      </trkpt>
      <trkpt lat="48.09868" lon="-4.20655">
        <ele>164.04211425781</ele>
        <time>2015-12-03T15:41:38Z</time>
      </trkpt>
      <trkpt lat="48.09866" lon="-4.2067">
        <ele>167.40673828125</ele>
        <time>2015-12-03T15:41:46Z</time>
      </trkpt>
      <trkpt lat="48.09862" lon="-4.20685">
        <ele>167.88732910156</ele>
        <time>2015-12-03T15:41:54Z</time>
      </trkpt>
      <trkpt lat="48.09857" lon="-4.207">
        <ele>166.92602539062</ele>
        <time>2015-12-03T15:42:03Z</time>
      </trkpt>
      <trkpt lat="48.09855" lon="-4.20712">
        <ele>165.00341796875</ele>
        <time>2015-12-03T15:42:09Z</time>
      </trkpt>
      <trkpt lat="48.09852" lon="-4.20728">
        <ele>161.158203125</ele>
        <time>2015-12-03T15:42:17Z</time>
      </trkpt>
      <trkpt lat="48.09851" lon="-4.20735">
        <ele>159.71618652344</ele>
        <time>2015-12-03T15:42:21Z</time>
      </trkpt>
      <trkpt lat="48.09851" lon="-4.20742">
        <ele>157.79357910156</ele>
        <time>2015-12-03T15:42:25Z</time>
      </trkpt>
      <trkpt lat="48.0985" lon="-4.20748">
        <ele>157.31286621094</ele>
        <time>2015-12-03T15:42:28Z</time>
      </trkpt>
      <trkpt lat="48.09848" lon="-4.2076">
        <ele>156.83215332031</ele>
        <time>2015-12-03T15:42:35Z</time>
      </trkpt>
      <trkpt lat="48.09846" lon="-4.20775">
        <ele>160.67749023438</ele>
        <time>2015-12-03T15:42:43Z</time>
      </trkpt>
      <trkpt lat="48.09844" lon="-4.20784">
        <ele>161.63891601562</ele>
        <time>2015-12-03T15:42:48Z</time>
      </trkpt>
      <trkpt lat="48.09843" lon="-4.20791">
        <ele>162.60009765625</ele>
        <time>2015-12-03T15:42:52Z</time>
      </trkpt>
      <trkpt lat="48.09842" lon="-4.20792">
        <ele>162.60009765625</ele>
        <time>2015-12-03T15:42:53Z</time>
      </trkpt>
      <trkpt lat="48.09841" lon="-4.20797">
        <ele>163.5615234375</ele>
        <time>2015-12-03T15:42:57Z</time>
      </trkpt>
      <trkpt lat="48.09841" lon="-4.20806">
        <ele>164.52270507812</ele>
        <time>2015-12-03T15:43:02Z</time>
      </trkpt>
      <trkpt lat="48.0984" lon="-4.20812">
        <ele>165.00341796875</ele>
        <time>2015-12-03T15:43:05Z</time>
      </trkpt>
      <trkpt lat="48.09837" lon="-4.20824">
        <ele>162.11950683594</ele>
        <time>2015-12-03T15:43:11Z</time>
      </trkpt>
      <trkpt lat="48.09836" lon="-4.20825">
        <ele>161.158203125</ele>
        <time>2015-12-03T15:43:12Z</time>
      </trkpt>
      <trkpt lat="48.09831" lon="-4.20835">
        <ele>159.71618652344</ele>
        <time>2015-12-03T15:43:18Z</time>
      </trkpt>
      <trkpt lat="48.09825" lon="-4.20843">
        <ele>159.23547363281</ele>
        <time>2015-12-03T15:43:24Z</time>
      </trkpt>
      <trkpt lat="48.09822" lon="-4.20848">
        <ele>158.27416992188</ele>
        <time>2015-12-03T15:43:28Z</time>
      </trkpt>
      <trkpt lat="48.09821" lon="-4.20851">
        <ele>157.79357910156</ele>
        <time>2015-12-03T15:43:30Z</time>
      </trkpt>
      <trkpt lat="48.09818" lon="-4.20864">
        <ele>158.75476074219</ele>
        <time>2015-12-03T15:43:38Z</time>
      </trkpt>
      <trkpt lat="48.09818" lon="-4.20866">
        <ele>158.75476074219</ele>
        <time>2015-12-03T15:43:39Z</time>
      </trkpt>
      <trkpt lat="48.09817" lon="-4.20874">
        <ele>159.23547363281</ele>
        <time>2015-12-03T15:43:43Z</time>
      </trkpt>
      <trkpt lat="48.09816" lon="-4.20891">
        <ele>158.27416992188</ele>
        <time>2015-12-03T15:43:51Z</time>
      </trkpt>
      <trkpt lat="48.09816" lon="-4.20897">
        <ele>157.79357910156</ele>
        <time>2015-12-03T15:43:54Z</time>
      </trkpt>
      <trkpt lat="48.09814" lon="-4.20909">
        <ele>158.27416992188</ele>
        <time>2015-12-03T15:44:00Z</time>
      </trkpt>
      <trkpt lat="48.09812" lon="-4.20928">
        <ele>156.83215332031</ele>
        <time>2015-12-03T15:44:10Z</time>
      </trkpt>
      <trkpt lat="48.09811" lon="-4.20939">
        <ele>156.83215332031</ele>
        <time>2015-12-03T15:44:15Z</time>
      </trkpt>
      <trkpt lat="48.09809" lon="-4.20953">
        <ele>159.23547363281</ele>
        <time>2015-12-03T15:44:22Z</time>
      </trkpt>
      <trkpt lat="48.09806" lon="-4.20971">
        <ele>159.23547363281</ele>
        <time>2015-12-03T15:44:32Z</time>
      </trkpt>
      <trkpt lat="48.09806" lon="-4.20975">
        <ele>159.71618652344</ele>
        <time>2015-12-03T15:44:34Z</time>
      </trkpt>
      <trkpt lat="48.09804" lon="-4.20991">
        <ele>158.75476074219</ele>
        <time>2015-12-03T15:44:42Z</time>
      </trkpt>
      <trkpt lat="48.09802" lon="-4.21004">
        <ele>158.27416992188</ele>
        <time>2015-12-03T15:44:48Z</time>
      </trkpt>
      <trkpt lat="48.098" lon="-4.21019">
        <ele>155.87097167969</ele>
        <time>2015-12-03T15:44:56Z</time>
      </trkpt>
      <trkpt lat="48.098" lon="-4.21023">
        <ele>155.39025878906</ele>
        <time>2015-12-03T15:44:58Z</time>
      </trkpt>
      <trkpt lat="48.09799" lon="-4.21034">
        <ele>155.87097167969</ele>
        <time>2015-12-03T15:45:04Z</time>
      </trkpt>
      <trkpt lat="48.09798" lon="-4.21036">
        <ele>156.3515625</ele>
        <time>2015-12-03T15:45:05Z</time>
      </trkpt>
      <trkpt lat="48.09798" lon="-4.21048">
        <ele>156.3515625</ele>
        <time>2015-12-03T15:45:12Z</time>
      </trkpt>
      <trkpt lat="48.09798" lon="-4.21053">
        <ele>156.3515625</ele>
        <time>2015-12-03T15:45:14Z</time>
      </trkpt>
      <trkpt lat="48.09798" lon="-4.21069">
        <ele>156.83215332031</ele>
        <time>2015-12-03T15:45:22Z</time>
      </trkpt>
      <trkpt lat="48.09797" lon="-4.21085">
        <ele>157.31286621094</ele>
        <time>2015-12-03T15:45:30Z</time>
      </trkpt>
      <trkpt lat="48.09799" lon="-4.21103">
        <ele>157.79357910156</ele>
        <time>2015-12-03T15:45:39Z</time>
      </trkpt>
      <trkpt lat="48.09797" lon="-4.2112">
        <ele>157.79357910156</ele>
        <time>2015-12-03T15:45:47Z</time>
      </trkpt>
      <trkpt lat="48.09794" lon="-4.21136">
        <ele>158.75476074219</ele>
        <time>2015-12-03T15:45:55Z</time>
      </trkpt>
      <trkpt lat="48.09793" lon="-4.21149">
        <ele>159.23547363281</ele>
        <time>2015-12-03T15:46:02Z</time>
      </trkpt>
      <trkpt lat="48.09794" lon="-4.21159">
        <ele>160.19689941406</ele>
        <time>2015-12-03T15:46:07Z</time>
      </trkpt>
      <trkpt lat="48.09792" lon="-4.21174">
        <ele>164.04211425781</ele>
        <time>2015-12-03T15:46:15Z</time>
      </trkpt>
      <trkpt lat="48.09791" lon="-4.21189">
        <ele>166.92602539062</ele>
        <time>2015-12-03T15:46:23Z</time>
      </trkpt>
      <trkpt lat="48.09789" lon="-4.21203">
        <ele>166.92602539062</ele>
        <time>2015-12-03T15:46:31Z</time>
      </trkpt>
      <trkpt lat="48.09788" lon="-4.21214">
        <ele>165.96472167969</ele>
        <time>2015-12-03T15:46:36Z</time>
      </trkpt>
      <trkpt lat="48.09786" lon="-4.21224">
        <ele>164.04211425781</ele>
        <time>2015-12-03T15:46:42Z</time>
      </trkpt>
      <trkpt lat="48.09791" lon="-4.21228">
        <ele>159.23547363281</ele>
        <time>2015-12-03T15:48:01Z</time>
      </trkpt>
      <trkpt lat="48.09792" lon="-4.21228">
        <ele>159.23547363281</ele>
        <time>2015-12-03T15:48:02Z</time>
      </trkpt>
      <trkpt lat="48.09792" lon="-4.21228">
        <ele>159.23547363281</ele>
        <time>2015-12-03T15:48:03Z</time>
      </trkpt>
    </trkseg>
  </trk>
</gpx>